<?xml version="1.0" encoding="UTF-8" standalone="no" ?>
<gpx xmlns="http://www.topografix.com/GPX/1/1" xmlns:xsi="http://www.w3.org/2001/XMLSchema-instance" xsi:schemaLocation="http://www.topografix.com/GPX/1/1 http://www.topografix.com/GPX/1/1/gpx.xsd" version="1.1" creator="VisuGPX - https://www.visugpx.com">
  <metadata>
    <name>Gorge de la siagne</name>
    <desc><![CDATA[Gorge de la siagne]]></desc>
  </metadata>
  <trk>
    <name><![CDATA[08-MARS-12 15:50:16]]></name>
    <trkseg>
      <trkpt lat="43.64986" lon="6.79364">
        <ele>479.84</ele>
        <time>2012-03-07T08:05:28Z</time>
      </trkpt>
      <trkpt lat="43.64993" lon="6.79372">
        <ele>483.68</ele>
        <time>2012-03-07T08:05:37Z</time>
      </trkpt>
      <trkpt lat="43.64992" lon="6.79388">
        <ele>479.84</ele>
        <time>2012-03-07T08:06:22Z</time>
      </trkpt>
      <trkpt lat="43.64993" lon="6.79389">
        <ele>478.87</ele>
        <time>2012-03-07T08:07:18Z</time>
      </trkpt>
      <trkpt lat="43.64993" lon="6.7939">
        <ele>478.39</ele>
        <time>2012-03-07T08:07:47Z</time>
      </trkpt>
      <trkpt lat="43.64992" lon="6.79387">
        <ele>477.91</ele>
        <time>2012-03-07T08:08:08Z</time>
      </trkpt>
      <trkpt lat="43.64992" lon="6.79386">
        <ele>478.39</ele>
        <time>2012-03-07T08:08:27Z</time>
      </trkpt>
      <trkpt lat="43.64993" lon="6.79387">
        <ele>478.87</ele>
        <time>2012-03-07T08:08:43Z</time>
      </trkpt>
      <trkpt lat="43.64993" lon="6.79387">
        <ele>477.91</ele>
        <time>2012-03-07T08:09:09Z</time>
      </trkpt>
      <trkpt lat="43.64993" lon="6.79382">
        <ele>476.95</ele>
        <time>2012-03-07T08:10:07Z</time>
      </trkpt>
      <trkpt lat="43.6499" lon="6.79369">
        <ele>474.55</ele>
        <time>2012-03-07T08:10:16Z</time>
      </trkpt>
      <trkpt lat="43.64984" lon="6.7936">
        <ele>475.51</ele>
        <time>2012-03-07T08:10:22Z</time>
      </trkpt>
      <trkpt lat="43.64984" lon="6.7934">
        <ele>474.55</ele>
        <time>2012-03-07T08:10:36Z</time>
      </trkpt>
      <trkpt lat="43.64992" lon="6.79321">
        <ele>468.78</ele>
        <time>2012-03-07T08:10:57Z</time>
      </trkpt>
      <trkpt lat="43.64976" lon="6.79302">
        <ele>462.05</ele>
        <time>2012-03-07T08:11:19Z</time>
      </trkpt>
      <trkpt lat="43.64976" lon="6.79256">
        <ele>466.38</ele>
        <time>2012-03-07T08:11:42Z</time>
      </trkpt>
      <trkpt lat="43.64975" lon="6.79241">
        <ele>469.74</ele>
        <time>2012-03-07T08:12:03Z</time>
      </trkpt>
      <trkpt lat="43.64984" lon="6.79231">
        <ele>470.7</ele>
        <time>2012-03-07T08:12:29Z</time>
      </trkpt>
      <trkpt lat="43.6499" lon="6.79222">
        <ele>467.34</ele>
        <time>2012-03-07T08:12:53Z</time>
      </trkpt>
      <trkpt lat="43.64993" lon="6.79186">
        <ele>466.86</ele>
        <time>2012-03-07T08:13:19Z</time>
      </trkpt>
      <trkpt lat="43.64994" lon="6.79183">
        <ele>465.9</ele>
        <time>2012-03-07T08:13:21Z</time>
      </trkpt>
      <trkpt lat="43.65015" lon="6.79139">
        <ele>475.03</ele>
        <time>2012-03-07T08:13:42Z</time>
      </trkpt>
      <trkpt lat="43.65007" lon="6.79139">
        <ele>478.39</ele>
        <time>2012-03-07T08:14:01Z</time>
      </trkpt>
      <trkpt lat="43.65004" lon="6.79152">
        <ele>478.39</ele>
        <time>2012-03-07T08:14:09Z</time>
      </trkpt>
      <trkpt lat="43.65002" lon="6.79151">
        <ele>478.39</ele>
        <time>2012-03-07T08:14:31Z</time>
      </trkpt>
      <trkpt lat="43.65006" lon="6.79139">
        <ele>478.39</ele>
        <time>2012-03-07T08:14:44Z</time>
      </trkpt>
      <trkpt lat="43.65011" lon="6.79133">
        <ele>476.95</ele>
        <time>2012-03-07T08:15:02Z</time>
      </trkpt>
      <trkpt lat="43.65014" lon="6.79137">
        <ele>476.47</ele>
        <time>2012-03-07T08:15:26Z</time>
      </trkpt>
      <trkpt lat="43.65012" lon="6.79137">
        <ele>476.47</ele>
        <time>2012-03-07T08:15:31Z</time>
      </trkpt>
      <trkpt lat="43.65009" lon="6.7914">
        <ele>477.43</ele>
        <time>2012-03-07T08:15:38Z</time>
      </trkpt>
      <trkpt lat="43.65012" lon="6.79152">
        <ele>476.47</ele>
        <time>2012-03-07T08:15:52Z</time>
      </trkpt>
      <trkpt lat="43.65018" lon="6.79149">
        <ele>475.99</ele>
        <time>2012-03-07T08:16:11Z</time>
      </trkpt>
      <trkpt lat="43.65026" lon="6.79142">
        <ele>473.59</ele>
        <time>2012-03-07T08:16:34Z</time>
      </trkpt>
      <trkpt lat="43.65032" lon="6.79144">
        <ele>473.11</ele>
        <time>2012-03-07T08:16:47Z</time>
      </trkpt>
      <trkpt lat="43.65038" lon="6.79135">
        <ele>473.59</ele>
        <time>2012-03-07T08:17:04Z</time>
      </trkpt>
      <trkpt lat="43.65045" lon="6.7914">
        <ele>474.07</ele>
        <time>2012-03-07T08:17:20Z</time>
      </trkpt>
      <trkpt lat="43.65052" lon="6.79148">
        <ele>471.66</ele>
        <time>2012-03-07T08:17:33Z</time>
      </trkpt>
      <trkpt lat="43.65056" lon="6.79149">
        <ele>472.14</ele>
        <time>2012-03-07T08:17:35Z</time>
      </trkpt>
      <trkpt lat="43.65085" lon="6.79153">
        <ele>472.63</ele>
        <time>2012-03-07T08:17:58Z</time>
      </trkpt>
      <trkpt lat="43.65104" lon="6.7915">
        <ele>473.11</ele>
        <time>2012-03-07T08:18:16Z</time>
      </trkpt>
      <trkpt lat="43.65112" lon="6.7915">
        <ele>471.18</ele>
        <time>2012-03-07T08:18:33Z</time>
      </trkpt>
      <trkpt lat="43.65133" lon="6.79137">
        <ele>483.2</ele>
        <time>2012-03-07T08:18:45Z</time>
      </trkpt>
      <trkpt lat="43.65137" lon="6.79137">
        <ele>478.87</ele>
        <time>2012-03-07T08:19:05Z</time>
      </trkpt>
      <trkpt lat="43.65145" lon="6.79138">
        <ele>475.51</ele>
        <time>2012-03-07T08:19:16Z</time>
      </trkpt>
      <trkpt lat="43.65167" lon="6.79135">
        <ele>471.66</ele>
        <time>2012-03-07T08:19:36Z</time>
      </trkpt>
      <trkpt lat="43.65183" lon="6.7913">
        <ele>469.74</ele>
        <time>2012-03-07T08:19:51Z</time>
      </trkpt>
      <trkpt lat="43.65197" lon="6.79129">
        <ele>471.18</ele>
        <time>2012-03-07T08:20:06Z</time>
      </trkpt>
      <trkpt lat="43.65208" lon="6.79124">
        <ele>470.7</ele>
        <time>2012-03-07T08:20:14Z</time>
      </trkpt>
      <trkpt lat="43.65214" lon="6.79124">
        <ele>472.14</ele>
        <time>2012-03-07T08:20:18Z</time>
      </trkpt>
      <trkpt lat="43.65233" lon="6.7912">
        <ele>474.07</ele>
        <time>2012-03-07T08:20:36Z</time>
      </trkpt>
      <trkpt lat="43.65263" lon="6.79126">
        <ele>474.55</ele>
        <time>2012-03-07T08:21:02Z</time>
      </trkpt>
      <trkpt lat="43.65276" lon="6.79128">
        <ele>472.14</ele>
        <time>2012-03-07T08:21:18Z</time>
      </trkpt>
      <trkpt lat="43.6528" lon="6.79134">
        <ele>471.66</ele>
        <time>2012-03-07T08:21:24Z</time>
      </trkpt>
      <trkpt lat="43.65311" lon="6.79147">
        <ele>470.22</ele>
        <time>2012-03-07T08:21:49Z</time>
      </trkpt>
      <trkpt lat="43.65332" lon="6.79155">
        <ele>471.18</ele>
        <time>2012-03-07T08:22:09Z</time>
      </trkpt>
      <trkpt lat="43.6534" lon="6.79155">
        <ele>470.22</ele>
        <time>2012-03-07T08:22:19Z</time>
      </trkpt>
      <trkpt lat="43.65352" lon="6.7916">
        <ele>468.3</ele>
        <time>2012-03-07T08:22:34Z</time>
      </trkpt>
      <trkpt lat="43.65366" lon="6.79162">
        <ele>466.86</ele>
        <time>2012-03-07T08:22:46Z</time>
      </trkpt>
      <trkpt lat="43.65398" lon="6.79164">
        <ele>467.34</ele>
        <time>2012-03-07T08:23:12Z</time>
      </trkpt>
      <trkpt lat="43.654" lon="6.79164">
        <ele>467.34</ele>
        <time>2012-03-07T08:23:31Z</time>
      </trkpt>
      <trkpt lat="43.65415" lon="6.79163">
        <ele>465.9</ele>
        <time>2012-03-07T08:23:49Z</time>
      </trkpt>
      <trkpt lat="43.65436" lon="6.79159">
        <ele>466.86</ele>
        <time>2012-03-07T08:24:08Z</time>
      </trkpt>
      <trkpt lat="43.65457" lon="6.79153">
        <ele>467.82</ele>
        <time>2012-03-07T08:24:28Z</time>
      </trkpt>
      <trkpt lat="43.65477" lon="6.79145">
        <ele>467.34</ele>
        <time>2012-03-07T08:24:47Z</time>
      </trkpt>
      <trkpt lat="43.65485" lon="6.79143">
        <ele>468.3</ele>
        <time>2012-03-07T08:24:58Z</time>
      </trkpt>
      <trkpt lat="43.6551" lon="6.79157">
        <ele>471.18</ele>
        <time>2012-03-07T08:25:21Z</time>
      </trkpt>
      <trkpt lat="43.65532" lon="6.7916">
        <ele>469.26</ele>
        <time>2012-03-07T08:25:40Z</time>
      </trkpt>
      <trkpt lat="43.65553" lon="6.79158">
        <ele>466.86</ele>
        <time>2012-03-07T08:26:00Z</time>
      </trkpt>
      <trkpt lat="43.65566" lon="6.79159">
        <ele>467.82</ele>
        <time>2012-03-07T08:26:17Z</time>
      </trkpt>
      <trkpt lat="43.65566" lon="6.79157">
        <ele>466.86</ele>
        <time>2012-03-07T08:26:23Z</time>
      </trkpt>
      <trkpt lat="43.65569" lon="6.79135">
        <ele>464.93</ele>
        <time>2012-03-07T08:26:39Z</time>
      </trkpt>
      <trkpt lat="43.65584" lon="6.79113">
        <ele>466.86</ele>
        <time>2012-03-07T08:26:58Z</time>
      </trkpt>
      <trkpt lat="43.65599" lon="6.79088">
        <ele>467.34</ele>
        <time>2012-03-07T08:27:21Z</time>
      </trkpt>
      <trkpt lat="43.65604" lon="6.79081">
        <ele>466.86</ele>
        <time>2012-03-07T08:27:28Z</time>
      </trkpt>
      <trkpt lat="43.65621" lon="6.79058">
        <ele>464.93</ele>
        <time>2012-03-07T08:27:50Z</time>
      </trkpt>
      <trkpt lat="43.65631" lon="6.79036">
        <ele>463.49</ele>
        <time>2012-03-07T08:28:09Z</time>
      </trkpt>
      <trkpt lat="43.65633" lon="6.7903">
        <ele>461.09</ele>
        <time>2012-03-07T08:28:15Z</time>
      </trkpt>
      <trkpt lat="43.65634" lon="6.79023">
        <ele>461.09</ele>
        <time>2012-03-07T08:28:18Z</time>
      </trkpt>
      <trkpt lat="43.65653" lon="6.7901">
        <ele>460.61</ele>
        <time>2012-03-07T08:28:37Z</time>
      </trkpt>
      <trkpt lat="43.65671" lon="6.78997">
        <ele>460.13</ele>
        <time>2012-03-07T08:28:56Z</time>
      </trkpt>
      <trkpt lat="43.65689" lon="6.78981">
        <ele>462.05</ele>
        <time>2012-03-07T08:29:15Z</time>
      </trkpt>
      <trkpt lat="43.65701" lon="6.78962">
        <ele>458.21</ele>
        <time>2012-03-07T08:29:32Z</time>
      </trkpt>
      <trkpt lat="43.65716" lon="6.78946">
        <ele>457.72</ele>
        <time>2012-03-07T08:29:51Z</time>
      </trkpt>
      <trkpt lat="43.6573" lon="6.7893">
        <ele>457.24</ele>
        <time>2012-03-07T08:30:09Z</time>
      </trkpt>
      <trkpt lat="43.65744" lon="6.78909">
        <ele>456.76</ele>
        <time>2012-03-07T08:30:27Z</time>
      </trkpt>
      <trkpt lat="43.65747" lon="6.78904">
        <ele>455.8</ele>
        <time>2012-03-07T08:30:32Z</time>
      </trkpt>
      <trkpt lat="43.6575" lon="6.78899">
        <ele>455.32</ele>
        <time>2012-03-07T08:30:37Z</time>
      </trkpt>
      <trkpt lat="43.65762" lon="6.78881">
        <ele>454.36</ele>
        <time>2012-03-07T08:30:54Z</time>
      </trkpt>
      <trkpt lat="43.65766" lon="6.78877">
        <ele>453.88</ele>
        <time>2012-03-07T08:30:59Z</time>
      </trkpt>
      <trkpt lat="43.65769" lon="6.78874">
        <ele>453.88</ele>
        <time>2012-03-07T08:31:02Z</time>
      </trkpt>
      <trkpt lat="43.65783" lon="6.78856">
        <ele>455.32</ele>
        <time>2012-03-07T08:31:19Z</time>
      </trkpt>
      <trkpt lat="43.65795" lon="6.7884">
        <ele>454.84</ele>
        <time>2012-03-07T08:31:40Z</time>
      </trkpt>
      <trkpt lat="43.65802" lon="6.78835">
        <ele>455.32</ele>
        <time>2012-03-07T08:31:46Z</time>
      </trkpt>
      <trkpt lat="43.65821" lon="6.78819">
        <ele>457.72</ele>
        <time>2012-03-07T08:32:04Z</time>
      </trkpt>
      <trkpt lat="43.65843" lon="6.78795">
        <ele>458.69</ele>
        <time>2012-03-07T08:32:30Z</time>
      </trkpt>
      <trkpt lat="43.65861" lon="6.78774">
        <ele>459.65</ele>
        <time>2012-03-07T08:32:52Z</time>
      </trkpt>
      <trkpt lat="43.65884" lon="6.78757">
        <ele>460.13</ele>
        <time>2012-03-07T08:33:17Z</time>
      </trkpt>
      <trkpt lat="43.65898" lon="6.78749">
        <ele>454.84</ele>
        <time>2012-03-07T08:33:35Z</time>
      </trkpt>
      <trkpt lat="43.65915" lon="6.78744">
        <ele>452.92</ele>
        <time>2012-03-07T08:33:54Z</time>
      </trkpt>
      <trkpt lat="43.65943" lon="6.78727">
        <ele>452.92</ele>
        <time>2012-03-07T08:34:20Z</time>
      </trkpt>
      <trkpt lat="43.65967" lon="6.78723">
        <ele>449.55</ele>
        <time>2012-03-07T08:34:44Z</time>
      </trkpt>
      <trkpt lat="43.65989" lon="6.78719">
        <ele>452.44</ele>
        <time>2012-03-07T08:35:03Z</time>
      </trkpt>
      <trkpt lat="43.66011" lon="6.78712">
        <ele>454.84</ele>
        <time>2012-03-07T08:35:26Z</time>
      </trkpt>
      <trkpt lat="43.66031" lon="6.787">
        <ele>458.21</ele>
        <time>2012-03-07T08:35:45Z</time>
      </trkpt>
      <trkpt lat="43.66051" lon="6.78692">
        <ele>460.61</ele>
        <time>2012-03-07T08:36:05Z</time>
      </trkpt>
      <trkpt lat="43.66053" lon="6.78691">
        <ele>460.61</ele>
        <time>2012-03-07T08:36:07Z</time>
      </trkpt>
      <trkpt lat="43.66072" lon="6.78689">
        <ele>457.72</ele>
        <time>2012-03-07T08:36:26Z</time>
      </trkpt>
      <trkpt lat="43.66078" lon="6.78687">
        <ele>456.76</ele>
        <time>2012-03-07T08:36:32Z</time>
      </trkpt>
      <trkpt lat="43.66094" lon="6.78674">
        <ele>457.24</ele>
        <time>2012-03-07T08:36:51Z</time>
      </trkpt>
      <trkpt lat="43.66105" lon="6.7866">
        <ele>456.76</ele>
        <time>2012-03-07T08:37:05Z</time>
      </trkpt>
      <trkpt lat="43.66116" lon="6.78644">
        <ele>458.69</ele>
        <time>2012-03-07T08:37:25Z</time>
      </trkpt>
      <trkpt lat="43.66126" lon="6.78629">
        <ele>459.17</ele>
        <time>2012-03-07T08:37:40Z</time>
      </trkpt>
      <trkpt lat="43.66137" lon="6.78613">
        <ele>459.65</ele>
        <time>2012-03-07T08:37:57Z</time>
      </trkpt>
      <trkpt lat="43.66151" lon="6.78603">
        <ele>457.72</ele>
        <time>2012-03-07T08:38:13Z</time>
      </trkpt>
      <trkpt lat="43.66155" lon="6.78602">
        <ele>457.72</ele>
        <time>2012-03-07T08:38:16Z</time>
      </trkpt>
      <trkpt lat="43.66165" lon="6.78596">
        <ele>457.24</ele>
        <time>2012-03-07T08:38:27Z</time>
      </trkpt>
      <trkpt lat="43.66188" lon="6.78587">
        <ele>456.76</ele>
        <time>2012-03-07T08:38:49Z</time>
      </trkpt>
      <trkpt lat="43.66212" lon="6.78572">
        <ele>457.72</ele>
        <time>2012-03-07T08:39:13Z</time>
      </trkpt>
      <trkpt lat="43.66221" lon="6.78565">
        <ele>457.72</ele>
        <time>2012-03-07T08:39:35Z</time>
      </trkpt>
      <trkpt lat="43.66222" lon="6.78564">
        <ele>458.21</ele>
        <time>2012-03-07T08:40:05Z</time>
      </trkpt>
      <trkpt lat="43.66222" lon="6.78563">
        <ele>460.13</ele>
        <time>2012-03-07T08:40:49Z</time>
      </trkpt>
      <trkpt lat="43.66226" lon="6.78561">
        <ele>460.61</ele>
        <time>2012-03-07T08:41:25Z</time>
      </trkpt>
      <trkpt lat="43.6623" lon="6.78558">
        <ele>461.57</ele>
        <time>2012-03-07T08:41:29Z</time>
      </trkpt>
      <trkpt lat="43.66247" lon="6.78541">
        <ele>460.61</ele>
        <time>2012-03-07T08:41:48Z</time>
      </trkpt>
      <trkpt lat="43.6625" lon="6.78538">
        <ele>459.65</ele>
        <time>2012-03-07T08:41:52Z</time>
      </trkpt>
      <trkpt lat="43.66264" lon="6.78519">
        <ele>460.13</ele>
        <time>2012-03-07T08:42:13Z</time>
      </trkpt>
      <trkpt lat="43.66277" lon="6.78506">
        <ele>460.61</ele>
        <time>2012-03-07T08:42:31Z</time>
      </trkpt>
      <trkpt lat="43.66297" lon="6.78487">
        <ele>463.97</ele>
        <time>2012-03-07T08:42:55Z</time>
      </trkpt>
      <trkpt lat="43.66312" lon="6.78469">
        <ele>464.93</ele>
        <time>2012-03-07T08:43:18Z</time>
      </trkpt>
      <trkpt lat="43.6633" lon="6.78445">
        <ele>469.26</ele>
        <time>2012-03-07T08:43:40Z</time>
      </trkpt>
      <trkpt lat="43.66342" lon="6.7843">
        <ele>472.14</ele>
        <time>2012-03-07T08:43:58Z</time>
      </trkpt>
      <trkpt lat="43.66348" lon="6.78411">
        <ele>468.3</ele>
        <time>2012-03-07T08:44:19Z</time>
      </trkpt>
      <trkpt lat="43.66352" lon="6.78398">
        <ele>466.86</ele>
        <time>2012-03-07T08:44:27Z</time>
      </trkpt>
      <trkpt lat="43.66358" lon="6.78372">
        <ele>467.34</ele>
        <time>2012-03-07T08:44:47Z</time>
      </trkpt>
      <trkpt lat="43.66359" lon="6.7837">
        <ele>467.82</ele>
        <time>2012-03-07T08:44:49Z</time>
      </trkpt>
      <trkpt lat="43.66366" lon="6.78358">
        <ele>471.18</ele>
        <time>2012-03-07T08:45:01Z</time>
      </trkpt>
      <trkpt lat="43.66371" lon="6.78354">
        <ele>473.11</ele>
        <time>2012-03-07T08:45:06Z</time>
      </trkpt>
      <trkpt lat="43.66386" lon="6.78336">
        <ele>477.91</ele>
        <time>2012-03-07T08:45:25Z</time>
      </trkpt>
      <trkpt lat="43.66399" lon="6.78311">
        <ele>478.39</ele>
        <time>2012-03-07T08:45:48Z</time>
      </trkpt>
      <trkpt lat="43.66403" lon="6.78308">
        <ele>478.87</ele>
        <time>2012-03-07T08:45:52Z</time>
      </trkpt>
      <trkpt lat="43.66423" lon="6.78293">
        <ele>479.84</ele>
        <time>2012-03-07T08:46:14Z</time>
      </trkpt>
      <trkpt lat="43.66433" lon="6.78281">
        <ele>479.35</ele>
        <time>2012-03-07T08:46:27Z</time>
      </trkpt>
      <trkpt lat="43.66443" lon="6.78272">
        <ele>481.28</ele>
        <time>2012-03-07T08:46:40Z</time>
      </trkpt>
      <trkpt lat="43.66447" lon="6.7827">
        <ele>483.2</ele>
        <time>2012-03-07T08:46:46Z</time>
      </trkpt>
      <trkpt lat="43.66447" lon="6.78273">
        <ele>483.68</ele>
        <time>2012-03-07T08:46:53Z</time>
      </trkpt>
      <trkpt lat="43.66451" lon="6.78269">
        <ele>484.16</ele>
        <time>2012-03-07T08:46:59Z</time>
      </trkpt>
      <trkpt lat="43.66462" lon="6.78263">
        <ele>485.12</ele>
        <time>2012-03-07T08:47:09Z</time>
      </trkpt>
      <trkpt lat="43.66464" lon="6.78263">
        <ele>485.6</ele>
        <time>2012-03-07T08:47:16Z</time>
      </trkpt>
      <trkpt lat="43.66469" lon="6.78259">
        <ele>486.56</ele>
        <time>2012-03-07T08:47:25Z</time>
      </trkpt>
      <trkpt lat="43.66481" lon="6.78251">
        <ele>487.53</ele>
        <time>2012-03-07T08:47:45Z</time>
      </trkpt>
      <trkpt lat="43.66494" lon="6.78241">
        <ele>487.53</ele>
        <time>2012-03-07T08:47:59Z</time>
      </trkpt>
      <trkpt lat="43.66513" lon="6.78225">
        <ele>490.89</ele>
        <time>2012-03-07T08:48:21Z</time>
      </trkpt>
      <trkpt lat="43.66523" lon="6.78225">
        <ele>492.81</ele>
        <time>2012-03-07T08:48:32Z</time>
      </trkpt>
      <trkpt lat="43.66526" lon="6.78225">
        <ele>492.81</ele>
        <time>2012-03-07T08:48:35Z</time>
      </trkpt>
      <trkpt lat="43.66532" lon="6.78229">
        <ele>492.81</ele>
        <time>2012-03-07T08:48:43Z</time>
      </trkpt>
      <trkpt lat="43.66535" lon="6.78232">
        <ele>492.81</ele>
        <time>2012-03-07T08:48:47Z</time>
      </trkpt>
      <trkpt lat="43.66553" lon="6.78236">
        <ele>493.77</ele>
        <time>2012-03-07T08:49:05Z</time>
      </trkpt>
      <trkpt lat="43.6656" lon="6.78238">
        <ele>493.77</ele>
        <time>2012-03-07T08:49:11Z</time>
      </trkpt>
      <trkpt lat="43.66584" lon="6.78245">
        <ele>490.41</ele>
        <time>2012-03-07T08:49:34Z</time>
      </trkpt>
      <trkpt lat="43.66596" lon="6.78251">
        <ele>490.41</ele>
        <time>2012-03-07T08:49:47Z</time>
      </trkpt>
      <trkpt lat="43.66613" lon="6.78255">
        <ele>492.33</ele>
        <time>2012-03-07T08:50:05Z</time>
      </trkpt>
      <trkpt lat="43.66622" lon="6.78259">
        <ele>492.81</ele>
        <time>2012-03-07T08:50:16Z</time>
      </trkpt>
      <trkpt lat="43.66641" lon="6.78268">
        <ele>494.26</ele>
        <time>2012-03-07T08:50:36Z</time>
      </trkpt>
      <trkpt lat="43.66657" lon="6.78278">
        <ele>494.74</ele>
        <time>2012-03-07T08:50:53Z</time>
      </trkpt>
      <trkpt lat="43.66679" lon="6.78272">
        <ele>497.62</ele>
        <time>2012-03-07T08:51:14Z</time>
      </trkpt>
      <trkpt lat="43.66699" lon="6.78256">
        <ele>499.06</ele>
        <time>2012-03-07T08:51:36Z</time>
      </trkpt>
      <trkpt lat="43.66716" lon="6.78258">
        <ele>498.1</ele>
        <time>2012-03-07T08:51:55Z</time>
      </trkpt>
      <trkpt lat="43.66734" lon="6.7827">
        <ele>498.1</ele>
        <time>2012-03-07T08:52:14Z</time>
      </trkpt>
      <trkpt lat="43.66756" lon="6.78274">
        <ele>499.06</ele>
        <time>2012-03-07T08:52:37Z</time>
      </trkpt>
      <trkpt lat="43.66767" lon="6.78273">
        <ele>498.58</ele>
        <time>2012-03-07T08:52:52Z</time>
      </trkpt>
      <trkpt lat="43.6678" lon="6.78273">
        <ele>498.1</ele>
        <time>2012-03-07T08:53:05Z</time>
      </trkpt>
      <trkpt lat="43.66796" lon="6.78282">
        <ele>499.06</ele>
        <time>2012-03-07T08:53:24Z</time>
      </trkpt>
      <trkpt lat="43.66807" lon="6.78292">
        <ele>500.02</ele>
        <time>2012-03-07T08:53:40Z</time>
      </trkpt>
      <trkpt lat="43.66814" lon="6.78296">
        <ele>500.02</ele>
        <time>2012-03-07T08:53:48Z</time>
      </trkpt>
      <trkpt lat="43.66819" lon="6.783">
        <ele>500.02</ele>
        <time>2012-03-07T08:53:55Z</time>
      </trkpt>
      <trkpt lat="43.66823" lon="6.78302">
        <ele>500.98</ele>
        <time>2012-03-07T08:53:59Z</time>
      </trkpt>
      <trkpt lat="43.66837" lon="6.78292">
        <ele>503.39</ele>
        <time>2012-03-07T08:54:17Z</time>
      </trkpt>
      <trkpt lat="43.66844" lon="6.78288">
        <ele>504.35</ele>
        <time>2012-03-07T08:54:37Z</time>
      </trkpt>
      <trkpt lat="43.66844" lon="6.78288">
        <ele>504.35</ele>
        <time>2012-03-07T08:55:14Z</time>
      </trkpt>
      <trkpt lat="43.66845" lon="6.78287">
        <ele>504.35</ele>
        <time>2012-03-07T08:55:47Z</time>
      </trkpt>
      <trkpt lat="43.66856" lon="6.78274">
        <ele>504.83</ele>
        <time>2012-03-07T08:56:03Z</time>
      </trkpt>
      <trkpt lat="43.66869" lon="6.78263">
        <ele>505.31</ele>
        <time>2012-03-07T08:56:20Z</time>
      </trkpt>
      <trkpt lat="43.66885" lon="6.78248">
        <ele>507.71</ele>
        <time>2012-03-07T08:56:39Z</time>
      </trkpt>
      <trkpt lat="43.66887" lon="6.78247">
        <ele>508.19</ele>
        <time>2012-03-07T08:56:41Z</time>
      </trkpt>
      <trkpt lat="43.66904" lon="6.78237">
        <ele>511.08</ele>
        <time>2012-03-07T08:57:00Z</time>
      </trkpt>
      <trkpt lat="43.66908" lon="6.78235">
        <ele>511.56</ele>
        <time>2012-03-07T08:57:08Z</time>
      </trkpt>
      <trkpt lat="43.66923" lon="6.78228">
        <ele>510.6</ele>
        <time>2012-03-07T08:57:23Z</time>
      </trkpt>
      <trkpt lat="43.66929" lon="6.78225">
        <ele>510.6</ele>
        <time>2012-03-07T08:57:30Z</time>
      </trkpt>
      <trkpt lat="43.66947" lon="6.78218">
        <ele>511.08</ele>
        <time>2012-03-07T08:57:49Z</time>
      </trkpt>
      <trkpt lat="43.66968" lon="6.78212">
        <ele>512.52</ele>
        <time>2012-03-07T08:58:10Z</time>
      </trkpt>
      <trkpt lat="43.66984" lon="6.78205">
        <ele>516.37</ele>
        <time>2012-03-07T08:58:29Z</time>
      </trkpt>
      <trkpt lat="43.66987" lon="6.78202">
        <ele>517.33</ele>
        <time>2012-03-07T08:58:33Z</time>
      </trkpt>
      <trkpt lat="43.6699" lon="6.78197">
        <ele>517.81</ele>
        <time>2012-03-07T08:58:38Z</time>
      </trkpt>
      <trkpt lat="43.66998" lon="6.78182">
        <ele>518.29</ele>
        <time>2012-03-07T08:59:00Z</time>
      </trkpt>
      <trkpt lat="43.67015" lon="6.78161">
        <ele>517.33</ele>
        <time>2012-03-07T08:59:22Z</time>
      </trkpt>
      <trkpt lat="43.67029" lon="6.78143">
        <ele>518.77</ele>
        <time>2012-03-07T08:59:40Z</time>
      </trkpt>
      <trkpt lat="43.67042" lon="6.78133">
        <ele>520.21</ele>
        <time>2012-03-07T08:59:58Z</time>
      </trkpt>
      <trkpt lat="43.67054" lon="6.78124">
        <ele>521.65</ele>
        <time>2012-03-07T09:00:19Z</time>
      </trkpt>
      <trkpt lat="43.67066" lon="6.78116">
        <ele>522.13</ele>
        <time>2012-03-07T09:00:38Z</time>
      </trkpt>
      <trkpt lat="43.6708" lon="6.78098">
        <ele>524.54</ele>
        <time>2012-03-07T09:00:56Z</time>
      </trkpt>
      <trkpt lat="43.67082" lon="6.78097">
        <ele>525.02</ele>
        <time>2012-03-07T09:00:59Z</time>
      </trkpt>
      <trkpt lat="43.67084" lon="6.78079">
        <ele>525.02</ele>
        <time>2012-03-07T09:01:15Z</time>
      </trkpt>
      <trkpt lat="43.67083" lon="6.78075">
        <ele>525.02</ele>
        <time>2012-03-07T09:01:18Z</time>
      </trkpt>
      <trkpt lat="43.67077" lon="6.78049">
        <ele>524.54</ele>
        <time>2012-03-07T09:01:36Z</time>
      </trkpt>
      <trkpt lat="43.67073" lon="6.7803">
        <ele>522.13</ele>
        <time>2012-03-07T09:01:53Z</time>
      </trkpt>
      <trkpt lat="43.67068" lon="6.78003">
        <ele>519.73</ele>
        <time>2012-03-07T09:02:13Z</time>
      </trkpt>
      <trkpt lat="43.67064" lon="6.7797">
        <ele>523.09</ele>
        <time>2012-03-07T09:02:34Z</time>
      </trkpt>
      <trkpt lat="43.67064" lon="6.77946">
        <ele>525.02</ele>
        <time>2012-03-07T09:02:53Z</time>
      </trkpt>
      <trkpt lat="43.6707" lon="6.77922">
        <ele>526.94</ele>
        <time>2012-03-07T09:03:11Z</time>
      </trkpt>
      <trkpt lat="43.67073" lon="6.77906">
        <ele>526.46</ele>
        <time>2012-03-07T09:03:23Z</time>
      </trkpt>
      <trkpt lat="43.67073" lon="6.77904">
        <ele>526.94</ele>
        <time>2012-03-07T09:03:25Z</time>
      </trkpt>
      <trkpt lat="43.67075" lon="6.77886">
        <ele>528.86</ele>
        <time>2012-03-07T09:03:39Z</time>
      </trkpt>
      <trkpt lat="43.67078" lon="6.77864">
        <ele>530.3</ele>
        <time>2012-03-07T09:03:57Z</time>
      </trkpt>
      <trkpt lat="43.67085" lon="6.77841">
        <ele>528.86</ele>
        <time>2012-03-07T09:04:16Z</time>
      </trkpt>
      <trkpt lat="43.67089" lon="6.77836">
        <ele>527.9</ele>
        <time>2012-03-07T09:04:23Z</time>
      </trkpt>
      <trkpt lat="43.67098" lon="6.77822">
        <ele>526.46</ele>
        <time>2012-03-07T09:04:39Z</time>
      </trkpt>
      <trkpt lat="43.67104" lon="6.77806">
        <ele>527.9</ele>
        <time>2012-03-07T09:04:57Z</time>
      </trkpt>
      <trkpt lat="43.67116" lon="6.77779">
        <ele>526.46</ele>
        <time>2012-03-07T09:05:18Z</time>
      </trkpt>
      <trkpt lat="43.67118" lon="6.77751">
        <ele>525.5</ele>
        <time>2012-03-07T09:05:37Z</time>
      </trkpt>
      <trkpt lat="43.67118" lon="6.77746">
        <ele>526.46</ele>
        <time>2012-03-07T09:05:41Z</time>
      </trkpt>
      <trkpt lat="43.67118" lon="6.77732">
        <ele>531.27</ele>
        <time>2012-03-07T09:06:02Z</time>
      </trkpt>
      <trkpt lat="43.67119" lon="6.7773">
        <ele>531.75</ele>
        <time>2012-03-07T09:06:35Z</time>
      </trkpt>
      <trkpt lat="43.6712" lon="6.77728">
        <ele>533.19</ele>
        <time>2012-03-07T09:07:04Z</time>
      </trkpt>
      <trkpt lat="43.67119" lon="6.77724">
        <ele>532.71</ele>
        <time>2012-03-07T09:07:30Z</time>
      </trkpt>
      <trkpt lat="43.67119" lon="6.77708">
        <ele>535.11</ele>
        <time>2012-03-07T09:07:58Z</time>
      </trkpt>
      <trkpt lat="43.6712" lon="6.77684">
        <ele>535.59</ele>
        <time>2012-03-07T09:08:16Z</time>
      </trkpt>
      <trkpt lat="43.67117" lon="6.77656">
        <ele>535.59</ele>
        <time>2012-03-07T09:08:36Z</time>
      </trkpt>
      <trkpt lat="43.67115" lon="6.77628">
        <ele>533.67</ele>
        <time>2012-03-07T09:08:53Z</time>
      </trkpt>
      <trkpt lat="43.67115" lon="6.77625">
        <ele>533.67</ele>
        <time>2012-03-07T09:08:55Z</time>
      </trkpt>
      <trkpt lat="43.67113" lon="6.77592">
        <ele>531.75</ele>
        <time>2012-03-07T09:09:17Z</time>
      </trkpt>
      <trkpt lat="43.6712" lon="6.77572">
        <ele>531.75</ele>
        <time>2012-03-07T09:09:35Z</time>
      </trkpt>
      <trkpt lat="43.67122" lon="6.77565">
        <ele>530.79</ele>
        <time>2012-03-07T09:09:42Z</time>
      </trkpt>
      <trkpt lat="43.67126" lon="6.77554">
        <ele>530.3</ele>
        <time>2012-03-07T09:09:50Z</time>
      </trkpt>
      <trkpt lat="43.67127" lon="6.77551">
        <ele>529.34</ele>
        <time>2012-03-07T09:09:52Z</time>
      </trkpt>
      <trkpt lat="43.6713" lon="6.77536">
        <ele>529.34</ele>
        <time>2012-03-07T09:10:03Z</time>
      </trkpt>
      <trkpt lat="43.67133" lon="6.77516">
        <ele>529.82</ele>
        <time>2012-03-07T09:10:24Z</time>
      </trkpt>
      <trkpt lat="43.67132" lon="6.77518">
        <ele>530.3</ele>
        <time>2012-03-07T09:10:28Z</time>
      </trkpt>
      <trkpt lat="43.67134" lon="6.77516">
        <ele>531.27</ele>
        <time>2012-03-07T09:10:34Z</time>
      </trkpt>
      <trkpt lat="43.67138" lon="6.77511">
        <ele>531.75</ele>
        <time>2012-03-07T09:10:39Z</time>
      </trkpt>
      <trkpt lat="43.67143" lon="6.77505">
        <ele>531.27</ele>
        <time>2012-03-07T09:10:44Z</time>
      </trkpt>
      <trkpt lat="43.67144" lon="6.77503">
        <ele>531.27</ele>
        <time>2012-03-07T09:10:46Z</time>
      </trkpt>
      <trkpt lat="43.67147" lon="6.77501">
        <ele>531.75</ele>
        <time>2012-03-07T09:10:48Z</time>
      </trkpt>
      <trkpt lat="43.67148" lon="6.77499">
        <ele>532.23</ele>
        <time>2012-03-07T09:10:50Z</time>
      </trkpt>
      <trkpt lat="43.67155" lon="6.77479">
        <ele>532.71</ele>
        <time>2012-03-07T09:11:08Z</time>
      </trkpt>
      <trkpt lat="43.67158" lon="6.77475">
        <ele>533.19</ele>
        <time>2012-03-07T09:11:12Z</time>
      </trkpt>
      <trkpt lat="43.67159" lon="6.77472">
        <ele>533.19</ele>
        <time>2012-03-07T09:11:14Z</time>
      </trkpt>
      <trkpt lat="43.67166" lon="6.7745">
        <ele>535.59</ele>
        <time>2012-03-07T09:11:32Z</time>
      </trkpt>
      <trkpt lat="43.67173" lon="6.77432">
        <ele>537.51</ele>
        <time>2012-03-07T09:11:48Z</time>
      </trkpt>
      <trkpt lat="43.6718" lon="6.77412">
        <ele>539.44</ele>
        <time>2012-03-07T09:12:07Z</time>
      </trkpt>
      <trkpt lat="43.67188" lon="6.77393">
        <ele>541.84</ele>
        <time>2012-03-07T09:12:25Z</time>
      </trkpt>
      <trkpt lat="43.67197" lon="6.77375">
        <ele>542.8</ele>
        <time>2012-03-07T09:12:42Z</time>
      </trkpt>
      <trkpt lat="43.67207" lon="6.77354">
        <ele>544.24</ele>
        <time>2012-03-07T09:13:02Z</time>
      </trkpt>
      <trkpt lat="43.67207" lon="6.77353">
        <ele>544.24</ele>
        <time>2012-03-07T09:13:03Z</time>
      </trkpt>
      <trkpt lat="43.67218" lon="6.77336">
        <ele>545.69</ele>
        <time>2012-03-07T09:13:21Z</time>
      </trkpt>
      <trkpt lat="43.67229" lon="6.7732">
        <ele>546.65</ele>
        <time>2012-03-07T09:13:39Z</time>
      </trkpt>
      <trkpt lat="43.67241" lon="6.77304">
        <ele>548.09</ele>
        <time>2012-03-07T09:13:58Z</time>
      </trkpt>
      <trkpt lat="43.67259" lon="6.77285">
        <ele>551.93</ele>
        <time>2012-03-07T09:14:25Z</time>
      </trkpt>
      <trkpt lat="43.67279" lon="6.77269">
        <ele>553.38</ele>
        <time>2012-03-07T09:14:50Z</time>
      </trkpt>
      <trkpt lat="43.673" lon="6.77246">
        <ele>558.18</ele>
        <time>2012-03-07T09:15:18Z</time>
      </trkpt>
      <trkpt lat="43.67318" lon="6.77231">
        <ele>556.74</ele>
        <time>2012-03-07T09:15:40Z</time>
      </trkpt>
      <trkpt lat="43.67329" lon="6.7722">
        <ele>559.14</ele>
        <time>2012-03-07T09:15:56Z</time>
      </trkpt>
      <trkpt lat="43.67341" lon="6.77207">
        <ele>560.59</ele>
        <time>2012-03-07T09:16:13Z</time>
      </trkpt>
      <trkpt lat="43.6735" lon="6.77196">
        <ele>560.11</ele>
        <time>2012-03-07T09:16:29Z</time>
      </trkpt>
      <trkpt lat="43.67359" lon="6.77186">
        <ele>560.59</ele>
        <time>2012-03-07T09:16:41Z</time>
      </trkpt>
      <trkpt lat="43.67365" lon="6.77177">
        <ele>561.07</ele>
        <time>2012-03-07T09:16:50Z</time>
      </trkpt>
      <trkpt lat="43.67375" lon="6.77158">
        <ele>562.51</ele>
        <time>2012-03-07T09:17:09Z</time>
      </trkpt>
      <trkpt lat="43.67385" lon="6.77139">
        <ele>562.03</ele>
        <time>2012-03-07T09:17:31Z</time>
      </trkpt>
      <trkpt lat="43.67399" lon="6.77112">
        <ele>565.87</ele>
        <time>2012-03-07T09:17:56Z</time>
      </trkpt>
      <trkpt lat="43.67411" lon="6.77098">
        <ele>568.76</ele>
        <time>2012-03-07T09:18:15Z</time>
      </trkpt>
      <trkpt lat="43.67419" lon="6.77085">
        <ele>568.76</ele>
        <time>2012-03-07T09:18:30Z</time>
      </trkpt>
      <trkpt lat="43.67426" lon="6.77071">
        <ele>568.28</ele>
        <time>2012-03-07T09:18:45Z</time>
      </trkpt>
      <trkpt lat="43.67433" lon="6.77068">
        <ele>570.68</ele>
        <time>2012-03-07T09:19:04Z</time>
      </trkpt>
      <trkpt lat="43.67443" lon="6.77062">
        <ele>573.08</ele>
        <time>2012-03-07T09:19:20Z</time>
      </trkpt>
      <trkpt lat="43.67453" lon="6.77055">
        <ele>575.49</ele>
        <time>2012-03-07T09:19:39Z</time>
      </trkpt>
      <trkpt lat="43.67466" lon="6.77049">
        <ele>579.33</ele>
        <time>2012-03-07T09:19:56Z</time>
      </trkpt>
      <trkpt lat="43.67474" lon="6.77037">
        <ele>578.85</ele>
        <time>2012-03-07T09:20:13Z</time>
      </trkpt>
      <trkpt lat="43.6748" lon="6.77021">
        <ele>577.89</ele>
        <time>2012-03-07T09:20:30Z</time>
      </trkpt>
      <trkpt lat="43.67485" lon="6.77006">
        <ele>577.89</ele>
        <time>2012-03-07T09:20:45Z</time>
      </trkpt>
      <trkpt lat="43.67492" lon="6.76991">
        <ele>578.85</ele>
        <time>2012-03-07T09:21:02Z</time>
      </trkpt>
      <trkpt lat="43.67497" lon="6.76978">
        <ele>580.77</ele>
        <time>2012-03-07T09:21:15Z</time>
      </trkpt>
      <trkpt lat="43.67503" lon="6.76966">
        <ele>584.14</ele>
        <time>2012-03-07T09:21:32Z</time>
      </trkpt>
      <trkpt lat="43.67511" lon="6.76949">
        <ele>586.06</ele>
        <time>2012-03-07T09:21:55Z</time>
      </trkpt>
      <trkpt lat="43.6752" lon="6.7693">
        <ele>589.43</ele>
        <time>2012-03-07T09:22:12Z</time>
      </trkpt>
      <trkpt lat="43.67522" lon="6.7693">
        <ele>589.91</ele>
        <time>2012-03-07T09:22:14Z</time>
      </trkpt>
      <trkpt lat="43.67537" lon="6.7692">
        <ele>592.79</ele>
        <time>2012-03-07T09:22:32Z</time>
      </trkpt>
      <trkpt lat="43.67545" lon="6.76915">
        <ele>593.75</ele>
        <time>2012-03-07T09:22:50Z</time>
      </trkpt>
      <trkpt lat="43.67548" lon="6.76918">
        <ele>594.71</ele>
        <time>2012-03-07T09:22:58Z</time>
      </trkpt>
      <trkpt lat="43.67543" lon="6.76946">
        <ele>593.27</ele>
        <time>2012-03-07T09:23:19Z</time>
      </trkpt>
      <trkpt lat="43.67541" lon="6.76952">
        <ele>594.23</ele>
        <time>2012-03-07T09:23:23Z</time>
      </trkpt>
      <trkpt lat="43.67537" lon="6.76959">
        <ele>595.19</ele>
        <time>2012-03-07T09:23:34Z</time>
      </trkpt>
      <trkpt lat="43.6753" lon="6.76978">
        <ele>597.12</ele>
        <time>2012-03-07T09:23:48Z</time>
      </trkpt>
      <trkpt lat="43.67526" lon="6.76992">
        <ele>597.12</ele>
        <time>2012-03-07T09:23:59Z</time>
      </trkpt>
      <trkpt lat="43.67523" lon="6.7701">
        <ele>594.71</ele>
        <time>2012-03-07T09:24:13Z</time>
      </trkpt>
      <trkpt lat="43.67521" lon="6.77015">
        <ele>594.23</ele>
        <time>2012-03-07T09:24:18Z</time>
      </trkpt>
      <trkpt lat="43.67524" lon="6.77029">
        <ele>595.67</ele>
        <time>2012-03-07T09:24:33Z</time>
      </trkpt>
      <trkpt lat="43.67525" lon="6.77034">
        <ele>596.64</ele>
        <time>2012-03-07T09:24:49Z</time>
      </trkpt>
      <trkpt lat="43.67538" lon="6.77037">
        <ele>598.08</ele>
        <time>2012-03-07T09:25:10Z</time>
      </trkpt>
      <trkpt lat="43.67542" lon="6.77043">
        <ele>597.12</ele>
        <time>2012-03-07T09:25:29Z</time>
      </trkpt>
      <trkpt lat="43.6755" lon="6.77045">
        <ele>599.04</ele>
        <time>2012-03-07T09:25:46Z</time>
      </trkpt>
      <trkpt lat="43.67556" lon="6.77031">
        <ele>600.48</ele>
        <time>2012-03-07T09:26:05Z</time>
      </trkpt>
      <trkpt lat="43.67562" lon="6.7702">
        <ele>600.96</ele>
        <time>2012-03-07T09:26:22Z</time>
      </trkpt>
      <trkpt lat="43.67568" lon="6.77012">
        <ele>602.4</ele>
        <time>2012-03-07T09:26:41Z</time>
      </trkpt>
      <trkpt lat="43.67575" lon="6.77">
        <ele>602.88</ele>
        <time>2012-03-07T09:27:04Z</time>
      </trkpt>
      <trkpt lat="43.67586" lon="6.76979">
        <ele>605.77</ele>
        <time>2012-03-07T09:27:23Z</time>
      </trkpt>
      <trkpt lat="43.67593" lon="6.76958">
        <ele>608.65</ele>
        <time>2012-03-07T09:27:45Z</time>
      </trkpt>
      <trkpt lat="43.67602" lon="6.76941">
        <ele>608.65</ele>
        <time>2012-03-07T09:28:04Z</time>
      </trkpt>
      <trkpt lat="43.67609" lon="6.76921">
        <ele>608.65</ele>
        <time>2012-03-07T09:28:26Z</time>
      </trkpt>
      <trkpt lat="43.67612" lon="6.76911">
        <ele>608.65</ele>
        <time>2012-03-07T09:28:47Z</time>
      </trkpt>
      <trkpt lat="43.67621" lon="6.76903">
        <ele>609.13</ele>
        <time>2012-03-07T09:29:10Z</time>
      </trkpt>
      <trkpt lat="43.67637" lon="6.76893">
        <ele>611.06</ele>
        <time>2012-03-07T09:29:31Z</time>
      </trkpt>
      <trkpt lat="43.67645" lon="6.76889">
        <ele>611.54</ele>
        <time>2012-03-07T09:29:50Z</time>
      </trkpt>
      <trkpt lat="43.67657" lon="6.76884">
        <ele>612.02</ele>
        <time>2012-03-07T09:30:06Z</time>
      </trkpt>
      <trkpt lat="43.67669" lon="6.76881">
        <ele>612.98</ele>
        <time>2012-03-07T09:30:26Z</time>
      </trkpt>
      <trkpt lat="43.67676" lon="6.7688">
        <ele>615.38</ele>
        <time>2012-03-07T09:30:45Z</time>
      </trkpt>
      <trkpt lat="43.67678" lon="6.76876">
        <ele>615.38</ele>
        <time>2012-03-07T09:31:10Z</time>
      </trkpt>
      <trkpt lat="43.67679" lon="6.76879">
        <ele>617.78</ele>
        <time>2012-03-07T09:31:29Z</time>
      </trkpt>
      <trkpt lat="43.6768" lon="6.76885">
        <ele>620.67</ele>
        <time>2012-03-07T09:31:51Z</time>
      </trkpt>
      <trkpt lat="43.67686" lon="6.76892">
        <ele>621.63</ele>
        <time>2012-03-07T09:32:07Z</time>
      </trkpt>
      <trkpt lat="43.67692" lon="6.76896">
        <ele>620.67</ele>
        <time>2012-03-07T09:32:32Z</time>
      </trkpt>
      <trkpt lat="43.6771" lon="6.76899">
        <ele>617.3</ele>
        <time>2012-03-07T09:32:56Z</time>
      </trkpt>
      <trkpt lat="43.67726" lon="6.76899">
        <ele>615.86</ele>
        <time>2012-03-07T09:33:17Z</time>
      </trkpt>
      <trkpt lat="43.67745" lon="6.76886">
        <ele>611.54</ele>
        <time>2012-03-07T09:33:44Z</time>
      </trkpt>
      <trkpt lat="43.67758" lon="6.76883">
        <ele>613.94</ele>
        <time>2012-03-07T09:34:04Z</time>
      </trkpt>
      <trkpt lat="43.67774" lon="6.76874">
        <ele>613.46</ele>
        <time>2012-03-07T09:34:28Z</time>
      </trkpt>
      <trkpt lat="43.6779" lon="6.76866">
        <ele>614.9</ele>
        <time>2012-03-07T09:34:49Z</time>
      </trkpt>
      <trkpt lat="43.67801" lon="6.7686">
        <ele>619.71</ele>
        <time>2012-03-07T09:35:08Z</time>
      </trkpt>
      <trkpt lat="43.67813" lon="6.76859">
        <ele>622.11</ele>
        <time>2012-03-07T09:35:24Z</time>
      </trkpt>
      <trkpt lat="43.67816" lon="6.76858">
        <ele>622.59</ele>
        <time>2012-03-07T09:35:27Z</time>
      </trkpt>
      <trkpt lat="43.67821" lon="6.7686">
        <ele>622.11</ele>
        <time>2012-03-07T09:35:46Z</time>
      </trkpt>
      <trkpt lat="43.67825" lon="6.7685">
        <ele>624.03</ele>
        <time>2012-03-07T09:36:45Z</time>
      </trkpt>
      <trkpt lat="43.67839" lon="6.76855">
        <ele>619.71</ele>
        <time>2012-03-07T09:37:03Z</time>
      </trkpt>
      <trkpt lat="43.67848" lon="6.76858">
        <ele>618.75</ele>
        <time>2012-03-07T09:37:19Z</time>
      </trkpt>
      <trkpt lat="43.67853" lon="6.76856">
        <ele>621.15</ele>
        <time>2012-03-07T09:37:35Z</time>
      </trkpt>
      <trkpt lat="43.67861" lon="6.76856">
        <ele>620.67</ele>
        <time>2012-03-07T09:37:50Z</time>
      </trkpt>
      <trkpt lat="43.67867" lon="6.76854">
        <ele>623.07</ele>
        <time>2012-03-07T09:38:11Z</time>
      </trkpt>
      <trkpt lat="43.67876" lon="6.76852">
        <ele>625.47</ele>
        <time>2012-03-07T09:38:28Z</time>
      </trkpt>
      <trkpt lat="43.67878" lon="6.76851">
        <ele>625.96</ele>
        <time>2012-03-07T09:38:31Z</time>
      </trkpt>
      <trkpt lat="43.67889" lon="6.76848">
        <ele>627.88</ele>
        <time>2012-03-07T09:38:48Z</time>
      </trkpt>
      <trkpt lat="43.6789" lon="6.76848">
        <ele>627.88</ele>
        <time>2012-03-07T09:38:49Z</time>
      </trkpt>
      <trkpt lat="43.67904" lon="6.76849">
        <ele>626.44</ele>
        <time>2012-03-07T09:39:09Z</time>
      </trkpt>
      <trkpt lat="43.67914" lon="6.76853">
        <ele>625.47</ele>
        <time>2012-03-07T09:39:27Z</time>
      </trkpt>
      <trkpt lat="43.6793" lon="6.76856">
        <ele>624.03</ele>
        <time>2012-03-07T09:39:48Z</time>
      </trkpt>
      <trkpt lat="43.67939" lon="6.76853">
        <ele>622.59</ele>
        <time>2012-03-07T09:40:08Z</time>
      </trkpt>
      <trkpt lat="43.67944" lon="6.76853">
        <ele>621.15</ele>
        <time>2012-03-07T09:40:32Z</time>
      </trkpt>
      <trkpt lat="43.67954" lon="6.76839">
        <ele>619.71</ele>
        <time>2012-03-07T09:40:55Z</time>
      </trkpt>
      <trkpt lat="43.67965" lon="6.7683">
        <ele>620.19</ele>
        <time>2012-03-07T09:41:14Z</time>
      </trkpt>
      <trkpt lat="43.67974" lon="6.76828">
        <ele>619.71</ele>
        <time>2012-03-07T09:41:36Z</time>
      </trkpt>
      <trkpt lat="43.67974" lon="6.76829">
        <ele>619.71</ele>
        <time>2012-03-07T09:42:03Z</time>
      </trkpt>
      <trkpt lat="43.67971" lon="6.76825">
        <ele>619.23</ele>
        <time>2012-03-07T09:42:29Z</time>
      </trkpt>
      <trkpt lat="43.67971" lon="6.76823">
        <ele>617.3</ele>
        <time>2012-03-07T09:43:04Z</time>
      </trkpt>
      <trkpt lat="43.67972" lon="6.76823">
        <ele>617.78</ele>
        <time>2012-03-07T09:43:48Z</time>
      </trkpt>
      <trkpt lat="43.67972" lon="6.76823">
        <ele>618.26</ele>
        <time>2012-03-07T09:44:30Z</time>
      </trkpt>
      <trkpt lat="43.67969" lon="6.76822">
        <ele>616.82</ele>
        <time>2012-03-07T09:44:49Z</time>
      </trkpt>
      <trkpt lat="43.67974" lon="6.76817">
        <ele>610.09</ele>
        <time>2012-03-07T09:45:04Z</time>
      </trkpt>
      <trkpt lat="43.67976" lon="6.76816">
        <ele>609.13</ele>
        <time>2012-03-07T09:45:15Z</time>
      </trkpt>
      <trkpt lat="43.67977" lon="6.7681">
        <ele>607.69</ele>
        <time>2012-03-07T09:45:22Z</time>
      </trkpt>
      <trkpt lat="43.67975" lon="6.76805">
        <ele>606.25</ele>
        <time>2012-03-07T09:45:25Z</time>
      </trkpt>
      <trkpt lat="43.67972" lon="6.76799">
        <ele>603.85</ele>
        <time>2012-03-07T09:45:38Z</time>
      </trkpt>
      <trkpt lat="43.67971" lon="6.768">
        <ele>604.33</ele>
        <time>2012-03-07T09:45:57Z</time>
      </trkpt>
      <trkpt lat="43.67971" lon="6.768">
        <ele>604.33</ele>
        <time>2012-03-07T09:46:34Z</time>
      </trkpt>
      <trkpt lat="43.67974" lon="6.76799">
        <ele>604.33</ele>
        <time>2012-03-07T09:46:49Z</time>
      </trkpt>
      <trkpt lat="43.6798" lon="6.76796">
        <ele>602.4</ele>
        <time>2012-03-07T09:47:07Z</time>
      </trkpt>
      <trkpt lat="43.67988" lon="6.76799">
        <ele>600.48</ele>
        <time>2012-03-07T09:47:28Z</time>
      </trkpt>
      <trkpt lat="43.67989" lon="6.76797">
        <ele>600</ele>
        <time>2012-03-07T09:47:32Z</time>
      </trkpt>
      <trkpt lat="43.68" lon="6.76791">
        <ele>597.12</ele>
        <time>2012-03-07T09:47:51Z</time>
      </trkpt>
      <trkpt lat="43.68003" lon="6.76789">
        <ele>597.12</ele>
        <time>2012-03-07T09:48:11Z</time>
      </trkpt>
      <trkpt lat="43.68006" lon="6.7679">
        <ele>596.15</ele>
        <time>2012-03-07T09:48:17Z</time>
      </trkpt>
      <trkpt lat="43.68019" lon="6.76785">
        <ele>595.67</ele>
        <time>2012-03-07T09:48:37Z</time>
      </trkpt>
      <trkpt lat="43.6803" lon="6.76783">
        <ele>594.71</ele>
        <time>2012-03-07T09:48:55Z</time>
      </trkpt>
      <trkpt lat="43.68043" lon="6.76788">
        <ele>595.19</ele>
        <time>2012-03-07T09:49:13Z</time>
      </trkpt>
      <trkpt lat="43.68057" lon="6.76796">
        <ele>598.08</ele>
        <time>2012-03-07T09:49:33Z</time>
      </trkpt>
      <trkpt lat="43.68064" lon="6.76801">
        <ele>597.6</ele>
        <time>2012-03-07T09:49:49Z</time>
      </trkpt>
      <trkpt lat="43.68071" lon="6.76809">
        <ele>597.12</ele>
        <time>2012-03-07T09:50:02Z</time>
      </trkpt>
      <trkpt lat="43.68084" lon="6.76822">
        <ele>597.6</ele>
        <time>2012-03-07T09:50:20Z</time>
      </trkpt>
      <trkpt lat="43.68093" lon="6.76846">
        <ele>597.6</ele>
        <time>2012-03-07T09:50:41Z</time>
      </trkpt>
      <trkpt lat="43.68107" lon="6.76859">
        <ele>597.6</ele>
        <time>2012-03-07T09:50:59Z</time>
      </trkpt>
      <trkpt lat="43.68114" lon="6.76879">
        <ele>601.92</ele>
        <time>2012-03-07T09:51:19Z</time>
      </trkpt>
      <trkpt lat="43.68121" lon="6.76885">
        <ele>603.36</ele>
        <time>2012-03-07T09:51:31Z</time>
      </trkpt>
      <trkpt lat="43.6814" lon="6.7689">
        <ele>605.77</ele>
        <time>2012-03-07T09:51:50Z</time>
      </trkpt>
      <trkpt lat="43.68153" lon="6.76889">
        <ele>604.81</ele>
        <time>2012-03-07T09:52:13Z</time>
      </trkpt>
      <trkpt lat="43.68171" lon="6.76894">
        <ele>601.44</ele>
        <time>2012-03-07T09:52:33Z</time>
      </trkpt>
      <trkpt lat="43.6818" lon="6.76893">
        <ele>598.08</ele>
        <time>2012-03-07T09:52:57Z</time>
      </trkpt>
      <trkpt lat="43.68193" lon="6.76893">
        <ele>598.56</ele>
        <time>2012-03-07T09:53:20Z</time>
      </trkpt>
      <trkpt lat="43.68205" lon="6.76897">
        <ele>599.04</ele>
        <time>2012-03-07T09:53:46Z</time>
      </trkpt>
      <trkpt lat="43.68214" lon="6.76897">
        <ele>601.92</ele>
        <time>2012-03-07T09:54:06Z</time>
      </trkpt>
      <trkpt lat="43.68219" lon="6.76908">
        <ele>606.25</ele>
        <time>2012-03-07T09:54:22Z</time>
      </trkpt>
      <trkpt lat="43.68227" lon="6.76924">
        <ele>606.73</ele>
        <time>2012-03-07T09:54:38Z</time>
      </trkpt>
      <trkpt lat="43.68233" lon="6.76936">
        <ele>605.77</ele>
        <time>2012-03-07T09:54:55Z</time>
      </trkpt>
      <trkpt lat="43.68241" lon="6.76943">
        <ele>602.88</ele>
        <time>2012-03-07T09:55:11Z</time>
      </trkpt>
      <trkpt lat="43.68255" lon="6.76954">
        <ele>603.85</ele>
        <time>2012-03-07T09:55:31Z</time>
      </trkpt>
      <trkpt lat="43.68259" lon="6.76963">
        <ele>605.77</ele>
        <time>2012-03-07T09:55:51Z</time>
      </trkpt>
      <trkpt lat="43.68267" lon="6.7697">
        <ele>608.17</ele>
        <time>2012-03-07T09:56:15Z</time>
      </trkpt>
      <trkpt lat="43.68269" lon="6.76975">
        <ele>611.54</ele>
        <time>2012-03-07T09:56:35Z</time>
      </trkpt>
      <trkpt lat="43.68266" lon="6.76973">
        <ele>614.42</ele>
        <time>2012-03-07T09:56:49Z</time>
      </trkpt>
      <trkpt lat="43.68259" lon="6.76973">
        <ele>618.75</ele>
        <time>2012-03-07T09:57:07Z</time>
      </trkpt>
      <trkpt lat="43.6825" lon="6.7697">
        <ele>620.67</ele>
        <time>2012-03-07T09:57:25Z</time>
      </trkpt>
      <trkpt lat="43.68244" lon="6.7697">
        <ele>623.55</ele>
        <time>2012-03-07T09:57:42Z</time>
      </trkpt>
      <trkpt lat="43.6824" lon="6.76971">
        <ele>625.96</ele>
        <time>2012-03-07T09:58:00Z</time>
      </trkpt>
      <trkpt lat="43.68237" lon="6.76972">
        <ele>627.88</ele>
        <time>2012-03-07T09:58:20Z</time>
      </trkpt>
      <trkpt lat="43.68235" lon="6.76976">
        <ele>631.24</ele>
        <time>2012-03-07T09:58:37Z</time>
      </trkpt>
      <trkpt lat="43.68236" lon="6.76986">
        <ele>631.72</ele>
        <time>2012-03-07T09:58:57Z</time>
      </trkpt>
      <trkpt lat="43.68246" lon="6.77">
        <ele>632.2</ele>
        <time>2012-03-07T09:59:18Z</time>
      </trkpt>
      <trkpt lat="43.68255" lon="6.77004">
        <ele>634.61</ele>
        <time>2012-03-07T09:59:36Z</time>
      </trkpt>
      <trkpt lat="43.68264" lon="6.76998">
        <ele>635.57</ele>
        <time>2012-03-07T09:59:57Z</time>
      </trkpt>
      <trkpt lat="43.68277" lon="6.76995">
        <ele>634.13</ele>
        <time>2012-03-07T10:00:20Z</time>
      </trkpt>
      <trkpt lat="43.68294" lon="6.77003">
        <ele>629.8</ele>
        <time>2012-03-07T10:00:43Z</time>
      </trkpt>
      <trkpt lat="43.68298" lon="6.77018">
        <ele>627.4</ele>
        <time>2012-03-07T10:01:02Z</time>
      </trkpt>
      <trkpt lat="43.68303" lon="6.7703">
        <ele>626.92</ele>
        <time>2012-03-07T10:01:21Z</time>
      </trkpt>
      <trkpt lat="43.68309" lon="6.77039">
        <ele>626.44</ele>
        <time>2012-03-07T10:01:46Z</time>
      </trkpt>
      <trkpt lat="43.68318" lon="6.77066">
        <ele>624.03</ele>
        <time>2012-03-07T10:02:07Z</time>
      </trkpt>
      <trkpt lat="43.68325" lon="6.77074">
        <ele>622.11</ele>
        <time>2012-03-07T10:02:28Z</time>
      </trkpt>
      <trkpt lat="43.68327" lon="6.77083">
        <ele>621.15</ele>
        <time>2012-03-07T10:02:49Z</time>
      </trkpt>
      <trkpt lat="43.68339" lon="6.77098">
        <ele>618.26</ele>
        <time>2012-03-07T10:03:15Z</time>
      </trkpt>
      <trkpt lat="43.6835" lon="6.77101">
        <ele>615.86</ele>
        <time>2012-03-07T10:03:39Z</time>
      </trkpt>
      <trkpt lat="43.68359" lon="6.77096">
        <ele>614.42</ele>
        <time>2012-03-07T10:03:56Z</time>
      </trkpt>
      <trkpt lat="43.68358" lon="6.77097">
        <ele>612.5</ele>
        <time>2012-03-07T10:04:35Z</time>
      </trkpt>
      <trkpt lat="43.68371" lon="6.77096">
        <ele>610.09</ele>
        <time>2012-03-07T10:04:58Z</time>
      </trkpt>
      <trkpt lat="43.68378" lon="6.77096">
        <ele>610.57</ele>
        <time>2012-03-07T10:05:19Z</time>
      </trkpt>
      <trkpt lat="43.68383" lon="6.77093">
        <ele>611.54</ele>
        <time>2012-03-07T10:05:40Z</time>
      </trkpt>
      <trkpt lat="43.68383" lon="6.77095">
        <ele>613.94</ele>
        <time>2012-03-07T10:06:00Z</time>
      </trkpt>
      <trkpt lat="43.68388" lon="6.7709">
        <ele>615.38</ele>
        <time>2012-03-07T10:06:26Z</time>
      </trkpt>
      <trkpt lat="43.68395" lon="6.7709">
        <ele>618.26</ele>
        <time>2012-03-07T10:06:47Z</time>
      </trkpt>
      <trkpt lat="43.68403" lon="6.77089">
        <ele>618.26</ele>
        <time>2012-03-07T10:07:08Z</time>
      </trkpt>
      <trkpt lat="43.68416" lon="6.77096">
        <ele>617.3</ele>
        <time>2012-03-07T10:07:32Z</time>
      </trkpt>
      <trkpt lat="43.68421" lon="6.77097">
        <ele>614.9</ele>
        <time>2012-03-07T10:07:56Z</time>
      </trkpt>
      <trkpt lat="43.68425" lon="6.77096">
        <ele>612.02</ele>
        <time>2012-03-07T10:08:23Z</time>
      </trkpt>
      <trkpt lat="43.68433" lon="6.77097">
        <ele>610.57</ele>
        <time>2012-03-07T10:08:47Z</time>
      </trkpt>
      <trkpt lat="43.68436" lon="6.77097">
        <ele>610.09</ele>
        <time>2012-03-07T10:09:16Z</time>
      </trkpt>
      <trkpt lat="43.68449" lon="6.77103">
        <ele>609.13</ele>
        <time>2012-03-07T10:09:42Z</time>
      </trkpt>
      <trkpt lat="43.68478" lon="6.7712">
        <ele>606.73</ele>
        <time>2012-03-07T10:10:06Z</time>
      </trkpt>
      <trkpt lat="43.68484" lon="6.77126">
        <ele>605.77</ele>
        <time>2012-03-07T10:10:31Z</time>
      </trkpt>
      <trkpt lat="43.68503" lon="6.77135">
        <ele>606.25</ele>
        <time>2012-03-07T10:10:53Z</time>
      </trkpt>
      <trkpt lat="43.6851" lon="6.7714">
        <ele>609.61</ele>
        <time>2012-03-07T10:11:18Z</time>
      </trkpt>
      <trkpt lat="43.6851" lon="6.7714">
        <ele>609.13</ele>
        <time>2012-03-07T10:11:43Z</time>
      </trkpt>
      <trkpt lat="43.68516" lon="6.77138">
        <ele>608.65</ele>
        <time>2012-03-07T10:12:10Z</time>
      </trkpt>
      <trkpt lat="43.68524" lon="6.77142">
        <ele>607.21</ele>
        <time>2012-03-07T10:12:29Z</time>
      </trkpt>
      <trkpt lat="43.68543" lon="6.77152">
        <ele>605.29</ele>
        <time>2012-03-07T10:12:54Z</time>
      </trkpt>
      <trkpt lat="43.68554" lon="6.77156">
        <ele>603.85</ele>
        <time>2012-03-07T10:13:13Z</time>
      </trkpt>
      <trkpt lat="43.68572" lon="6.77158">
        <ele>605.77</ele>
        <time>2012-03-07T10:13:37Z</time>
      </trkpt>
      <trkpt lat="43.68589" lon="6.77149">
        <ele>607.69</ele>
        <time>2012-03-07T10:14:01Z</time>
      </trkpt>
      <trkpt lat="43.68604" lon="6.77155">
        <ele>603.36</ele>
        <time>2012-03-07T10:14:25Z</time>
      </trkpt>
      <trkpt lat="43.68621" lon="6.77166">
        <ele>597.6</ele>
        <time>2012-03-07T10:14:47Z</time>
      </trkpt>
      <trkpt lat="43.68636" lon="6.77165">
        <ele>597.12</ele>
        <time>2012-03-07T10:15:11Z</time>
      </trkpt>
      <trkpt lat="43.68647" lon="6.77165">
        <ele>597.6</ele>
        <time>2012-03-07T10:15:34Z</time>
      </trkpt>
      <trkpt lat="43.68656" lon="6.77157">
        <ele>599.04</ele>
        <time>2012-03-07T10:15:59Z</time>
      </trkpt>
      <trkpt lat="43.68671" lon="6.77136">
        <ele>606.73</ele>
        <time>2012-03-07T10:16:19Z</time>
      </trkpt>
      <trkpt lat="43.68679" lon="6.77131">
        <ele>609.61</ele>
        <time>2012-03-07T10:16:36Z</time>
      </trkpt>
      <trkpt lat="43.68687" lon="6.77127">
        <ele>609.61</ele>
        <time>2012-03-07T10:16:59Z</time>
      </trkpt>
      <trkpt lat="43.68693" lon="6.7712">
        <ele>608.65</ele>
        <time>2012-03-07T10:17:22Z</time>
      </trkpt>
      <trkpt lat="43.68702" lon="6.77111">
        <ele>608.65</ele>
        <time>2012-03-07T10:17:50Z</time>
      </trkpt>
      <trkpt lat="43.68708" lon="6.77114">
        <ele>609.61</ele>
        <time>2012-03-07T10:18:12Z</time>
      </trkpt>
      <trkpt lat="43.68707" lon="6.77124">
        <ele>611.54</ele>
        <time>2012-03-07T10:18:32Z</time>
      </trkpt>
      <trkpt lat="43.68701" lon="6.77133">
        <ele>613.94</ele>
        <time>2012-03-07T10:18:52Z</time>
      </trkpt>
      <trkpt lat="43.68698" lon="6.77139">
        <ele>614.42</ele>
        <time>2012-03-07T10:19:05Z</time>
      </trkpt>
      <trkpt lat="43.68685" lon="6.77147">
        <ele>614.9</ele>
        <time>2012-03-07T10:19:24Z</time>
      </trkpt>
      <trkpt lat="43.68677" lon="6.77156">
        <ele>617.78</ele>
        <time>2012-03-07T10:19:44Z</time>
      </trkpt>
      <trkpt lat="43.68672" lon="6.77167">
        <ele>618.75</ele>
        <time>2012-03-07T10:20:02Z</time>
      </trkpt>
      <trkpt lat="43.68671" lon="6.77173">
        <ele>622.11</ele>
        <time>2012-03-07T10:20:23Z</time>
      </trkpt>
      <trkpt lat="43.6868" lon="6.77171">
        <ele>620.67</ele>
        <time>2012-03-07T10:20:46Z</time>
      </trkpt>
      <trkpt lat="43.68692" lon="6.77172">
        <ele>620.67</ele>
        <time>2012-03-07T10:21:07Z</time>
      </trkpt>
      <trkpt lat="43.68696" lon="6.77169">
        <ele>620.67</ele>
        <time>2012-03-07T10:21:29Z</time>
      </trkpt>
      <trkpt lat="43.68701" lon="6.77164">
        <ele>621.63</ele>
        <time>2012-03-07T10:21:52Z</time>
      </trkpt>
      <trkpt lat="43.68712" lon="6.77153">
        <ele>619.71</ele>
        <time>2012-03-07T10:22:10Z</time>
      </trkpt>
      <trkpt lat="43.68715" lon="6.77146">
        <ele>619.23</ele>
        <time>2012-03-07T10:28:52Z</time>
      </trkpt>
      <trkpt lat="43.68718" lon="6.77153">
        <ele>616.34</ele>
        <time>2012-03-07T10:29:13Z</time>
      </trkpt>
      <trkpt lat="43.68718" lon="6.77157">
        <ele>614.42</ele>
        <time>2012-03-07T10:29:32Z</time>
      </trkpt>
      <trkpt lat="43.68719" lon="6.77148">
        <ele>624.03</ele>
        <time>2012-03-07T10:29:51Z</time>
      </trkpt>
      <trkpt lat="43.68724" lon="6.77153">
        <ele>625.47</ele>
        <time>2012-03-07T10:30:11Z</time>
      </trkpt>
      <trkpt lat="43.68727" lon="6.77152">
        <ele>626.44</ele>
        <time>2012-03-07T10:30:23Z</time>
      </trkpt>
      <trkpt lat="43.68723" lon="6.77144">
        <ele>630.28</ele>
        <time>2012-03-07T10:30:40Z</time>
      </trkpt>
      <trkpt lat="43.68722" lon="6.77143">
        <ele>630.28</ele>
        <time>2012-03-07T10:31:08Z</time>
      </trkpt>
      <trkpt lat="43.68721" lon="6.77143">
        <ele>630.28</ele>
        <time>2012-03-07T10:31:31Z</time>
      </trkpt>
      <trkpt lat="43.68721" lon="6.77145">
        <ele>631.72</ele>
        <time>2012-03-07T10:32:00Z</time>
      </trkpt>
      <trkpt lat="43.6872" lon="6.77145">
        <ele>631.72</ele>
        <time>2012-03-07T10:32:44Z</time>
      </trkpt>
      <trkpt lat="43.6872" lon="6.77145">
        <ele>631.72</ele>
        <time>2012-03-07T10:33:16Z</time>
      </trkpt>
      <trkpt lat="43.68719" lon="6.77144">
        <ele>631.24</ele>
        <time>2012-03-07T10:33:54Z</time>
      </trkpt>
      <trkpt lat="43.68719" lon="6.77144">
        <ele>631.24</ele>
        <time>2012-03-07T10:34:26Z</time>
      </trkpt>
      <trkpt lat="43.68721" lon="6.77144">
        <ele>631.24</ele>
        <time>2012-03-07T10:35:02Z</time>
      </trkpt>
      <trkpt lat="43.68721" lon="6.77142">
        <ele>631.24</ele>
        <time>2012-03-07T10:35:30Z</time>
      </trkpt>
      <trkpt lat="43.68719" lon="6.77146">
        <ele>631.24</ele>
        <time>2012-03-07T10:35:46Z</time>
      </trkpt>
      <trkpt lat="43.68723" lon="6.77149">
        <ele>631.24</ele>
        <time>2012-03-07T10:36:11Z</time>
      </trkpt>
      <trkpt lat="43.68727" lon="6.7715">
        <ele>631.24</ele>
        <time>2012-03-07T10:36:20Z</time>
      </trkpt>
      <trkpt lat="43.68732" lon="6.77154">
        <ele>631.24</ele>
        <time>2012-03-07T10:36:43Z</time>
      </trkpt>
      <trkpt lat="43.68733" lon="6.77159">
        <ele>631.24</ele>
        <time>2012-03-07T10:36:57Z</time>
      </trkpt>
      <trkpt lat="43.68727" lon="6.77177">
        <ele>635.57</ele>
        <time>2012-03-07T10:37:18Z</time>
      </trkpt>
      <trkpt lat="43.68733" lon="6.77187">
        <ele>635.57</ele>
        <time>2012-03-07T10:37:24Z</time>
      </trkpt>
      <trkpt lat="43.68744" lon="6.77195">
        <ele>628.36</ele>
        <time>2012-03-07T10:37:40Z</time>
      </trkpt>
      <trkpt lat="43.68747" lon="6.77203">
        <ele>624.99</ele>
        <time>2012-03-07T10:37:54Z</time>
      </trkpt>
      <trkpt lat="43.68753" lon="6.77207">
        <ele>622.11</ele>
        <time>2012-03-07T10:38:14Z</time>
      </trkpt>
      <trkpt lat="43.68756" lon="6.77211">
        <ele>620.67</ele>
        <time>2012-03-07T10:38:37Z</time>
      </trkpt>
      <trkpt lat="43.68756" lon="6.77209">
        <ele>620.67</ele>
        <time>2012-03-07T10:39:07Z</time>
      </trkpt>
      <trkpt lat="43.68752" lon="6.77203">
        <ele>619.23</ele>
        <time>2012-03-07T10:39:22Z</time>
      </trkpt>
      <trkpt lat="43.68754" lon="6.7721">
        <ele>616.82</ele>
        <time>2012-03-07T10:39:45Z</time>
      </trkpt>
      <trkpt lat="43.68762" lon="6.77224">
        <ele>612.98</ele>
        <time>2012-03-07T10:40:12Z</time>
      </trkpt>
      <trkpt lat="43.68769" lon="6.77224">
        <ele>612.98</ele>
        <time>2012-03-07T10:40:35Z</time>
      </trkpt>
      <trkpt lat="43.68776" lon="6.77238">
        <ele>612.02</ele>
        <time>2012-03-07T10:41:00Z</time>
      </trkpt>
      <trkpt lat="43.68775" lon="6.77241">
        <ele>611.06</ele>
        <time>2012-03-07T10:41:31Z</time>
      </trkpt>
      <trkpt lat="43.68777" lon="6.77267">
        <ele>606.25</ele>
        <time>2012-03-07T10:41:54Z</time>
      </trkpt>
      <trkpt lat="43.68789" lon="6.77267">
        <ele>610.57</ele>
        <time>2012-03-07T10:42:19Z</time>
      </trkpt>
      <trkpt lat="43.68794" lon="6.77271">
        <ele>612.02</ele>
        <time>2012-03-07T10:42:40Z</time>
      </trkpt>
      <trkpt lat="43.68797" lon="6.7728">
        <ele>612.5</ele>
        <time>2012-03-07T10:42:58Z</time>
      </trkpt>
      <trkpt lat="43.68806" lon="6.77285">
        <ele>614.9</ele>
        <time>2012-03-07T10:43:21Z</time>
      </trkpt>
      <trkpt lat="43.68814" lon="6.77285">
        <ele>614.9</ele>
        <time>2012-03-07T10:43:44Z</time>
      </trkpt>
      <trkpt lat="43.68825" lon="6.7729">
        <ele>612.98</ele>
        <time>2012-03-07T10:44:02Z</time>
      </trkpt>
      <trkpt lat="43.68826" lon="6.7729">
        <ele>610.09</ele>
        <time>2012-03-07T10:44:30Z</time>
      </trkpt>
      <trkpt lat="43.68828" lon="6.77293">
        <ele>607.21</ele>
        <time>2012-03-07T10:45:05Z</time>
      </trkpt>
      <trkpt lat="43.68829" lon="6.77301">
        <ele>603.85</ele>
        <time>2012-03-07T10:45:12Z</time>
      </trkpt>
      <trkpt lat="43.68836" lon="6.77319">
        <ele>599.04</ele>
        <time>2012-03-07T10:45:36Z</time>
      </trkpt>
      <trkpt lat="43.68844" lon="6.7733">
        <ele>595.67</ele>
        <time>2012-03-07T10:46:00Z</time>
      </trkpt>
      <trkpt lat="43.68851" lon="6.7733">
        <ele>594.71</ele>
        <time>2012-03-07T10:46:24Z</time>
      </trkpt>
      <trkpt lat="43.68857" lon="6.77331">
        <ele>594.23</ele>
        <time>2012-03-07T10:46:41Z</time>
      </trkpt>
      <trkpt lat="43.68865" lon="6.77329">
        <ele>593.75</ele>
        <time>2012-03-07T10:47:03Z</time>
      </trkpt>
      <trkpt lat="43.68879" lon="6.77327">
        <ele>593.75</ele>
        <time>2012-03-07T10:47:27Z</time>
      </trkpt>
      <trkpt lat="43.6889" lon="6.77324">
        <ele>593.27</ele>
        <time>2012-03-07T10:47:52Z</time>
      </trkpt>
      <trkpt lat="43.68901" lon="6.77332">
        <ele>590.87</ele>
        <time>2012-03-07T10:48:14Z</time>
      </trkpt>
      <trkpt lat="43.68902" lon="6.77332">
        <ele>591.83</ele>
        <time>2012-03-07T10:48:35Z</time>
      </trkpt>
      <trkpt lat="43.68908" lon="6.77341">
        <ele>592.31</ele>
        <time>2012-03-07T10:49:00Z</time>
      </trkpt>
      <trkpt lat="43.68912" lon="6.77349">
        <ele>593.27</ele>
        <time>2012-03-07T10:49:25Z</time>
      </trkpt>
      <trkpt lat="43.68914" lon="6.77355">
        <ele>593.27</ele>
        <time>2012-03-07T10:49:48Z</time>
      </trkpt>
      <trkpt lat="43.68909" lon="6.77358">
        <ele>595.67</ele>
        <time>2012-03-07T10:50:11Z</time>
      </trkpt>
      <trkpt lat="43.68905" lon="6.7736">
        <ele>598.08</ele>
        <time>2012-03-07T10:50:36Z</time>
      </trkpt>
      <trkpt lat="43.6891" lon="6.77368">
        <ele>599.04</ele>
        <time>2012-03-07T10:50:57Z</time>
      </trkpt>
      <trkpt lat="43.68917" lon="6.77373">
        <ele>600</ele>
        <time>2012-03-07T10:51:22Z</time>
      </trkpt>
      <trkpt lat="43.68933" lon="6.77362">
        <ele>604.81</ele>
        <time>2012-03-07T10:51:46Z</time>
      </trkpt>
      <trkpt lat="43.68938" lon="6.77359">
        <ele>606.73</ele>
        <time>2012-03-07T10:52:05Z</time>
      </trkpt>
      <trkpt lat="43.68944" lon="6.77358">
        <ele>609.13</ele>
        <time>2012-03-07T10:52:27Z</time>
      </trkpt>
      <trkpt lat="43.68949" lon="6.77348">
        <ele>613.94</ele>
        <time>2012-03-07T10:52:48Z</time>
      </trkpt>
      <trkpt lat="43.6896" lon="6.77341">
        <ele>617.3</ele>
        <time>2012-03-07T10:53:06Z</time>
      </trkpt>
      <trkpt lat="43.68971" lon="6.77336">
        <ele>618.75</ele>
        <time>2012-03-07T10:53:25Z</time>
      </trkpt>
      <trkpt lat="43.68978" lon="6.77331">
        <ele>619.23</ele>
        <time>2012-03-07T10:53:37Z</time>
      </trkpt>
      <trkpt lat="43.68989" lon="6.77325">
        <ele>620.19</ele>
        <time>2012-03-07T10:53:56Z</time>
      </trkpt>
      <trkpt lat="43.68997" lon="6.77341">
        <ele>617.3</ele>
        <time>2012-03-07T10:54:18Z</time>
      </trkpt>
      <trkpt lat="43.69005" lon="6.7735">
        <ele>612.98</ele>
        <time>2012-03-07T10:54:35Z</time>
      </trkpt>
      <trkpt lat="43.69012" lon="6.7736">
        <ele>608.65</ele>
        <time>2012-03-07T10:54:54Z</time>
      </trkpt>
      <trkpt lat="43.69018" lon="6.77349">
        <ele>609.13</ele>
        <time>2012-03-07T10:55:13Z</time>
      </trkpt>
      <trkpt lat="43.69018" lon="6.77341">
        <ele>607.21</ele>
        <time>2012-03-07T10:55:35Z</time>
      </trkpt>
      <trkpt lat="43.69019" lon="6.77331">
        <ele>603.85</ele>
        <time>2012-03-07T10:55:52Z</time>
      </trkpt>
      <trkpt lat="43.69025" lon="6.77339">
        <ele>602.4</ele>
        <time>2012-03-07T10:56:11Z</time>
      </trkpt>
      <trkpt lat="43.6903" lon="6.77351">
        <ele>602.4</ele>
        <time>2012-03-07T10:56:35Z</time>
      </trkpt>
      <trkpt lat="43.69032" lon="6.77363">
        <ele>600</ele>
        <time>2012-03-07T10:56:53Z</time>
      </trkpt>
      <trkpt lat="43.69038" lon="6.77375">
        <ele>599.04</ele>
        <time>2012-03-07T10:57:11Z</time>
      </trkpt>
      <trkpt lat="43.69043" lon="6.77393">
        <ele>598.08</ele>
        <time>2012-03-07T10:57:30Z</time>
      </trkpt>
      <trkpt lat="43.69043" lon="6.77395">
        <ele>598.08</ele>
        <time>2012-03-07T10:57:50Z</time>
      </trkpt>
      <trkpt lat="43.69045" lon="6.77395">
        <ele>598.08</ele>
        <time>2012-03-07T10:58:02Z</time>
      </trkpt>
      <trkpt lat="43.69047" lon="6.77399">
        <ele>598.08</ele>
        <time>2012-03-07T10:58:26Z</time>
      </trkpt>
      <trkpt lat="43.6905" lon="6.77404">
        <ele>598.08</ele>
        <time>2012-03-07T10:58:50Z</time>
      </trkpt>
      <trkpt lat="43.69056" lon="6.77417">
        <ele>600</ele>
        <time>2012-03-07T10:59:16Z</time>
      </trkpt>
      <trkpt lat="43.69064" lon="6.77432">
        <ele>601.44</ele>
        <time>2012-03-07T10:59:33Z</time>
      </trkpt>
      <trkpt lat="43.6907" lon="6.77446">
        <ele>601.44</ele>
        <time>2012-03-07T10:59:51Z</time>
      </trkpt>
      <trkpt lat="43.69074" lon="6.77452">
        <ele>600.48</ele>
        <time>2012-03-07T11:00:26Z</time>
      </trkpt>
      <trkpt lat="43.6908" lon="6.77473">
        <ele>597.6</ele>
        <time>2012-03-07T11:00:46Z</time>
      </trkpt>
      <trkpt lat="43.69082" lon="6.7749">
        <ele>596.15</ele>
        <time>2012-03-07T11:01:03Z</time>
      </trkpt>
      <trkpt lat="43.69089" lon="6.77507">
        <ele>595.67</ele>
        <time>2012-03-07T11:01:19Z</time>
      </trkpt>
      <trkpt lat="43.69094" lon="6.77526">
        <ele>593.27</ele>
        <time>2012-03-07T11:01:39Z</time>
      </trkpt>
      <trkpt lat="43.69102" lon="6.77544">
        <ele>591.35</ele>
        <time>2012-03-07T11:02:00Z</time>
      </trkpt>
      <trkpt lat="43.69103" lon="6.7756">
        <ele>590.39</ele>
        <time>2012-03-07T11:02:20Z</time>
      </trkpt>
      <trkpt lat="43.69112" lon="6.7758">
        <ele>589.43</ele>
        <time>2012-03-07T11:02:41Z</time>
      </trkpt>
      <trkpt lat="43.69118" lon="6.77599">
        <ele>589.91</ele>
        <time>2012-03-07T11:02:59Z</time>
      </trkpt>
      <trkpt lat="43.69123" lon="6.77616">
        <ele>588.46</ele>
        <time>2012-03-07T11:03:21Z</time>
      </trkpt>
      <trkpt lat="43.69125" lon="6.77631">
        <ele>589.43</ele>
        <time>2012-03-07T11:03:41Z</time>
      </trkpt>
      <trkpt lat="43.69132" lon="6.77647">
        <ele>589.91</ele>
        <time>2012-03-07T11:03:58Z</time>
      </trkpt>
      <trkpt lat="43.69133" lon="6.7765">
        <ele>590.39</ele>
        <time>2012-03-07T11:04:00Z</time>
      </trkpt>
      <trkpt lat="43.69138" lon="6.77665">
        <ele>593.27</ele>
        <time>2012-03-07T11:04:20Z</time>
      </trkpt>
      <trkpt lat="43.69149" lon="6.77674">
        <ele>593.75</ele>
        <time>2012-03-07T11:04:43Z</time>
      </trkpt>
      <trkpt lat="43.69157" lon="6.77686">
        <ele>594.23</ele>
        <time>2012-03-07T11:05:01Z</time>
      </trkpt>
      <trkpt lat="43.69165" lon="6.77701">
        <ele>593.27</ele>
        <time>2012-03-07T11:05:21Z</time>
      </trkpt>
      <trkpt lat="43.69165" lon="6.77718">
        <ele>592.31</ele>
        <time>2012-03-07T11:05:43Z</time>
      </trkpt>
      <trkpt lat="43.69158" lon="6.77734">
        <ele>594.23</ele>
        <time>2012-03-07T11:06:03Z</time>
      </trkpt>
      <trkpt lat="43.69157" lon="6.77752">
        <ele>595.67</ele>
        <time>2012-03-07T11:06:21Z</time>
      </trkpt>
      <trkpt lat="43.69154" lon="6.77773">
        <ele>597.12</ele>
        <time>2012-03-07T11:06:41Z</time>
      </trkpt>
      <trkpt lat="43.69152" lon="6.77791">
        <ele>599.04</ele>
        <time>2012-03-07T11:06:59Z</time>
      </trkpt>
      <trkpt lat="43.69151" lon="6.77805">
        <ele>600.96</ele>
        <time>2012-03-07T11:07:14Z</time>
      </trkpt>
      <trkpt lat="43.69151" lon="6.77825">
        <ele>600.48</ele>
        <time>2012-03-07T11:07:31Z</time>
      </trkpt>
      <trkpt lat="43.6915" lon="6.77844">
        <ele>599.52</ele>
        <time>2012-03-07T11:07:50Z</time>
      </trkpt>
      <trkpt lat="43.69149" lon="6.77864">
        <ele>599.04</ele>
        <time>2012-03-07T11:08:09Z</time>
      </trkpt>
      <trkpt lat="43.69154" lon="6.7788">
        <ele>600</ele>
        <time>2012-03-07T11:08:26Z</time>
      </trkpt>
      <trkpt lat="43.69152" lon="6.77902">
        <ele>599.04</ele>
        <time>2012-03-07T11:08:45Z</time>
      </trkpt>
      <trkpt lat="43.69151" lon="6.77923">
        <ele>599.52</ele>
        <time>2012-03-07T11:09:04Z</time>
      </trkpt>
      <trkpt lat="43.69152" lon="6.77941">
        <ele>599.04</ele>
        <time>2012-03-07T11:09:21Z</time>
      </trkpt>
      <trkpt lat="43.69152" lon="6.77958">
        <ele>595.19</ele>
        <time>2012-03-07T11:09:41Z</time>
      </trkpt>
      <trkpt lat="43.6916" lon="6.77979">
        <ele>595.19</ele>
        <time>2012-03-07T11:10:01Z</time>
      </trkpt>
      <trkpt lat="43.69161" lon="6.77994">
        <ele>596.64</ele>
        <time>2012-03-07T11:10:18Z</time>
      </trkpt>
      <trkpt lat="43.69164" lon="6.78013">
        <ele>597.12</ele>
        <time>2012-03-07T11:10:36Z</time>
      </trkpt>
      <trkpt lat="43.69169" lon="6.78028">
        <ele>597.12</ele>
        <time>2012-03-07T11:10:53Z</time>
      </trkpt>
      <trkpt lat="43.69177" lon="6.78048">
        <ele>600</ele>
        <time>2012-03-07T11:11:14Z</time>
      </trkpt>
      <trkpt lat="43.69177" lon="6.7805">
        <ele>599.52</ele>
        <time>2012-03-07T11:11:16Z</time>
      </trkpt>
      <trkpt lat="43.6918" lon="6.78069">
        <ele>600</ele>
        <time>2012-03-07T11:11:35Z</time>
      </trkpt>
      <trkpt lat="43.69182" lon="6.78088">
        <ele>599.52</ele>
        <time>2012-03-07T11:11:54Z</time>
      </trkpt>
      <trkpt lat="43.69181" lon="6.78111">
        <ele>600</ele>
        <time>2012-03-07T11:12:15Z</time>
      </trkpt>
      <trkpt lat="43.69171" lon="6.78137">
        <ele>595.67</ele>
        <time>2012-03-07T11:12:45Z</time>
      </trkpt>
      <trkpt lat="43.69164" lon="6.78148">
        <ele>593.75</ele>
        <time>2012-03-07T11:13:11Z</time>
      </trkpt>
      <trkpt lat="43.69163" lon="6.78151">
        <ele>591.35</ele>
        <time>2012-03-07T11:13:36Z</time>
      </trkpt>
      <trkpt lat="43.69138" lon="6.78173">
        <ele>594.23</ele>
        <time>2012-03-07T11:13:53Z</time>
      </trkpt>
      <trkpt lat="43.69122" lon="6.7819">
        <ele>598.56</ele>
        <time>2012-03-07T11:14:11Z</time>
      </trkpt>
      <trkpt lat="43.69119" lon="6.78194">
        <ele>604.33</ele>
        <time>2012-03-07T11:16:12Z</time>
      </trkpt>
      <trkpt lat="43.69129" lon="6.78187">
        <ele>605.29</ele>
        <time>2012-03-07T11:16:29Z</time>
      </trkpt>
      <trkpt lat="43.69136" lon="6.78178">
        <ele>603.85</ele>
        <time>2012-03-07T11:16:49Z</time>
      </trkpt>
      <trkpt lat="43.69145" lon="6.78166">
        <ele>599.52</ele>
        <time>2012-03-07T11:17:06Z</time>
      </trkpt>
      <trkpt lat="43.69151" lon="6.78158">
        <ele>600</ele>
        <time>2012-03-07T11:17:20Z</time>
      </trkpt>
      <trkpt lat="43.69162" lon="6.7815">
        <ele>600</ele>
        <time>2012-03-07T11:17:36Z</time>
      </trkpt>
      <trkpt lat="43.6917" lon="6.7814">
        <ele>601.92</ele>
        <time>2012-03-07T11:17:50Z</time>
      </trkpt>
      <trkpt lat="43.69173" lon="6.78138">
        <ele>602.4</ele>
        <time>2012-03-07T11:17:53Z</time>
      </trkpt>
      <trkpt lat="43.69176" lon="6.78134">
        <ele>605.29</ele>
        <time>2012-03-07T11:18:18Z</time>
      </trkpt>
      <trkpt lat="43.69177" lon="6.78134">
        <ele>606.25</ele>
        <time>2012-03-07T11:18:33Z</time>
      </trkpt>
      <trkpt lat="43.69175" lon="6.78142">
        <ele>602.88</ele>
        <time>2012-03-07T11:18:47Z</time>
      </trkpt>
      <trkpt lat="43.69165" lon="6.78149">
        <ele>600.48</ele>
        <time>2012-03-07T11:18:59Z</time>
      </trkpt>
      <trkpt lat="43.69158" lon="6.78152">
        <ele>600</ele>
        <time>2012-03-07T11:19:06Z</time>
      </trkpt>
      <trkpt lat="43.69145" lon="6.78163">
        <ele>600.96</ele>
        <time>2012-03-07T11:19:23Z</time>
      </trkpt>
      <trkpt lat="43.69136" lon="6.78176">
        <ele>601.44</ele>
        <time>2012-03-07T11:19:43Z</time>
      </trkpt>
      <trkpt lat="43.69128" lon="6.78183">
        <ele>601.44</ele>
        <time>2012-03-07T11:19:56Z</time>
      </trkpt>
      <trkpt lat="43.69121" lon="6.7819">
        <ele>602.4</ele>
        <time>2012-03-07T11:20:13Z</time>
      </trkpt>
      <trkpt lat="43.69119" lon="6.78194">
        <ele>604.33</ele>
        <time>2012-03-07T11:20:28Z</time>
      </trkpt>
      <trkpt lat="43.69117" lon="6.78198">
        <ele>604.33</ele>
        <time>2012-03-07T11:20:38Z</time>
      </trkpt>
      <trkpt lat="43.69113" lon="6.78201">
        <ele>602.88</ele>
        <time>2012-03-07T11:20:50Z</time>
      </trkpt>
      <trkpt lat="43.69118" lon="6.78204">
        <ele>604.33</ele>
        <time>2012-03-07T11:21:07Z</time>
      </trkpt>
      <trkpt lat="43.69117" lon="6.78205">
        <ele>601.92</ele>
        <time>2012-03-07T11:21:23Z</time>
      </trkpt>
      <trkpt lat="43.69116" lon="6.78211">
        <ele>600.48</ele>
        <time>2012-03-07T11:21:34Z</time>
      </trkpt>
      <trkpt lat="43.69114" lon="6.78216">
        <ele>599.04</ele>
        <time>2012-03-07T11:21:51Z</time>
      </trkpt>
      <trkpt lat="43.69117" lon="6.78223">
        <ele>598.56</ele>
        <time>2012-03-07T11:22:12Z</time>
      </trkpt>
      <trkpt lat="43.6912" lon="6.78229">
        <ele>599.52</ele>
        <time>2012-03-07T11:22:30Z</time>
      </trkpt>
      <trkpt lat="43.69118" lon="6.78229">
        <ele>599.04</ele>
        <time>2012-03-07T11:22:46Z</time>
      </trkpt>
      <trkpt lat="43.69119" lon="6.78231">
        <ele>598.56</ele>
        <time>2012-03-07T11:22:56Z</time>
      </trkpt>
      <trkpt lat="43.69122" lon="6.78238">
        <ele>600</ele>
        <time>2012-03-07T11:23:05Z</time>
      </trkpt>
      <trkpt lat="43.69123" lon="6.78242">
        <ele>600.96</ele>
        <time>2012-03-07T11:23:08Z</time>
      </trkpt>
      <trkpt lat="43.69124" lon="6.78246">
        <ele>603.85</ele>
        <time>2012-03-07T11:23:24Z</time>
      </trkpt>
      <trkpt lat="43.69125" lon="6.78249">
        <ele>605.29</ele>
        <time>2012-03-07T11:23:40Z</time>
      </trkpt>
      <trkpt lat="43.69124" lon="6.78248">
        <ele>604.81</ele>
        <time>2012-03-07T11:23:59Z</time>
      </trkpt>
      <trkpt lat="43.69123" lon="6.78248">
        <ele>604.81</ele>
        <time>2012-03-07T11:24:00Z</time>
      </trkpt>
      <trkpt lat="43.69124" lon="6.78249">
        <ele>605.29</ele>
        <time>2012-03-07T11:24:02Z</time>
      </trkpt>
      <trkpt lat="43.69124" lon="6.7825">
        <ele>604.81</ele>
        <time>2012-03-07T11:24:11Z</time>
      </trkpt>
      <trkpt lat="43.69159" lon="6.78257">
        <ele>576.93</ele>
        <time>2012-03-08T08:08:43Z</time>
      </trkpt>
      <trkpt lat="43.6915" lon="6.78246">
        <ele>574.53</ele>
        <time>2012-03-08T08:09:01Z</time>
      </trkpt>
      <trkpt lat="43.69142" lon="6.7823">
        <ele>573.56</ele>
        <time>2012-03-08T08:09:20Z</time>
      </trkpt>
      <trkpt lat="43.69141" lon="6.78217">
        <ele>576.45</ele>
        <time>2012-03-08T08:09:39Z</time>
      </trkpt>
      <trkpt lat="43.69139" lon="6.78212">
        <ele>577.89</ele>
        <time>2012-03-08T08:10:02Z</time>
      </trkpt>
      <trkpt lat="43.69131" lon="6.78208">
        <ele>579.33</ele>
        <time>2012-03-08T08:10:31Z</time>
      </trkpt>
      <trkpt lat="43.69127" lon="6.78217">
        <ele>576.45</ele>
        <time>2012-03-08T08:10:59Z</time>
      </trkpt>
      <trkpt lat="43.69126" lon="6.78216">
        <ele>575.97</ele>
        <time>2012-03-08T08:11:48Z</time>
      </trkpt>
      <trkpt lat="43.6914" lon="6.7822">
        <ele>576.45</ele>
        <time>2012-03-08T08:12:43Z</time>
      </trkpt>
      <trkpt lat="43.69144" lon="6.78209">
        <ele>584.62</ele>
        <time>2012-03-08T08:13:16Z</time>
      </trkpt>
      <trkpt lat="43.69145" lon="6.78213">
        <ele>586.54</ele>
        <time>2012-03-08T08:13:39Z</time>
      </trkpt>
      <trkpt lat="43.69158" lon="6.78198">
        <ele>587.5</ele>
        <time>2012-03-08T08:14:00Z</time>
      </trkpt>
      <trkpt lat="43.69162" lon="6.78194">
        <ele>582.22</ele>
        <time>2012-03-08T08:14:22Z</time>
      </trkpt>
      <trkpt lat="43.69172" lon="6.78186">
        <ele>582.7</ele>
        <time>2012-03-08T08:14:45Z</time>
      </trkpt>
      <trkpt lat="43.69177" lon="6.78186">
        <ele>583.18</ele>
        <time>2012-03-08T08:14:54Z</time>
      </trkpt>
      <trkpt lat="43.6919" lon="6.78175">
        <ele>581.25</ele>
        <time>2012-03-08T08:15:15Z</time>
      </trkpt>
      <trkpt lat="43.69202" lon="6.7817">
        <ele>581.73</ele>
        <time>2012-03-08T08:15:35Z</time>
      </trkpt>
      <trkpt lat="43.69214" lon="6.78165">
        <ele>578.85</ele>
        <time>2012-03-08T08:15:58Z</time>
      </trkpt>
      <trkpt lat="43.69223" lon="6.78153">
        <ele>575.49</ele>
        <time>2012-03-08T08:16:19Z</time>
      </trkpt>
      <trkpt lat="43.6923" lon="6.78139">
        <ele>574.53</ele>
        <time>2012-03-08T08:16:39Z</time>
      </trkpt>
      <trkpt lat="43.69235" lon="6.78126">
        <ele>573.56</ele>
        <time>2012-03-08T08:16:57Z</time>
      </trkpt>
      <trkpt lat="43.69239" lon="6.78113">
        <ele>572.12</ele>
        <time>2012-03-08T08:17:17Z</time>
      </trkpt>
      <trkpt lat="43.69245" lon="6.78098">
        <ele>570.2</ele>
        <time>2012-03-08T08:17:36Z</time>
      </trkpt>
      <trkpt lat="43.69244" lon="6.78084">
        <ele>565.87</ele>
        <time>2012-03-08T08:17:55Z</time>
      </trkpt>
      <trkpt lat="43.69248" lon="6.78075">
        <ele>562.99</ele>
        <time>2012-03-08T08:18:13Z</time>
      </trkpt>
      <trkpt lat="43.69253" lon="6.78066">
        <ele>561.55</ele>
        <time>2012-03-08T08:18:29Z</time>
      </trkpt>
      <trkpt lat="43.69255" lon="6.7806">
        <ele>560.59</ele>
        <time>2012-03-08T08:18:39Z</time>
      </trkpt>
      <trkpt lat="43.69254" lon="6.78056">
        <ele>559.62</ele>
        <time>2012-03-08T08:18:55Z</time>
      </trkpt>
      <trkpt lat="43.69258" lon="6.78058">
        <ele>558.18</ele>
        <time>2012-03-08T08:19:18Z</time>
      </trkpt>
      <trkpt lat="43.69263" lon="6.78068">
        <ele>553.86</ele>
        <time>2012-03-08T08:19:40Z</time>
      </trkpt>
      <trkpt lat="43.69271" lon="6.78087">
        <ele>550.01</ele>
        <time>2012-03-08T08:20:01Z</time>
      </trkpt>
      <trkpt lat="43.69277" lon="6.78083">
        <ele>549.05</ele>
        <time>2012-03-08T08:20:19Z</time>
      </trkpt>
      <trkpt lat="43.69279" lon="6.78076">
        <ele>550.01</ele>
        <time>2012-03-08T08:20:34Z</time>
      </trkpt>
      <trkpt lat="43.6928" lon="6.78069">
        <ele>548.09</ele>
        <time>2012-03-08T08:20:53Z</time>
      </trkpt>
      <trkpt lat="43.69279" lon="6.7805">
        <ele>546.17</ele>
        <time>2012-03-08T08:21:12Z</time>
      </trkpt>
      <trkpt lat="43.69278" lon="6.78045">
        <ele>543.76</ele>
        <time>2012-03-08T08:21:33Z</time>
      </trkpt>
      <trkpt lat="43.69279" lon="6.78026">
        <ele>543.28</ele>
        <time>2012-03-08T08:21:55Z</time>
      </trkpt>
      <trkpt lat="43.69278" lon="6.7801">
        <ele>537.03</ele>
        <time>2012-03-08T08:22:14Z</time>
      </trkpt>
      <trkpt lat="43.69277" lon="6.78001">
        <ele>533.19</ele>
        <time>2012-03-08T08:22:29Z</time>
      </trkpt>
      <trkpt lat="43.69278" lon="6.78001">
        <ele>531.75</ele>
        <time>2012-03-08T08:22:56Z</time>
      </trkpt>
      <trkpt lat="43.69282" lon="6.77997">
        <ele>527.9</ele>
        <time>2012-03-08T08:23:14Z</time>
      </trkpt>
      <trkpt lat="43.69282" lon="6.77996">
        <ele>527.42</ele>
        <time>2012-03-08T08:23:17Z</time>
      </trkpt>
      <trkpt lat="43.69283" lon="6.77989">
        <ele>526.46</ele>
        <time>2012-03-08T08:23:34Z</time>
      </trkpt>
      <trkpt lat="43.69281" lon="6.77982">
        <ele>525.02</ele>
        <time>2012-03-08T08:23:58Z</time>
      </trkpt>
      <trkpt lat="43.69282" lon="6.77978">
        <ele>525.02</ele>
        <time>2012-03-08T08:24:18Z</time>
      </trkpt>
      <trkpt lat="43.69286" lon="6.77978">
        <ele>524.06</ele>
        <time>2012-03-08T08:24:40Z</time>
      </trkpt>
      <trkpt lat="43.69291" lon="6.77988">
        <ele>520.69</ele>
        <time>2012-03-08T08:25:00Z</time>
      </trkpt>
      <trkpt lat="43.69296" lon="6.77993">
        <ele>518.29</ele>
        <time>2012-03-08T08:25:21Z</time>
      </trkpt>
      <trkpt lat="43.69298" lon="6.77988">
        <ele>517.33</ele>
        <time>2012-03-08T08:25:34Z</time>
      </trkpt>
      <trkpt lat="43.69296" lon="6.77976">
        <ele>513.96</ele>
        <time>2012-03-08T08:25:52Z</time>
      </trkpt>
      <trkpt lat="43.69295" lon="6.77972">
        <ele>511.56</ele>
        <time>2012-03-08T08:26:12Z</time>
      </trkpt>
      <trkpt lat="43.69295" lon="6.77961">
        <ele>512.04</ele>
        <time>2012-03-08T08:26:33Z</time>
      </trkpt>
      <trkpt lat="43.69295" lon="6.77957">
        <ele>510.12</ele>
        <time>2012-03-08T08:26:53Z</time>
      </trkpt>
      <trkpt lat="43.69297" lon="6.77955">
        <ele>507.71</ele>
        <time>2012-03-08T08:27:11Z</time>
      </trkpt>
      <trkpt lat="43.69298" lon="6.77952">
        <ele>504.35</ele>
        <time>2012-03-08T08:27:31Z</time>
      </trkpt>
      <trkpt lat="43.693" lon="6.77947">
        <ele>500.98</ele>
        <time>2012-03-08T08:27:49Z</time>
      </trkpt>
      <trkpt lat="43.69305" lon="6.77928">
        <ele>498.1</ele>
        <time>2012-03-08T08:28:06Z</time>
      </trkpt>
      <trkpt lat="43.69304" lon="6.77883">
        <ele>497.62</ele>
        <time>2012-03-08T08:28:24Z</time>
      </trkpt>
      <trkpt lat="43.69302" lon="6.77854">
        <ele>496.66</ele>
        <time>2012-03-08T08:28:44Z</time>
      </trkpt>
      <trkpt lat="43.69305" lon="6.77839">
        <ele>494.26</ele>
        <time>2012-03-08T08:29:04Z</time>
      </trkpt>
      <trkpt lat="43.6931" lon="6.77822">
        <ele>492.33</ele>
        <time>2012-03-08T08:29:24Z</time>
      </trkpt>
      <trkpt lat="43.69308" lon="6.77817">
        <ele>490.89</ele>
        <time>2012-03-08T08:29:43Z</time>
      </trkpt>
      <trkpt lat="43.69309" lon="6.77807">
        <ele>489.93</ele>
        <time>2012-03-08T08:30:03Z</time>
      </trkpt>
      <trkpt lat="43.6931" lon="6.77796">
        <ele>487.05</ele>
        <time>2012-03-08T08:30:24Z</time>
      </trkpt>
      <trkpt lat="43.6931" lon="6.77798">
        <ele>485.12</ele>
        <time>2012-03-08T08:30:46Z</time>
      </trkpt>
      <trkpt lat="43.6931" lon="6.77798">
        <ele>475.51</ele>
        <time>2012-03-08T08:31:05Z</time>
      </trkpt>
      <trkpt lat="43.69318" lon="6.77786">
        <ele>471.66</ele>
        <time>2012-03-08T08:31:22Z</time>
      </trkpt>
      <trkpt lat="43.69325" lon="6.77781">
        <ele>469.74</ele>
        <time>2012-03-08T08:31:45Z</time>
      </trkpt>
      <trkpt lat="43.69329" lon="6.77774">
        <ele>466.86</ele>
        <time>2012-03-08T08:32:06Z</time>
      </trkpt>
      <trkpt lat="43.69339" lon="6.77763">
        <ele>465.42</ele>
        <time>2012-03-08T08:32:28Z</time>
      </trkpt>
      <trkpt lat="43.69346" lon="6.77764">
        <ele>468.3</ele>
        <time>2012-03-08T08:32:49Z</time>
      </trkpt>
      <trkpt lat="43.69351" lon="6.77763">
        <ele>464.45</ele>
        <time>2012-03-08T08:33:11Z</time>
      </trkpt>
      <trkpt lat="43.69357" lon="6.77758">
        <ele>463.49</ele>
        <time>2012-03-08T08:33:35Z</time>
      </trkpt>
      <trkpt lat="43.69365" lon="6.77745">
        <ele>459.17</ele>
        <time>2012-03-08T08:33:55Z</time>
      </trkpt>
      <trkpt lat="43.69372" lon="6.77744">
        <ele>456.76</ele>
        <time>2012-03-08T08:34:17Z</time>
      </trkpt>
      <trkpt lat="43.69382" lon="6.77741">
        <ele>453.4</ele>
        <time>2012-03-08T08:34:40Z</time>
      </trkpt>
      <trkpt lat="43.69398" lon="6.77735">
        <ele>447.63</ele>
        <time>2012-03-08T08:35:06Z</time>
      </trkpt>
      <trkpt lat="43.69412" lon="6.77729">
        <ele>446.67</ele>
        <time>2012-03-08T08:35:32Z</time>
      </trkpt>
      <trkpt lat="43.69418" lon="6.77723">
        <ele>442.82</ele>
        <time>2012-03-08T08:35:50Z</time>
      </trkpt>
      <trkpt lat="43.69423" lon="6.77713">
        <ele>438.98</ele>
        <time>2012-03-08T08:36:11Z</time>
      </trkpt>
      <trkpt lat="43.69425" lon="6.77707">
        <ele>437.54</ele>
        <time>2012-03-08T08:36:29Z</time>
      </trkpt>
      <trkpt lat="43.69425" lon="6.777">
        <ele>435.61</ele>
        <time>2012-03-08T08:36:53Z</time>
      </trkpt>
      <trkpt lat="43.69426" lon="6.77682">
        <ele>432.73</ele>
        <time>2012-03-08T08:37:07Z</time>
      </trkpt>
      <trkpt lat="43.69429" lon="6.77666">
        <ele>432.25</ele>
        <time>2012-03-08T08:37:27Z</time>
      </trkpt>
      <trkpt lat="43.69432" lon="6.77657">
        <ele>430.33</ele>
        <time>2012-03-08T08:37:46Z</time>
      </trkpt>
      <trkpt lat="43.69446" lon="6.77645">
        <ele>439.46</ele>
        <time>2012-03-08T08:38:06Z</time>
      </trkpt>
      <trkpt lat="43.69456" lon="6.77626">
        <ele>446.67</ele>
        <time>2012-03-08T08:38:27Z</time>
      </trkpt>
      <trkpt lat="43.69455" lon="6.77623">
        <ele>448.11</ele>
        <time>2012-03-08T08:38:50Z</time>
      </trkpt>
      <trkpt lat="43.69454" lon="6.77619">
        <ele>451</ele>
        <time>2012-03-08T08:39:22Z</time>
      </trkpt>
      <trkpt lat="43.69451" lon="6.77609">
        <ele>451.48</ele>
        <time>2012-03-08T08:39:47Z</time>
      </trkpt>
      <trkpt lat="43.69444" lon="6.776">
        <ele>449.55</ele>
        <time>2012-03-08T08:40:04Z</time>
      </trkpt>
      <trkpt lat="43.69442" lon="6.77593">
        <ele>447.63</ele>
        <time>2012-03-08T08:40:24Z</time>
      </trkpt>
      <trkpt lat="43.69429" lon="6.77592">
        <ele>439.94</ele>
        <time>2012-03-08T08:40:43Z</time>
      </trkpt>
      <trkpt lat="43.69426" lon="6.77589">
        <ele>436.1</ele>
        <time>2012-03-08T08:41:05Z</time>
      </trkpt>
      <trkpt lat="43.69423" lon="6.77587">
        <ele>435.13</ele>
        <time>2012-03-08T08:41:24Z</time>
      </trkpt>
      <trkpt lat="43.69421" lon="6.77583">
        <ele>434.65</ele>
        <time>2012-03-08T08:42:01Z</time>
      </trkpt>
      <trkpt lat="43.69422" lon="6.77581">
        <ele>435.13</ele>
        <time>2012-03-08T08:42:20Z</time>
      </trkpt>
      <trkpt lat="43.69425" lon="6.77581">
        <ele>433.69</ele>
        <time>2012-03-08T08:42:51Z</time>
      </trkpt>
      <trkpt lat="43.69425" lon="6.77579">
        <ele>433.21</ele>
        <time>2012-03-08T08:43:15Z</time>
      </trkpt>
      <trkpt lat="43.69424" lon="6.77576">
        <ele>433.21</ele>
        <time>2012-03-08T08:43:36Z</time>
      </trkpt>
      <trkpt lat="43.69423" lon="6.77568">
        <ele>432.73</ele>
        <time>2012-03-08T08:43:55Z</time>
      </trkpt>
      <trkpt lat="43.69419" lon="6.77555">
        <ele>432.25</ele>
        <time>2012-03-08T08:44:11Z</time>
      </trkpt>
      <trkpt lat="43.69417" lon="6.77551">
        <ele>433.21</ele>
        <time>2012-03-08T08:44:38Z</time>
      </trkpt>
      <trkpt lat="43.69417" lon="6.77555">
        <ele>430.33</ele>
        <time>2012-03-08T08:44:58Z</time>
      </trkpt>
      <trkpt lat="43.69414" lon="6.7755">
        <ele>428.4</ele>
        <time>2012-03-08T08:45:18Z</time>
      </trkpt>
      <trkpt lat="43.6941" lon="6.77545">
        <ele>425.52</ele>
        <time>2012-03-08T08:45:46Z</time>
      </trkpt>
      <trkpt lat="43.69408" lon="6.77533">
        <ele>423.6</ele>
        <time>2012-03-08T08:46:01Z</time>
      </trkpt>
      <trkpt lat="43.69403" lon="6.77535">
        <ele>419.75</ele>
        <time>2012-03-08T08:46:28Z</time>
      </trkpt>
      <trkpt lat="43.69402" lon="6.77527">
        <ele>415.91</ele>
        <time>2012-03-08T08:46:52Z</time>
      </trkpt>
      <trkpt lat="43.694" lon="6.7751">
        <ele>416.87</ele>
        <time>2012-03-08T08:47:11Z</time>
      </trkpt>
      <trkpt lat="43.69399" lon="6.77504">
        <ele>413.98</ele>
        <time>2012-03-08T08:47:32Z</time>
      </trkpt>
      <trkpt lat="43.69397" lon="6.77505">
        <ele>410.62</ele>
        <time>2012-03-08T08:48:00Z</time>
      </trkpt>
      <trkpt lat="43.69399" lon="6.77508">
        <ele>407.26</ele>
        <time>2012-03-08T08:48:16Z</time>
      </trkpt>
      <trkpt lat="43.69407" lon="6.7751">
        <ele>402.45</ele>
        <time>2012-03-08T08:48:37Z</time>
      </trkpt>
      <trkpt lat="43.6941" lon="6.77509">
        <ele>401.01</ele>
        <time>2012-03-08T08:48:59Z</time>
      </trkpt>
      <trkpt lat="43.69409" lon="6.775">
        <ele>395.24</ele>
        <time>2012-03-08T08:51:18Z</time>
      </trkpt>
      <trkpt lat="43.69409" lon="6.77499">
        <ele>394.76</ele>
        <time>2012-03-08T08:51:40Z</time>
      </trkpt>
      <trkpt lat="43.69409" lon="6.77497">
        <ele>393.32</ele>
        <time>2012-03-08T08:55:46Z</time>
      </trkpt>
      <trkpt lat="43.694" lon="6.77493">
        <ele>394.76</ele>
        <time>2012-03-08T09:02:30Z</time>
      </trkpt>
      <trkpt lat="43.69402" lon="6.7749">
        <ele>394.76</ele>
        <time>2012-03-08T09:02:53Z</time>
      </trkpt>
      <trkpt lat="43.69403" lon="6.77489">
        <ele>394.28</ele>
        <time>2012-03-08T09:03:15Z</time>
      </trkpt>
      <trkpt lat="43.69402" lon="6.77488">
        <ele>393.32</ele>
        <time>2012-03-08T09:03:40Z</time>
      </trkpt>
      <trkpt lat="43.69402" lon="6.77485">
        <ele>393.32</ele>
        <time>2012-03-08T09:04:05Z</time>
      </trkpt>
      <trkpt lat="43.69402" lon="6.77482">
        <ele>393.32</ele>
        <time>2012-03-08T09:04:36Z</time>
      </trkpt>
      <trkpt lat="43.69402" lon="6.7748">
        <ele>392.36</ele>
        <time>2012-03-08T09:05:06Z</time>
      </trkpt>
      <trkpt lat="43.69401" lon="6.7748">
        <ele>391.39</ele>
        <time>2012-03-08T09:05:31Z</time>
      </trkpt>
      <trkpt lat="43.69401" lon="6.77481">
        <ele>390.43</ele>
        <time>2012-03-08T09:06:02Z</time>
      </trkpt>
      <trkpt lat="43.69402" lon="6.77481">
        <ele>390.91</ele>
        <time>2012-03-08T09:06:26Z</time>
      </trkpt>
      <trkpt lat="43.69401" lon="6.77482">
        <ele>391.39</ele>
        <time>2012-03-08T09:06:50Z</time>
      </trkpt>
      <trkpt lat="43.69401" lon="6.77483">
        <ele>391.87</ele>
        <time>2012-03-08T09:07:21Z</time>
      </trkpt>
      <trkpt lat="43.69401" lon="6.77486">
        <ele>391.39</ele>
        <time>2012-03-08T09:07:46Z</time>
      </trkpt>
      <trkpt lat="43.69402" lon="6.77486">
        <ele>390.91</ele>
        <time>2012-03-08T09:08:12Z</time>
      </trkpt>
      <trkpt lat="43.69403" lon="6.77487">
        <ele>390.43</ele>
        <time>2012-03-08T09:08:35Z</time>
      </trkpt>
      <trkpt lat="43.69403" lon="6.77488">
        <ele>388.51</ele>
        <time>2012-03-08T09:08:52Z</time>
      </trkpt>
      <trkpt lat="43.69403" lon="6.77488">
        <ele>388.99</ele>
        <time>2012-03-08T09:09:15Z</time>
      </trkpt>
      <trkpt lat="43.69405" lon="6.77489">
        <ele>389.95</ele>
        <time>2012-03-08T09:09:33Z</time>
      </trkpt>
      <trkpt lat="43.69404" lon="6.77486">
        <ele>390.43</ele>
        <time>2012-03-08T09:09:56Z</time>
      </trkpt>
      <trkpt lat="43.69404" lon="6.77485">
        <ele>394.28</ele>
        <time>2012-03-08T09:10:18Z</time>
      </trkpt>
      <trkpt lat="43.69405" lon="6.77484">
        <ele>394.28</ele>
        <time>2012-03-08T09:10:43Z</time>
      </trkpt>
      <trkpt lat="43.69406" lon="6.77483">
        <ele>393.8</ele>
        <time>2012-03-08T09:11:18Z</time>
      </trkpt>
      <trkpt lat="43.69406" lon="6.77481">
        <ele>393.8</ele>
        <time>2012-03-08T09:11:45Z</time>
      </trkpt>
      <trkpt lat="43.69407" lon="6.77479">
        <ele>394.76</ele>
        <time>2012-03-08T09:12:12Z</time>
      </trkpt>
      <trkpt lat="43.69409" lon="6.77478">
        <ele>394.28</ele>
        <time>2012-03-08T09:12:33Z</time>
      </trkpt>
      <trkpt lat="43.69409" lon="6.77478">
        <ele>394.28</ele>
        <time>2012-03-08T09:12:57Z</time>
      </trkpt>
      <trkpt lat="43.69404" lon="6.77482">
        <ele>396.2</ele>
        <time>2012-03-08T09:13:15Z</time>
      </trkpt>
      <trkpt lat="43.69404" lon="6.77482">
        <ele>397.16</ele>
        <time>2012-03-08T09:13:35Z</time>
      </trkpt>
      <trkpt lat="43.69407" lon="6.7748">
        <ele>397.64</ele>
        <time>2012-03-08T09:13:56Z</time>
      </trkpt>
      <trkpt lat="43.69405" lon="6.77475">
        <ele>396.68</ele>
        <time>2012-03-08T09:14:18Z</time>
      </trkpt>
      <trkpt lat="43.69405" lon="6.77475">
        <ele>398.12</ele>
        <time>2012-03-08T09:14:36Z</time>
      </trkpt>
      <trkpt lat="43.69405" lon="6.77474">
        <ele>398.12</ele>
        <time>2012-03-08T09:14:58Z</time>
      </trkpt>
      <trkpt lat="43.69405" lon="6.77473">
        <ele>398.6</ele>
        <time>2012-03-08T09:15:22Z</time>
      </trkpt>
      <trkpt lat="43.69406" lon="6.77474">
        <ele>400.05</ele>
        <time>2012-03-08T09:15:51Z</time>
      </trkpt>
      <trkpt lat="43.69404" lon="6.77474">
        <ele>399.08</ele>
        <time>2012-03-08T09:16:17Z</time>
      </trkpt>
      <trkpt lat="43.69405" lon="6.77473">
        <ele>398.6</ele>
        <time>2012-03-08T09:16:45Z</time>
      </trkpt>
      <trkpt lat="43.69405" lon="6.77472">
        <ele>398.6</ele>
        <time>2012-03-08T09:17:24Z</time>
      </trkpt>
      <trkpt lat="43.69405" lon="6.77473">
        <ele>399.08</ele>
        <time>2012-03-08T09:17:56Z</time>
      </trkpt>
      <trkpt lat="43.69406" lon="6.77474">
        <ele>400.05</ele>
        <time>2012-03-08T09:19:04Z</time>
      </trkpt>
      <trkpt lat="43.69406" lon="6.77474">
        <ele>400.05</ele>
        <time>2012-03-08T09:19:28Z</time>
      </trkpt>
      <trkpt lat="43.69406" lon="6.77474">
        <ele>400.05</ele>
        <time>2012-03-08T09:20:01Z</time>
      </trkpt>
      <trkpt lat="43.69405" lon="6.77473">
        <ele>400.05</ele>
        <time>2012-03-08T09:20:24Z</time>
      </trkpt>
      <trkpt lat="43.69405" lon="6.77472">
        <ele>399.57</ele>
        <time>2012-03-08T09:20:55Z</time>
      </trkpt>
      <trkpt lat="43.69404" lon="6.77471">
        <ele>399.57</ele>
        <time>2012-03-08T09:21:18Z</time>
      </trkpt>
      <trkpt lat="43.69402" lon="6.77467">
        <ele>398.12</ele>
        <time>2012-03-08T09:21:47Z</time>
      </trkpt>
      <trkpt lat="43.69401" lon="6.77468">
        <ele>397.64</ele>
        <time>2012-03-08T09:22:05Z</time>
      </trkpt>
      <trkpt lat="43.69399" lon="6.77468">
        <ele>397.64</ele>
        <time>2012-03-08T09:22:25Z</time>
      </trkpt>
      <trkpt lat="43.69398" lon="6.77468">
        <ele>397.16</ele>
        <time>2012-03-08T09:22:59Z</time>
      </trkpt>
      <trkpt lat="43.69391" lon="6.77469">
        <ele>397.64</ele>
        <time>2012-03-08T09:23:22Z</time>
      </trkpt>
      <trkpt lat="43.69387" lon="6.77464">
        <ele>397.64</ele>
        <time>2012-03-08T09:23:43Z</time>
      </trkpt>
      <trkpt lat="43.69381" lon="6.77458">
        <ele>398.12</ele>
        <time>2012-03-08T09:24:03Z</time>
      </trkpt>
      <trkpt lat="43.69376" lon="6.77456">
        <ele>397.64</ele>
        <time>2012-03-08T09:24:27Z</time>
      </trkpt>
      <trkpt lat="43.69372" lon="6.7746">
        <ele>393.8</ele>
        <time>2012-03-08T09:24:43Z</time>
      </trkpt>
      <trkpt lat="43.69374" lon="6.77452">
        <ele>391.87</ele>
        <time>2012-03-08T09:24:59Z</time>
      </trkpt>
      <trkpt lat="43.69376" lon="6.77448">
        <ele>393.32</ele>
        <time>2012-03-08T09:25:19Z</time>
      </trkpt>
      <trkpt lat="43.69373" lon="6.77459">
        <ele>391.39</ele>
        <time>2012-03-08T09:25:36Z</time>
      </trkpt>
      <trkpt lat="43.69372" lon="6.77457">
        <ele>389.95</ele>
        <time>2012-03-08T09:25:58Z</time>
      </trkpt>
      <trkpt lat="43.6937" lon="6.77457">
        <ele>388.99</ele>
        <time>2012-03-08T09:26:21Z</time>
      </trkpt>
      <trkpt lat="43.69368" lon="6.77461">
        <ele>388.03</ele>
        <time>2012-03-08T09:26:43Z</time>
      </trkpt>
      <trkpt lat="43.6937" lon="6.77459">
        <ele>388.03</ele>
        <time>2012-03-08T09:27:02Z</time>
      </trkpt>
      <trkpt lat="43.6937" lon="6.77457">
        <ele>387.55</ele>
        <time>2012-03-08T09:27:19Z</time>
      </trkpt>
      <trkpt lat="43.69368" lon="6.77455">
        <ele>387.07</ele>
        <time>2012-03-08T09:27:45Z</time>
      </trkpt>
      <trkpt lat="43.69369" lon="6.77451">
        <ele>387.55</ele>
        <time>2012-03-08T09:28:08Z</time>
      </trkpt>
      <trkpt lat="43.69369" lon="6.77447">
        <ele>386.59</ele>
        <time>2012-03-08T09:28:30Z</time>
      </trkpt>
      <trkpt lat="43.69368" lon="6.77444">
        <ele>385.63</ele>
        <time>2012-03-08T09:28:56Z</time>
      </trkpt>
      <trkpt lat="43.69373" lon="6.77432">
        <ele>385.15</ele>
        <time>2012-03-08T09:29:16Z</time>
      </trkpt>
      <trkpt lat="43.69377" lon="6.77429">
        <ele>387.55</ele>
        <time>2012-03-08T09:29:42Z</time>
      </trkpt>
      <trkpt lat="43.69378" lon="6.77421">
        <ele>388.99</ele>
        <time>2012-03-08T09:30:09Z</time>
      </trkpt>
      <trkpt lat="43.6938" lon="6.77408">
        <ele>388.99</ele>
        <time>2012-03-08T09:30:33Z</time>
      </trkpt>
      <trkpt lat="43.69384" lon="6.77405">
        <ele>390.91</ele>
        <time>2012-03-08T09:30:57Z</time>
      </trkpt>
      <trkpt lat="43.69382" lon="6.774">
        <ele>394.28</ele>
        <time>2012-03-08T09:31:19Z</time>
      </trkpt>
      <trkpt lat="43.69381" lon="6.77396">
        <ele>394.28</ele>
        <time>2012-03-08T09:31:41Z</time>
      </trkpt>
      <trkpt lat="43.69381" lon="6.77391">
        <ele>395.72</ele>
        <time>2012-03-08T09:32:02Z</time>
      </trkpt>
      <trkpt lat="43.69378" lon="6.77383">
        <ele>396.68</ele>
        <time>2012-03-08T09:32:27Z</time>
      </trkpt>
      <trkpt lat="43.69379" lon="6.77383">
        <ele>399.08</ele>
        <time>2012-03-08T09:32:55Z</time>
      </trkpt>
      <trkpt lat="43.69377" lon="6.77385">
        <ele>398.6</ele>
        <time>2012-03-08T09:33:28Z</time>
      </trkpt>
      <trkpt lat="43.69381" lon="6.77379">
        <ele>398.6</ele>
        <time>2012-03-08T09:34:01Z</time>
      </trkpt>
      <trkpt lat="43.69379" lon="6.7738">
        <ele>397.64</ele>
        <time>2012-03-08T09:34:35Z</time>
      </trkpt>
      <trkpt lat="43.69381" lon="6.7738">
        <ele>398.12</ele>
        <time>2012-03-08T09:35:05Z</time>
      </trkpt>
      <trkpt lat="43.69378" lon="6.77381">
        <ele>399.57</ele>
        <time>2012-03-08T09:35:46Z</time>
      </trkpt>
      <trkpt lat="43.69379" lon="6.77379">
        <ele>400.05</ele>
        <time>2012-03-08T09:36:14Z</time>
      </trkpt>
      <trkpt lat="43.69379" lon="6.7737">
        <ele>400.05</ele>
        <time>2012-03-08T09:36:36Z</time>
      </trkpt>
      <trkpt lat="43.6937" lon="6.77356">
        <ele>399.57</ele>
        <time>2012-03-08T09:36:56Z</time>
      </trkpt>
      <trkpt lat="43.69369" lon="6.7735">
        <ele>397.64</ele>
        <time>2012-03-08T09:37:20Z</time>
      </trkpt>
      <trkpt lat="43.69372" lon="6.77347">
        <ele>397.16</ele>
        <time>2012-03-08T09:37:43Z</time>
      </trkpt>
      <trkpt lat="43.69373" lon="6.77345">
        <ele>396.68</ele>
        <time>2012-03-08T09:38:07Z</time>
      </trkpt>
      <trkpt lat="43.69375" lon="6.77344">
        <ele>398.12</ele>
        <time>2012-03-08T09:38:27Z</time>
      </trkpt>
      <trkpt lat="43.69378" lon="6.77337">
        <ele>399.08</ele>
        <time>2012-03-08T09:38:55Z</time>
      </trkpt>
      <trkpt lat="43.69379" lon="6.77328">
        <ele>400.53</ele>
        <time>2012-03-08T09:39:20Z</time>
      </trkpt>
      <trkpt lat="43.6938" lon="6.77315">
        <ele>399.57</ele>
        <time>2012-03-08T09:39:45Z</time>
      </trkpt>
      <trkpt lat="43.69381" lon="6.77308">
        <ele>398.6</ele>
        <time>2012-03-08T09:40:09Z</time>
      </trkpt>
      <trkpt lat="43.6938" lon="6.77294">
        <ele>395.24</ele>
        <time>2012-03-08T09:40:26Z</time>
      </trkpt>
      <trkpt lat="43.69379" lon="6.77287">
        <ele>397.64</ele>
        <time>2012-03-08T09:40:48Z</time>
      </trkpt>
      <trkpt lat="43.6938" lon="6.77274">
        <ele>401.97</ele>
        <time>2012-03-08T09:41:09Z</time>
      </trkpt>
      <trkpt lat="43.6938" lon="6.77262">
        <ele>403.41</ele>
        <time>2012-03-08T09:41:32Z</time>
      </trkpt>
      <trkpt lat="43.69379" lon="6.77245">
        <ele>403.41</ele>
        <time>2012-03-08T09:41:52Z</time>
      </trkpt>
      <trkpt lat="43.69377" lon="6.77238">
        <ele>404.37</ele>
        <time>2012-03-08T09:42:10Z</time>
      </trkpt>
      <trkpt lat="43.69373" lon="6.77222">
        <ele>402.93</ele>
        <time>2012-03-08T09:42:33Z</time>
      </trkpt>
      <trkpt lat="43.69372" lon="6.77214">
        <ele>401.49</ele>
        <time>2012-03-08T09:42:54Z</time>
      </trkpt>
      <trkpt lat="43.69372" lon="6.77203">
        <ele>397.16</ele>
        <time>2012-03-08T09:43:12Z</time>
      </trkpt>
      <trkpt lat="43.6937" lon="6.77188">
        <ele>393.32</ele>
        <time>2012-03-08T09:43:34Z</time>
      </trkpt>
      <trkpt lat="43.69367" lon="6.77173">
        <ele>394.28</ele>
        <time>2012-03-08T09:43:56Z</time>
      </trkpt>
      <trkpt lat="43.69363" lon="6.77164">
        <ele>395.72</ele>
        <time>2012-03-08T09:44:20Z</time>
      </trkpt>
      <trkpt lat="43.69363" lon="6.77163">
        <ele>396.2</ele>
        <time>2012-03-08T09:44:40Z</time>
      </trkpt>
      <trkpt lat="43.69361" lon="6.77161">
        <ele>397.16</ele>
        <time>2012-03-08T09:45:07Z</time>
      </trkpt>
      <trkpt lat="43.69359" lon="6.77155">
        <ele>401.49</ele>
        <time>2012-03-08T09:45:30Z</time>
      </trkpt>
      <trkpt lat="43.69357" lon="6.7715">
        <ele>405.33</ele>
        <time>2012-03-08T09:46:03Z</time>
      </trkpt>
      <trkpt lat="43.69353" lon="6.7714">
        <ele>405.81</ele>
        <time>2012-03-08T09:46:24Z</time>
      </trkpt>
      <trkpt lat="43.6935" lon="6.7713">
        <ele>404.85</ele>
        <time>2012-03-08T09:46:44Z</time>
      </trkpt>
      <trkpt lat="43.69348" lon="6.77119">
        <ele>403.89</ele>
        <time>2012-03-08T09:47:02Z</time>
      </trkpt>
      <trkpt lat="43.69346" lon="6.77112">
        <ele>403.41</ele>
        <time>2012-03-08T09:47:25Z</time>
      </trkpt>
      <trkpt lat="43.69344" lon="6.77104">
        <ele>405.33</ele>
        <time>2012-03-08T09:47:47Z</time>
      </trkpt>
      <trkpt lat="43.69343" lon="6.77085">
        <ele>406.77</ele>
        <time>2012-03-08T09:48:07Z</time>
      </trkpt>
      <trkpt lat="43.6934" lon="6.77074">
        <ele>409.66</ele>
        <time>2012-03-08T09:48:30Z</time>
      </trkpt>
      <trkpt lat="43.69336" lon="6.77063">
        <ele>410.14</ele>
        <time>2012-03-08T09:48:50Z</time>
      </trkpt>
      <trkpt lat="43.6933" lon="6.77054">
        <ele>411.58</ele>
        <time>2012-03-08T09:49:09Z</time>
      </trkpt>
      <trkpt lat="43.69325" lon="6.7705">
        <ele>410.62</ele>
        <time>2012-03-08T09:49:31Z</time>
      </trkpt>
      <trkpt lat="43.69319" lon="6.77047">
        <ele>411.1</ele>
        <time>2012-03-08T09:49:49Z</time>
      </trkpt>
      <trkpt lat="43.69317" lon="6.77053">
        <ele>410.14</ele>
        <time>2012-03-08T09:50:10Z</time>
      </trkpt>
      <trkpt lat="43.69313" lon="6.77053">
        <ele>408.22</ele>
        <time>2012-03-08T09:50:30Z</time>
      </trkpt>
      <trkpt lat="43.69309" lon="6.77051">
        <ele>405.81</ele>
        <time>2012-03-08T09:50:51Z</time>
      </trkpt>
      <trkpt lat="43.69306" lon="6.77047">
        <ele>402.93</ele>
        <time>2012-03-08T09:51:22Z</time>
      </trkpt>
      <trkpt lat="43.69306" lon="6.77047">
        <ele>402.45</ele>
        <time>2012-03-08T09:51:24Z</time>
      </trkpt>
      <trkpt lat="43.693" lon="6.77047">
        <ele>401.49</ele>
        <time>2012-03-08T09:51:43Z</time>
      </trkpt>
      <trkpt lat="43.69299" lon="6.77048">
        <ele>401.01</ele>
        <time>2012-03-08T09:51:46Z</time>
      </trkpt>
      <trkpt lat="43.69295" lon="6.77051">
        <ele>401.97</ele>
        <time>2012-03-08T09:52:03Z</time>
      </trkpt>
      <trkpt lat="43.69289" lon="6.77051">
        <ele>401.01</ele>
        <time>2012-03-08T09:52:20Z</time>
      </trkpt>
      <trkpt lat="43.69281" lon="6.7705">
        <ele>399.08</ele>
        <time>2012-03-08T09:52:35Z</time>
      </trkpt>
      <trkpt lat="43.69275" lon="6.77053">
        <ele>395.72</ele>
        <time>2012-03-08T09:52:56Z</time>
      </trkpt>
      <trkpt lat="43.69272" lon="6.77044">
        <ele>391.39</ele>
        <time>2012-03-08T09:53:14Z</time>
      </trkpt>
      <trkpt lat="43.69267" lon="6.77037">
        <ele>389.47</ele>
        <time>2012-03-08T09:53:33Z</time>
      </trkpt>
      <trkpt lat="43.69268" lon="6.77024">
        <ele>387.07</ele>
        <time>2012-03-08T09:53:54Z</time>
      </trkpt>
      <trkpt lat="43.69266" lon="6.77019">
        <ele>387.07</ele>
        <time>2012-03-08T09:54:15Z</time>
      </trkpt>
      <trkpt lat="43.69262" lon="6.77011">
        <ele>385.63</ele>
        <time>2012-03-08T09:54:33Z</time>
      </trkpt>
      <trkpt lat="43.69259" lon="6.77001">
        <ele>385.63</ele>
        <time>2012-03-08T09:54:57Z</time>
      </trkpt>
      <trkpt lat="43.69258" lon="6.76991">
        <ele>385.63</ele>
        <time>2012-03-08T09:55:21Z</time>
      </trkpt>
      <trkpt lat="43.69254" lon="6.76982">
        <ele>384.66</ele>
        <time>2012-03-08T09:55:41Z</time>
      </trkpt>
      <trkpt lat="43.69252" lon="6.76972">
        <ele>383.7</ele>
        <time>2012-03-08T09:56:08Z</time>
      </trkpt>
      <trkpt lat="43.69249" lon="6.76966">
        <ele>383.7</ele>
        <time>2012-03-08T09:56:31Z</time>
      </trkpt>
      <trkpt lat="43.69245" lon="6.76957">
        <ele>382.74</ele>
        <time>2012-03-08T09:56:58Z</time>
      </trkpt>
      <trkpt lat="43.69241" lon="6.76953">
        <ele>382.26</ele>
        <time>2012-03-08T09:57:19Z</time>
      </trkpt>
      <trkpt lat="43.69239" lon="6.76951">
        <ele>380.34</ele>
        <time>2012-03-08T09:57:38Z</time>
      </trkpt>
      <trkpt lat="43.69238" lon="6.7695">
        <ele>380.34</ele>
        <time>2012-03-08T09:57:42Z</time>
      </trkpt>
      <trkpt lat="43.69227" lon="6.76946">
        <ele>380.82</ele>
        <time>2012-03-08T09:57:59Z</time>
      </trkpt>
      <trkpt lat="43.69225" lon="6.76942">
        <ele>380.34</ele>
        <time>2012-03-08T09:58:24Z</time>
      </trkpt>
      <trkpt lat="43.69214" lon="6.76941">
        <ele>381.3</ele>
        <time>2012-03-08T09:58:44Z</time>
      </trkpt>
      <trkpt lat="43.69205" lon="6.76935">
        <ele>382.26</ele>
        <time>2012-03-08T09:59:07Z</time>
      </trkpt>
      <trkpt lat="43.69196" lon="6.76936">
        <ele>383.7</ele>
        <time>2012-03-08T09:59:30Z</time>
      </trkpt>
      <trkpt lat="43.69187" lon="6.76942">
        <ele>385.63</ele>
        <time>2012-03-08T09:59:49Z</time>
      </trkpt>
      <trkpt lat="43.69177" lon="6.76947">
        <ele>386.11</ele>
        <time>2012-03-08T10:00:07Z</time>
      </trkpt>
      <trkpt lat="43.69167" lon="6.76953">
        <ele>387.55</ele>
        <time>2012-03-08T10:00:24Z</time>
      </trkpt>
      <trkpt lat="43.69162" lon="6.76952">
        <ele>386.59</ele>
        <time>2012-03-08T10:00:43Z</time>
      </trkpt>
      <trkpt lat="43.69156" lon="6.7695">
        <ele>387.55</ele>
        <time>2012-03-08T10:01:06Z</time>
      </trkpt>
      <trkpt lat="43.69143" lon="6.76954">
        <ele>388.99</ele>
        <time>2012-03-08T10:01:22Z</time>
      </trkpt>
      <trkpt lat="43.69131" lon="6.76953">
        <ele>387.07</ele>
        <time>2012-03-08T10:01:43Z</time>
      </trkpt>
      <trkpt lat="43.69124" lon="6.76953">
        <ele>385.15</ele>
        <time>2012-03-08T10:02:03Z</time>
      </trkpt>
      <trkpt lat="43.69118" lon="6.7695">
        <ele>383.7</ele>
        <time>2012-03-08T10:02:22Z</time>
      </trkpt>
      <trkpt lat="43.69114" lon="6.7695">
        <ele>383.7</ele>
        <time>2012-03-08T10:02:46Z</time>
      </trkpt>
      <trkpt lat="43.69112" lon="6.76949">
        <ele>382.26</ele>
        <time>2012-03-08T10:02:52Z</time>
      </trkpt>
      <trkpt lat="43.69104" lon="6.76942">
        <ele>381.78</ele>
        <time>2012-03-08T10:03:11Z</time>
      </trkpt>
      <trkpt lat="43.69101" lon="6.76938">
        <ele>381.3</ele>
        <time>2012-03-08T10:03:35Z</time>
      </trkpt>
      <trkpt lat="43.69101" lon="6.7693">
        <ele>380.34</ele>
        <time>2012-03-08T10:03:51Z</time>
      </trkpt>
      <trkpt lat="43.69097" lon="6.76915">
        <ele>379.86</ele>
        <time>2012-03-08T10:04:14Z</time>
      </trkpt>
      <trkpt lat="43.69092" lon="6.7691">
        <ele>381.78</ele>
        <time>2012-03-08T10:04:35Z</time>
      </trkpt>
      <trkpt lat="43.69094" lon="6.76901">
        <ele>380.34</ele>
        <time>2012-03-08T10:05:01Z</time>
      </trkpt>
      <trkpt lat="43.69079" lon="6.76895">
        <ele>380.34</ele>
        <time>2012-03-08T10:05:23Z</time>
      </trkpt>
      <trkpt lat="43.69076" lon="6.76879">
        <ele>376.49</ele>
        <time>2012-03-08T10:05:41Z</time>
      </trkpt>
      <trkpt lat="43.69076" lon="6.76862">
        <ele>373.61</ele>
        <time>2012-03-08T10:06:00Z</time>
      </trkpt>
      <trkpt lat="43.69072" lon="6.76852">
        <ele>371.69</ele>
        <time>2012-03-08T10:06:22Z</time>
      </trkpt>
      <trkpt lat="43.69069" lon="6.76834">
        <ele>369.76</ele>
        <time>2012-03-08T10:06:39Z</time>
      </trkpt>
      <trkpt lat="43.69069" lon="6.76824">
        <ele>367.84</ele>
        <time>2012-03-08T10:06:55Z</time>
      </trkpt>
      <trkpt lat="43.69069" lon="6.76809">
        <ele>366.88</ele>
        <time>2012-03-08T10:07:15Z</time>
      </trkpt>
      <trkpt lat="43.69073" lon="6.76794">
        <ele>368.32</ele>
        <time>2012-03-08T10:07:35Z</time>
      </trkpt>
      <trkpt lat="43.69078" lon="6.76779">
        <ele>369.28</ele>
        <time>2012-03-08T10:07:56Z</time>
      </trkpt>
      <trkpt lat="43.69078" lon="6.76775">
        <ele>369.76</ele>
        <time>2012-03-08T10:08:03Z</time>
      </trkpt>
      <trkpt lat="43.69078" lon="6.76765">
        <ele>372.65</ele>
        <time>2012-03-08T10:08:21Z</time>
      </trkpt>
      <trkpt lat="43.69084" lon="6.76758">
        <ele>374.57</ele>
        <time>2012-03-08T10:08:42Z</time>
      </trkpt>
      <trkpt lat="43.69087" lon="6.76752">
        <ele>374.57</ele>
        <time>2012-03-08T10:09:05Z</time>
      </trkpt>
      <trkpt lat="43.69092" lon="6.7674">
        <ele>375.53</ele>
        <time>2012-03-08T10:09:27Z</time>
      </trkpt>
      <trkpt lat="43.69093" lon="6.76726">
        <ele>376.97</ele>
        <time>2012-03-08T10:09:43Z</time>
      </trkpt>
      <trkpt lat="43.69097" lon="6.76714">
        <ele>380.82</ele>
        <time>2012-03-08T10:10:00Z</time>
      </trkpt>
      <trkpt lat="43.69098" lon="6.76697">
        <ele>380.82</ele>
        <time>2012-03-08T10:10:19Z</time>
      </trkpt>
      <trkpt lat="43.69099" lon="6.76679">
        <ele>381.3</ele>
        <time>2012-03-08T10:10:40Z</time>
      </trkpt>
      <trkpt lat="43.69095" lon="6.76663">
        <ele>379.38</ele>
        <time>2012-03-08T10:10:58Z</time>
      </trkpt>
      <trkpt lat="43.69093" lon="6.76647">
        <ele>378.42</ele>
        <time>2012-03-08T10:11:15Z</time>
      </trkpt>
      <trkpt lat="43.6909" lon="6.76642">
        <ele>378.9</ele>
        <time>2012-03-08T10:11:22Z</time>
      </trkpt>
      <trkpt lat="43.69087" lon="6.7663">
        <ele>375.53</ele>
        <time>2012-03-08T10:11:43Z</time>
      </trkpt>
      <trkpt lat="43.6908" lon="6.76616">
        <ele>377.94</ele>
        <time>2012-03-08T10:12:01Z</time>
      </trkpt>
      <trkpt lat="43.69073" lon="6.76605">
        <ele>377.94</ele>
        <time>2012-03-08T10:12:18Z</time>
      </trkpt>
      <trkpt lat="43.69068" lon="6.76595">
        <ele>375.53</ele>
        <time>2012-03-08T10:12:38Z</time>
      </trkpt>
      <trkpt lat="43.69064" lon="6.7658">
        <ele>372.17</ele>
        <time>2012-03-08T10:12:57Z</time>
      </trkpt>
      <trkpt lat="43.69059" lon="6.76565">
        <ele>370.73</ele>
        <time>2012-03-08T10:13:18Z</time>
      </trkpt>
      <trkpt lat="43.69057" lon="6.76554">
        <ele>368.32</ele>
        <time>2012-03-08T10:13:36Z</time>
      </trkpt>
      <trkpt lat="43.69046" lon="6.76546">
        <ele>369.76</ele>
        <time>2012-03-08T10:13:54Z</time>
      </trkpt>
      <trkpt lat="43.69044" lon="6.76544">
        <ele>369.76</ele>
        <time>2012-03-08T10:14:20Z</time>
      </trkpt>
      <trkpt lat="43.69042" lon="6.76539">
        <ele>370.73</ele>
        <time>2012-03-08T10:14:44Z</time>
      </trkpt>
      <trkpt lat="43.69039" lon="6.76529">
        <ele>370.73</ele>
        <time>2012-03-08T10:15:03Z</time>
      </trkpt>
      <trkpt lat="43.69037" lon="6.76524">
        <ele>370.73</ele>
        <time>2012-03-08T10:15:24Z</time>
      </trkpt>
      <trkpt lat="43.69035" lon="6.76507">
        <ele>376.01</ele>
        <time>2012-03-08T10:15:43Z</time>
      </trkpt>
      <trkpt lat="43.69034" lon="6.76498">
        <ele>377.94</ele>
        <time>2012-03-08T10:16:08Z</time>
      </trkpt>
      <trkpt lat="43.69039" lon="6.76485">
        <ele>378.42</ele>
        <time>2012-03-08T10:16:28Z</time>
      </trkpt>
      <trkpt lat="43.69036" lon="6.76476">
        <ele>380.82</ele>
        <time>2012-03-08T10:16:49Z</time>
      </trkpt>
      <trkpt lat="43.69037" lon="6.76475">
        <ele>379.86</ele>
        <time>2012-03-08T10:17:18Z</time>
      </trkpt>
      <trkpt lat="43.69032" lon="6.76474">
        <ele>380.34</ele>
        <time>2012-03-08T10:17:42Z</time>
      </trkpt>
      <trkpt lat="43.69013" lon="6.76466">
        <ele>380.34</ele>
        <time>2012-03-08T10:18:02Z</time>
      </trkpt>
      <trkpt lat="43.68998" lon="6.76462">
        <ele>380.34</ele>
        <time>2012-03-08T10:18:28Z</time>
      </trkpt>
      <trkpt lat="43.68989" lon="6.76461">
        <ele>381.3</ele>
        <time>2012-03-08T10:18:49Z</time>
      </trkpt>
      <trkpt lat="43.68975" lon="6.76467">
        <ele>380.82</ele>
        <time>2012-03-08T10:19:09Z</time>
      </trkpt>
      <trkpt lat="43.68965" lon="6.7646">
        <ele>376.97</ele>
        <time>2012-03-08T10:19:29Z</time>
      </trkpt>
      <trkpt lat="43.68957" lon="6.76452">
        <ele>376.49</ele>
        <time>2012-03-08T10:19:49Z</time>
      </trkpt>
      <trkpt lat="43.68953" lon="6.76448">
        <ele>376.01</ele>
        <time>2012-03-08T10:20:09Z</time>
      </trkpt>
      <trkpt lat="43.68938" lon="6.76445">
        <ele>376.97</ele>
        <time>2012-03-08T10:20:27Z</time>
      </trkpt>
      <trkpt lat="43.6892" lon="6.76436">
        <ele>378.42</ele>
        <time>2012-03-08T10:20:52Z</time>
      </trkpt>
      <trkpt lat="43.68907" lon="6.76425">
        <ele>376.01</ele>
        <time>2012-03-08T10:21:16Z</time>
      </trkpt>
      <trkpt lat="43.68897" lon="6.7642">
        <ele>375.05</ele>
        <time>2012-03-08T10:21:39Z</time>
      </trkpt>
      <trkpt lat="43.68885" lon="6.7641">
        <ele>370.24</ele>
        <time>2012-03-08T10:22:03Z</time>
      </trkpt>
      <trkpt lat="43.68885" lon="6.76408">
        <ele>369.76</ele>
        <time>2012-03-08T10:22:04Z</time>
      </trkpt>
      <trkpt lat="43.68871" lon="6.76401">
        <ele>364.48</ele>
        <time>2012-03-08T10:22:22Z</time>
      </trkpt>
      <trkpt lat="43.68861" lon="6.764">
        <ele>363.04</ele>
        <time>2012-03-08T10:22:39Z</time>
      </trkpt>
      <trkpt lat="43.68852" lon="6.7639">
        <ele>354.86</ele>
        <time>2012-03-08T10:23:00Z</time>
      </trkpt>
      <trkpt lat="43.6884" lon="6.76389">
        <ele>351.02</ele>
        <time>2012-03-08T10:23:18Z</time>
      </trkpt>
      <trkpt lat="43.68825" lon="6.76387">
        <ele>352.94</ele>
        <time>2012-03-08T10:23:38Z</time>
      </trkpt>
      <trkpt lat="43.68817" lon="6.76383">
        <ele>353.9</ele>
        <time>2012-03-08T10:23:58Z</time>
      </trkpt>
      <trkpt lat="43.68805" lon="6.76384">
        <ele>352.94</ele>
        <time>2012-03-08T10:24:16Z</time>
      </trkpt>
      <trkpt lat="43.68795" lon="6.76385">
        <ele>349.58</ele>
        <time>2012-03-08T10:24:37Z</time>
      </trkpt>
      <trkpt lat="43.6879" lon="6.76386">
        <ele>349.1</ele>
        <time>2012-03-08T10:24:59Z</time>
      </trkpt>
      <trkpt lat="43.68775" lon="6.76389">
        <ele>351.02</ele>
        <time>2012-03-08T10:25:16Z</time>
      </trkpt>
      <trkpt lat="43.68764" lon="6.76396">
        <ele>357.75</ele>
        <time>2012-03-08T10:25:48Z</time>
      </trkpt>
      <trkpt lat="43.68761" lon="6.76398">
        <ele>362.07</ele>
        <time>2012-03-08T10:26:14Z</time>
      </trkpt>
      <trkpt lat="43.68753" lon="6.76398">
        <ele>364</ele>
        <time>2012-03-08T10:26:31Z</time>
      </trkpt>
      <trkpt lat="43.68742" lon="6.76396">
        <ele>364.96</ele>
        <time>2012-03-08T10:26:49Z</time>
      </trkpt>
      <trkpt lat="43.68735" lon="6.76392">
        <ele>363.04</ele>
        <time>2012-03-08T10:27:09Z</time>
      </trkpt>
      <trkpt lat="43.68717" lon="6.76396">
        <ele>365.92</ele>
        <time>2012-03-08T10:27:32Z</time>
      </trkpt>
      <trkpt lat="43.68712" lon="6.76398">
        <ele>368.32</ele>
        <time>2012-03-08T10:27:54Z</time>
      </trkpt>
      <trkpt lat="43.68705" lon="6.76389">
        <ele>369.28</ele>
        <time>2012-03-08T10:28:16Z</time>
      </trkpt>
      <trkpt lat="43.68698" lon="6.76387">
        <ele>369.76</ele>
        <time>2012-03-08T10:28:38Z</time>
      </trkpt>
      <trkpt lat="43.68689" lon="6.76388">
        <ele>368.8</ele>
        <time>2012-03-08T10:28:53Z</time>
      </trkpt>
      <trkpt lat="43.6868" lon="6.76393">
        <ele>376.01</ele>
        <time>2012-03-08T10:29:17Z</time>
      </trkpt>
      <trkpt lat="43.68667" lon="6.76401">
        <ele>376.49</ele>
        <time>2012-03-08T10:29:38Z</time>
      </trkpt>
      <trkpt lat="43.68659" lon="6.76412">
        <ele>376.49</ele>
        <time>2012-03-08T10:29:56Z</time>
      </trkpt>
      <trkpt lat="43.68648" lon="6.76413">
        <ele>375.05</ele>
        <time>2012-03-08T10:30:18Z</time>
      </trkpt>
      <trkpt lat="43.68647" lon="6.76414">
        <ele>385.63</ele>
        <time>2012-03-08T10:35:43Z</time>
      </trkpt>
      <trkpt lat="43.68625" lon="6.76416">
        <ele>367.84</ele>
        <time>2012-03-08T10:35:55Z</time>
      </trkpt>
      <trkpt lat="43.68647" lon="6.76414">
        <ele>381.3</ele>
        <time>2012-03-08T10:47:43Z</time>
      </trkpt>
      <trkpt lat="43.68623" lon="6.76418">
        <ele>363.52</ele>
        <time>2012-03-08T10:48:08Z</time>
      </trkpt>
      <trkpt lat="43.68613" lon="6.76418">
        <ele>358.71</ele>
        <time>2012-03-08T10:48:30Z</time>
      </trkpt>
      <trkpt lat="43.68595" lon="6.76435">
        <ele>362.55</ele>
        <time>2012-03-08T10:48:55Z</time>
      </trkpt>
      <trkpt lat="43.68587" lon="6.76451">
        <ele>371.69</ele>
        <time>2012-03-08T10:49:17Z</time>
      </trkpt>
      <trkpt lat="43.68581" lon="6.76463">
        <ele>374.09</ele>
        <time>2012-03-08T10:49:36Z</time>
      </trkpt>
      <trkpt lat="43.68578" lon="6.76467">
        <ele>373.61</ele>
        <time>2012-03-08T10:50:02Z</time>
      </trkpt>
      <trkpt lat="43.68576" lon="6.76477">
        <ele>372.17</ele>
        <time>2012-03-08T10:50:14Z</time>
      </trkpt>
      <trkpt lat="43.68563" lon="6.76489">
        <ele>370.24</ele>
        <time>2012-03-08T10:50:33Z</time>
      </trkpt>
      <trkpt lat="43.68551" lon="6.7648">
        <ele>371.21</ele>
        <time>2012-03-08T10:50:51Z</time>
      </trkpt>
      <trkpt lat="43.68546" lon="6.76481">
        <ele>369.76</ele>
        <time>2012-03-08T10:51:09Z</time>
      </trkpt>
      <trkpt lat="43.6854" lon="6.76482">
        <ele>368.8</ele>
        <time>2012-03-08T10:51:27Z</time>
      </trkpt>
      <trkpt lat="43.6853" lon="6.76483">
        <ele>367.36</ele>
        <time>2012-03-08T10:51:45Z</time>
      </trkpt>
      <trkpt lat="43.68525" lon="6.76482">
        <ele>366.88</ele>
        <time>2012-03-08T10:52:02Z</time>
      </trkpt>
      <trkpt lat="43.68523" lon="6.76483">
        <ele>364.96</ele>
        <time>2012-03-08T10:52:22Z</time>
      </trkpt>
      <trkpt lat="43.68522" lon="6.76479">
        <ele>363.52</ele>
        <time>2012-03-08T10:52:48Z</time>
      </trkpt>
      <trkpt lat="43.68523" lon="6.76463">
        <ele>361.59</ele>
        <time>2012-03-08T10:53:07Z</time>
      </trkpt>
      <trkpt lat="43.68523" lon="6.76458">
        <ele>362.07</ele>
        <time>2012-03-08T10:53:14Z</time>
      </trkpt>
      <trkpt lat="43.68531" lon="6.76436">
        <ele>362.55</ele>
        <time>2012-03-08T10:53:33Z</time>
      </trkpt>
      <trkpt lat="43.68527" lon="6.76423">
        <ele>363.04</ele>
        <time>2012-03-08T10:53:57Z</time>
      </trkpt>
      <trkpt lat="43.68518" lon="6.76421">
        <ele>362.55</ele>
        <time>2012-03-08T10:54:16Z</time>
      </trkpt>
      <trkpt lat="43.68516" lon="6.76433">
        <ele>363.04</ele>
        <time>2012-03-08T10:54:36Z</time>
      </trkpt>
      <trkpt lat="43.68516" lon="6.76423">
        <ele>363.04</ele>
        <time>2012-03-08T10:54:59Z</time>
      </trkpt>
      <trkpt lat="43.68509" lon="6.76416">
        <ele>362.55</ele>
        <time>2012-03-08T10:55:19Z</time>
      </trkpt>
      <trkpt lat="43.68502" lon="6.76409">
        <ele>362.55</ele>
        <time>2012-03-08T10:55:36Z</time>
      </trkpt>
      <trkpt lat="43.68491" lon="6.76407">
        <ele>362.07</ele>
        <time>2012-03-08T10:55:58Z</time>
      </trkpt>
      <trkpt lat="43.6848" lon="6.7641">
        <ele>361.59</ele>
        <time>2012-03-08T10:56:18Z</time>
      </trkpt>
      <trkpt lat="43.68461" lon="6.76407">
        <ele>361.59</ele>
        <time>2012-03-08T10:56:55Z</time>
      </trkpt>
      <trkpt lat="43.68452" lon="6.76402">
        <ele>361.59</ele>
        <time>2012-03-08T10:57:16Z</time>
      </trkpt>
      <trkpt lat="43.68452" lon="6.76406">
        <ele>361.59</ele>
        <time>2012-03-08T10:57:20Z</time>
      </trkpt>
      <trkpt lat="43.68446" lon="6.76433">
        <ele>372.17</ele>
        <time>2012-03-08T10:57:38Z</time>
      </trkpt>
      <trkpt lat="43.68445" lon="6.7645">
        <ele>383.7</ele>
        <time>2012-03-08T10:57:56Z</time>
      </trkpt>
      <trkpt lat="43.68443" lon="6.76464">
        <ele>387.55</ele>
        <time>2012-03-08T10:58:11Z</time>
      </trkpt>
      <trkpt lat="43.68445" lon="6.76471">
        <ele>396.2</ele>
        <time>2012-03-08T10:58:34Z</time>
      </trkpt>
      <trkpt lat="43.68446" lon="6.76461">
        <ele>388.99</ele>
        <time>2012-03-08T10:58:58Z</time>
      </trkpt>
      <trkpt lat="43.6844" lon="6.76461">
        <ele>388.99</ele>
        <time>2012-03-08T10:59:23Z</time>
      </trkpt>
      <trkpt lat="43.68438" lon="6.76462">
        <ele>388.99</ele>
        <time>2012-03-08T10:59:26Z</time>
      </trkpt>
      <trkpt lat="43.68441" lon="6.76439">
        <ele>388.99</ele>
        <time>2012-03-08T10:59:49Z</time>
      </trkpt>
      <trkpt lat="43.68429" lon="6.76431">
        <ele>389.47</ele>
        <time>2012-03-08T11:00:09Z</time>
      </trkpt>
      <trkpt lat="43.68418" lon="6.76425">
        <ele>389.47</ele>
        <time>2012-03-08T11:00:27Z</time>
      </trkpt>
      <trkpt lat="43.68399" lon="6.76419">
        <ele>388.99</ele>
        <time>2012-03-08T11:00:49Z</time>
      </trkpt>
      <trkpt lat="43.68394" lon="6.76406">
        <ele>388.99</ele>
        <time>2012-03-08T11:00:54Z</time>
      </trkpt>
      <trkpt lat="43.68385" lon="6.76388">
        <ele>388.99</ele>
        <time>2012-03-08T11:01:07Z</time>
      </trkpt>
      <trkpt lat="43.68362" lon="6.76373">
        <ele>389.47</ele>
        <time>2012-03-08T11:01:27Z</time>
      </trkpt>
      <trkpt lat="43.68354" lon="6.76374">
        <ele>388.99</ele>
        <time>2012-03-08T11:01:49Z</time>
      </trkpt>
      <trkpt lat="43.68346" lon="6.76368">
        <ele>388.99</ele>
        <time>2012-03-08T11:02:10Z</time>
      </trkpt>
      <trkpt lat="43.68339" lon="6.76365">
        <ele>388.99</ele>
        <time>2012-03-08T11:02:28Z</time>
      </trkpt>
      <trkpt lat="43.68335" lon="6.76361">
        <ele>388.99</ele>
        <time>2012-03-08T11:02:39Z</time>
      </trkpt>
      <trkpt lat="43.68318" lon="6.76352">
        <ele>382.26</ele>
        <time>2012-03-08T11:06:23Z</time>
      </trkpt>
      <trkpt lat="43.68318" lon="6.76342">
        <ele>373.13</ele>
        <time>2012-03-08T11:06:45Z</time>
      </trkpt>
      <trkpt lat="43.68329" lon="6.76352">
        <ele>386.59</ele>
        <time>2012-03-08T11:07:05Z</time>
      </trkpt>
      <trkpt lat="43.68318" lon="6.7634">
        <ele>442.82</ele>
        <time>2012-03-08T11:07:27Z</time>
      </trkpt>
      <trkpt lat="43.68309" lon="6.7633">
        <ele>446.67</ele>
        <time>2012-03-08T11:08:49Z</time>
      </trkpt>
      <trkpt lat="43.68301" lon="6.76332">
        <ele>445.71</ele>
        <time>2012-03-08T11:09:08Z</time>
      </trkpt>
      <trkpt lat="43.68294" lon="6.76326">
        <ele>438.98</ele>
        <time>2012-03-08T11:09:27Z</time>
      </trkpt>
      <trkpt lat="43.68286" lon="6.76332">
        <ele>438.98</ele>
        <time>2012-03-08T11:09:48Z</time>
      </trkpt>
      <trkpt lat="43.68283" lon="6.7633">
        <ele>436.1</ele>
        <time>2012-03-08T11:10:09Z</time>
      </trkpt>
      <trkpt lat="43.68279" lon="6.76324">
        <ele>432.25</ele>
        <time>2012-03-08T11:10:27Z</time>
      </trkpt>
      <trkpt lat="43.68277" lon="6.76317">
        <ele>426.48</ele>
        <time>2012-03-08T11:10:49Z</time>
      </trkpt>
      <trkpt lat="43.68275" lon="6.76314">
        <ele>423.6</ele>
        <time>2012-03-08T11:11:06Z</time>
      </trkpt>
      <trkpt lat="43.68274" lon="6.76308">
        <ele>415.43</ele>
        <time>2012-03-08T11:11:33Z</time>
      </trkpt>
      <trkpt lat="43.68269" lon="6.76299">
        <ele>413.02</ele>
        <time>2012-03-08T11:11:53Z</time>
      </trkpt>
      <trkpt lat="43.68266" lon="6.76287">
        <ele>411.1</ele>
        <time>2012-03-08T11:12:15Z</time>
      </trkpt>
      <trkpt lat="43.68264" lon="6.76281">
        <ele>408.7</ele>
        <time>2012-03-08T11:12:29Z</time>
      </trkpt>
      <trkpt lat="43.68276" lon="6.76255">
        <ele>382.74</ele>
        <time>2012-03-08T11:12:49Z</time>
      </trkpt>
      <trkpt lat="43.6828" lon="6.76244">
        <ele>369.28</ele>
        <time>2012-03-08T11:13:08Z</time>
      </trkpt>
      <trkpt lat="43.68279" lon="6.76243">
        <ele>368.32</ele>
        <time>2012-03-08T11:13:34Z</time>
      </trkpt>
      <trkpt lat="43.68269" lon="6.76227">
        <ele>366.4</ele>
        <time>2012-03-08T11:13:56Z</time>
      </trkpt>
      <trkpt lat="43.68263" lon="6.76217">
        <ele>367.36</ele>
        <time>2012-03-08T11:14:18Z</time>
      </trkpt>
      <trkpt lat="43.68255" lon="6.76207">
        <ele>370.24</ele>
        <time>2012-03-08T11:14:41Z</time>
      </trkpt>
      <trkpt lat="43.68251" lon="6.76199">
        <ele>372.17</ele>
        <time>2012-03-08T11:15:02Z</time>
      </trkpt>
      <trkpt lat="43.68244" lon="6.76198">
        <ele>372.17</ele>
        <time>2012-03-08T11:15:19Z</time>
      </trkpt>
      <trkpt lat="43.68243" lon="6.76198">
        <ele>372.65</ele>
        <time>2012-03-08T11:15:53Z</time>
      </trkpt>
      <trkpt lat="43.6825" lon="6.76199">
        <ele>371.21</ele>
        <time>2012-03-08T11:16:15Z</time>
      </trkpt>
      <trkpt lat="43.68258" lon="6.762">
        <ele>369.76</ele>
        <time>2012-03-08T11:16:27Z</time>
      </trkpt>
      <trkpt lat="43.68266" lon="6.76204">
        <ele>367.36</ele>
        <time>2012-03-08T11:16:41Z</time>
      </trkpt>
      <trkpt lat="43.68265" lon="6.76196">
        <ele>368.8</ele>
        <time>2012-03-08T11:17:01Z</time>
      </trkpt>
      <trkpt lat="43.6826" lon="6.76183">
        <ele>371.69</ele>
        <time>2012-03-08T11:17:23Z</time>
      </trkpt>
      <trkpt lat="43.6826" lon="6.76173">
        <ele>374.57</ele>
        <time>2012-03-08T11:17:41Z</time>
      </trkpt>
      <trkpt lat="43.68259" lon="6.76161">
        <ele>376.01</ele>
        <time>2012-03-08T11:18:04Z</time>
      </trkpt>
      <trkpt lat="43.68256" lon="6.76146">
        <ele>377.94</ele>
        <time>2012-03-08T11:18:22Z</time>
      </trkpt>
      <trkpt lat="43.6825" lon="6.7613">
        <ele>379.86</ele>
        <time>2012-03-08T11:18:44Z</time>
      </trkpt>
      <trkpt lat="43.68245" lon="6.76116">
        <ele>383.7</ele>
        <time>2012-03-08T11:19:06Z</time>
      </trkpt>
      <trkpt lat="43.68235" lon="6.76105">
        <ele>385.63</ele>
        <time>2012-03-08T11:19:26Z</time>
      </trkpt>
      <trkpt lat="43.68231" lon="6.76099">
        <ele>387.55</ele>
        <time>2012-03-08T11:19:43Z</time>
      </trkpt>
      <trkpt lat="43.68224" lon="6.7609">
        <ele>388.51</ele>
        <time>2012-03-08T11:20:06Z</time>
      </trkpt>
      <trkpt lat="43.68214" lon="6.76078">
        <ele>390.91</ele>
        <time>2012-03-08T11:20:25Z</time>
      </trkpt>
      <trkpt lat="43.68211" lon="6.76068">
        <ele>393.8</ele>
        <time>2012-03-08T11:20:41Z</time>
      </trkpt>
      <trkpt lat="43.68211" lon="6.76063">
        <ele>394.28</ele>
        <time>2012-03-08T11:20:47Z</time>
      </trkpt>
      <trkpt lat="43.68217" lon="6.76052">
        <ele>394.28</ele>
        <time>2012-03-08T11:21:00Z</time>
      </trkpt>
      <trkpt lat="43.68219" lon="6.76036">
        <ele>394.76</ele>
        <time>2012-03-08T11:21:18Z</time>
      </trkpt>
      <trkpt lat="43.68218" lon="6.76018">
        <ele>397.16</ele>
        <time>2012-03-08T11:21:37Z</time>
      </trkpt>
      <trkpt lat="43.68218" lon="6.76011">
        <ele>398.6</ele>
        <time>2012-03-08T11:22:00Z</time>
      </trkpt>
      <trkpt lat="43.68215" lon="6.75999">
        <ele>398.6</ele>
        <time>2012-03-08T11:22:21Z</time>
      </trkpt>
      <trkpt lat="43.68221" lon="6.75969">
        <ele>400.05</ele>
        <time>2012-03-08T11:22:47Z</time>
      </trkpt>
      <trkpt lat="43.68218" lon="6.75945">
        <ele>403.41</ele>
        <time>2012-03-08T11:23:40Z</time>
      </trkpt>
      <trkpt lat="43.68207" lon="6.75925">
        <ele>401.97</ele>
        <time>2012-03-08T11:24:01Z</time>
      </trkpt>
      <trkpt lat="43.682" lon="6.75915">
        <ele>400.53</ele>
        <time>2012-03-08T11:24:29Z</time>
      </trkpt>
      <trkpt lat="43.68194" lon="6.75901">
        <ele>399.08</ele>
        <time>2012-03-08T11:24:50Z</time>
      </trkpt>
      <trkpt lat="43.68193" lon="6.75898">
        <ele>399.57</ele>
        <time>2012-03-08T11:24:54Z</time>
      </trkpt>
      <trkpt lat="43.68191" lon="6.75877">
        <ele>397.64</ele>
        <time>2012-03-08T11:25:13Z</time>
      </trkpt>
      <trkpt lat="43.6819" lon="6.75861">
        <ele>393.8</ele>
        <time>2012-03-08T11:25:28Z</time>
      </trkpt>
      <trkpt lat="43.68193" lon="6.75847">
        <ele>392.36</ele>
        <time>2012-03-08T11:25:45Z</time>
      </trkpt>
      <trkpt lat="43.68191" lon="6.75839">
        <ele>390.43</ele>
        <time>2012-03-08T11:26:02Z</time>
      </trkpt>
      <trkpt lat="43.68197" lon="6.75827">
        <ele>391.39</ele>
        <time>2012-03-08T11:26:21Z</time>
      </trkpt>
      <trkpt lat="43.682" lon="6.75809">
        <ele>388.03</ele>
        <time>2012-03-08T11:26:39Z</time>
      </trkpt>
      <trkpt lat="43.68201" lon="6.75794">
        <ele>385.15</ele>
        <time>2012-03-08T11:27:01Z</time>
      </trkpt>
      <trkpt lat="43.68199" lon="6.75783">
        <ele>383.7</ele>
        <time>2012-03-08T11:27:25Z</time>
      </trkpt>
      <trkpt lat="43.68196" lon="6.75772">
        <ele>381.3</ele>
        <time>2012-03-08T11:27:53Z</time>
      </trkpt>
      <trkpt lat="43.68196" lon="6.75765">
        <ele>379.86</ele>
        <time>2012-03-08T11:27:57Z</time>
      </trkpt>
      <trkpt lat="43.68192" lon="6.7574">
        <ele>368.8</ele>
        <time>2012-03-08T11:28:23Z</time>
      </trkpt>
      <trkpt lat="43.6819" lon="6.75718">
        <ele>364.48</ele>
        <time>2012-03-08T11:28:45Z</time>
      </trkpt>
      <trkpt lat="43.68185" lon="6.75702">
        <ele>365.44</ele>
        <time>2012-03-08T11:29:08Z</time>
      </trkpt>
      <trkpt lat="43.68191" lon="6.75685">
        <ele>364.96</ele>
        <time>2012-03-08T11:29:33Z</time>
      </trkpt>
      <trkpt lat="43.68178" lon="6.75655">
        <ele>368.8</ele>
        <time>2012-03-08T11:29:54Z</time>
      </trkpt>
      <trkpt lat="43.68175" lon="6.75637">
        <ele>369.76</ele>
        <time>2012-03-08T11:30:15Z</time>
      </trkpt>
      <trkpt lat="43.68166" lon="6.75614">
        <ele>369.28</ele>
        <time>2012-03-08T11:30:38Z</time>
      </trkpt>
      <trkpt lat="43.68164" lon="6.75608">
        <ele>370.24</ele>
        <time>2012-03-08T11:30:54Z</time>
      </trkpt>
      <trkpt lat="43.68165" lon="6.756">
        <ele>368.8</ele>
        <time>2012-03-08T11:31:13Z</time>
      </trkpt>
      <trkpt lat="43.68165" lon="6.75595">
        <ele>369.28</ele>
        <time>2012-03-08T11:31:36Z</time>
      </trkpt>
      <trkpt lat="43.68164" lon="6.75584">
        <ele>369.28</ele>
        <time>2012-03-08T11:31:54Z</time>
      </trkpt>
      <trkpt lat="43.68159" lon="6.75575">
        <ele>368.8</ele>
        <time>2012-03-08T11:32:12Z</time>
      </trkpt>
      <trkpt lat="43.68149" lon="6.75567">
        <ele>368.8</ele>
        <time>2012-03-08T11:32:34Z</time>
      </trkpt>
      <trkpt lat="43.6814" lon="6.75564">
        <ele>370.73</ele>
        <time>2012-03-08T11:32:55Z</time>
      </trkpt>
      <trkpt lat="43.68143" lon="6.75572">
        <ele>372.65</ele>
        <time>2012-03-08T11:33:15Z</time>
      </trkpt>
      <trkpt lat="43.68143" lon="6.7558">
        <ele>373.13</ele>
        <time>2012-03-08T11:33:36Z</time>
      </trkpt>
      <trkpt lat="43.68135" lon="6.7557">
        <ele>375.05</ele>
        <time>2012-03-08T11:33:53Z</time>
      </trkpt>
      <trkpt lat="43.68132" lon="6.75556">
        <ele>381.78</ele>
        <time>2012-03-08T11:34:18Z</time>
      </trkpt>
      <trkpt lat="43.68129" lon="6.75562">
        <ele>381.78</ele>
        <time>2012-03-08T11:34:37Z</time>
      </trkpt>
      <trkpt lat="43.6813" lon="6.7558">
        <ele>378.42</ele>
        <time>2012-03-08T11:35:02Z</time>
      </trkpt>
      <trkpt lat="43.68129" lon="6.75583">
        <ele>378.9</ele>
        <time>2012-03-08T11:35:05Z</time>
      </trkpt>
      <trkpt lat="43.68125" lon="6.75588">
        <ele>377.94</ele>
        <time>2012-03-08T11:35:25Z</time>
      </trkpt>
      <trkpt lat="43.68126" lon="6.75599">
        <ele>377.94</ele>
        <time>2012-03-08T11:35:44Z</time>
      </trkpt>
      <trkpt lat="43.68118" lon="6.75607">
        <ele>378.9</ele>
        <time>2012-03-08T11:36:09Z</time>
      </trkpt>
      <trkpt lat="43.68107" lon="6.75619">
        <ele>381.78</ele>
        <time>2012-03-08T11:36:30Z</time>
      </trkpt>
      <trkpt lat="43.681" lon="6.75636">
        <ele>383.22</ele>
        <time>2012-03-08T11:36:51Z</time>
      </trkpt>
      <trkpt lat="43.68095" lon="6.7565">
        <ele>387.07</ele>
        <time>2012-03-08T11:37:12Z</time>
      </trkpt>
      <trkpt lat="43.68087" lon="6.75655">
        <ele>388.99</ele>
        <time>2012-03-08T11:37:35Z</time>
      </trkpt>
      <trkpt lat="43.68086" lon="6.75657">
        <ele>394.28</ele>
        <time>2012-03-08T11:37:54Z</time>
      </trkpt>
      <trkpt lat="43.68083" lon="6.75668">
        <ele>396.2</ele>
        <time>2012-03-08T11:38:14Z</time>
      </trkpt>
      <trkpt lat="43.68079" lon="6.7568">
        <ele>398.12</ele>
        <time>2012-03-08T11:38:33Z</time>
      </trkpt>
      <trkpt lat="43.68082" lon="6.7569">
        <ele>398.12</ele>
        <time>2012-03-08T11:38:54Z</time>
      </trkpt>
      <trkpt lat="43.68087" lon="6.75702">
        <ele>400.05</ele>
        <time>2012-03-08T11:39:12Z</time>
      </trkpt>
      <trkpt lat="43.68083" lon="6.75707">
        <ele>401.49</ele>
        <time>2012-03-08T11:39:31Z</time>
      </trkpt>
      <trkpt lat="43.68082" lon="6.7572">
        <ele>403.41</ele>
        <time>2012-03-08T11:39:52Z</time>
      </trkpt>
      <trkpt lat="43.68078" lon="6.75731">
        <ele>406.29</ele>
        <time>2012-03-08T11:40:13Z</time>
      </trkpt>
      <trkpt lat="43.68071" lon="6.75738">
        <ele>410.62</ele>
        <time>2012-03-08T11:40:35Z</time>
      </trkpt>
      <trkpt lat="43.68066" lon="6.75741">
        <ele>412.06</ele>
        <time>2012-03-08T11:40:59Z</time>
      </trkpt>
      <trkpt lat="43.68068" lon="6.75726">
        <ele>414.95</ele>
        <time>2012-03-08T11:41:21Z</time>
      </trkpt>
      <trkpt lat="43.68066" lon="6.75712">
        <ele>417.35</ele>
        <time>2012-03-08T11:41:39Z</time>
      </trkpt>
      <trkpt lat="43.68066" lon="6.75704">
        <ele>419.27</ele>
        <time>2012-03-08T11:41:55Z</time>
      </trkpt>
      <trkpt lat="43.68062" lon="6.75694">
        <ele>421.68</ele>
        <time>2012-03-08T11:42:17Z</time>
      </trkpt>
      <trkpt lat="43.68056" lon="6.75685">
        <ele>424.08</ele>
        <time>2012-03-08T11:42:35Z</time>
      </trkpt>
      <trkpt lat="43.68046" lon="6.75675">
        <ele>427.44</ele>
        <time>2012-03-08T11:42:54Z</time>
      </trkpt>
      <trkpt lat="43.68039" lon="6.75668">
        <ele>431.29</ele>
        <time>2012-03-08T11:43:17Z</time>
      </trkpt>
      <trkpt lat="43.6804" lon="6.75666">
        <ele>431.29</ele>
        <time>2012-03-08T11:43:20Z</time>
      </trkpt>
      <trkpt lat="43.68042" lon="6.75653">
        <ele>435.13</ele>
        <time>2012-03-08T11:43:33Z</time>
      </trkpt>
      <trkpt lat="43.68043" lon="6.75636">
        <ele>437.54</ele>
        <time>2012-03-08T11:43:51Z</time>
      </trkpt>
      <trkpt lat="43.68046" lon="6.75625">
        <ele>435.61</ele>
        <time>2012-03-08T11:44:05Z</time>
      </trkpt>
      <trkpt lat="43.68041" lon="6.75608">
        <ele>432.73</ele>
        <time>2012-03-08T11:44:22Z</time>
      </trkpt>
      <trkpt lat="43.68035" lon="6.7563">
        <ele>428.4</ele>
        <time>2012-03-08T11:44:42Z</time>
      </trkpt>
      <trkpt lat="43.68036" lon="6.75634">
        <ele>428.89</ele>
        <time>2012-03-08T11:45:02Z</time>
      </trkpt>
      <trkpt lat="43.68031" lon="6.75631">
        <ele>432.73</ele>
        <time>2012-03-08T11:45:23Z</time>
      </trkpt>
      <trkpt lat="43.6802" lon="6.75621">
        <ele>438.98</ele>
        <time>2012-03-08T11:45:42Z</time>
      </trkpt>
      <trkpt lat="43.6801" lon="6.75628">
        <ele>440.9</ele>
        <time>2012-03-08T11:46:04Z</time>
      </trkpt>
      <trkpt lat="43.68002" lon="6.75638">
        <ele>442.34</ele>
        <time>2012-03-08T11:46:26Z</time>
      </trkpt>
      <trkpt lat="43.67994" lon="6.75648">
        <ele>446.67</ele>
        <time>2012-03-08T11:46:50Z</time>
      </trkpt>
      <trkpt lat="43.67984" lon="6.75652">
        <ele>447.63</ele>
        <time>2012-03-08T11:47:11Z</time>
      </trkpt>
      <trkpt lat="43.67976" lon="6.75654">
        <ele>448.59</ele>
        <time>2012-03-08T11:47:31Z</time>
      </trkpt>
      <trkpt lat="43.67972" lon="6.75657">
        <ele>450.03</ele>
        <time>2012-03-08T11:47:53Z</time>
      </trkpt>
      <trkpt lat="43.67963" lon="6.75647">
        <ele>453.4</ele>
        <time>2012-03-08T11:48:14Z</time>
      </trkpt>
      <trkpt lat="43.67958" lon="6.75642">
        <ele>456.76</ele>
        <time>2012-03-08T11:48:30Z</time>
      </trkpt>
      <trkpt lat="43.67948" lon="6.75638">
        <ele>459.17</ele>
        <time>2012-03-08T11:48:52Z</time>
      </trkpt>
      <trkpt lat="43.67944" lon="6.75636">
        <ele>459.65</ele>
        <time>2012-03-08T11:49:11Z</time>
      </trkpt>
      <trkpt lat="43.67937" lon="6.75638">
        <ele>462.53</ele>
        <time>2012-03-08T11:49:38Z</time>
      </trkpt>
      <trkpt lat="43.67938" lon="6.7564">
        <ele>463.97</ele>
        <time>2012-03-08T11:49:50Z</time>
      </trkpt>
      <trkpt lat="43.67938" lon="6.75639">
        <ele>464.45</ele>
        <time>2012-03-08T11:50:06Z</time>
      </trkpt>
      <trkpt lat="43.67938" lon="6.75639">
        <ele>464.93</ele>
        <time>2012-03-08T11:50:47Z</time>
      </trkpt>
      <trkpt lat="43.67938" lon="6.75638">
        <ele>463.01</ele>
        <time>2012-03-08T11:51:42Z</time>
      </trkpt>
      <trkpt lat="43.67937" lon="6.75639">
        <ele>463.49</ele>
        <time>2012-03-08T11:52:31Z</time>
      </trkpt>
      <trkpt lat="43.67937" lon="6.75639">
        <ele>463.97</ele>
        <time>2012-03-08T11:53:22Z</time>
      </trkpt>
      <trkpt lat="43.67937" lon="6.75639">
        <ele>464.93</ele>
        <time>2012-03-08T11:54:14Z</time>
      </trkpt>
      <trkpt lat="43.67937" lon="6.75638">
        <ele>465.9</ele>
        <time>2012-03-08T11:55:07Z</time>
      </trkpt>
      <trkpt lat="43.67938" lon="6.75639">
        <ele>465.9</ele>
        <time>2012-03-08T11:55:57Z</time>
      </trkpt>
      <trkpt lat="43.67938" lon="6.75639">
        <ele>466.38</ele>
        <time>2012-03-08T11:56:46Z</time>
      </trkpt>
      <trkpt lat="43.67937" lon="6.75639">
        <ele>466.38</ele>
        <time>2012-03-08T11:57:29Z</time>
      </trkpt>
      <trkpt lat="43.67937" lon="6.75639">
        <ele>466.38</ele>
        <time>2012-03-08T11:58:16Z</time>
      </trkpt>
      <trkpt lat="43.67938" lon="6.75639">
        <ele>465.9</ele>
        <time>2012-03-08T11:59:05Z</time>
      </trkpt>
      <trkpt lat="43.67938" lon="6.75639">
        <ele>465.9</ele>
        <time>2012-03-08T11:59:51Z</time>
      </trkpt>
      <trkpt lat="43.67938" lon="6.75639">
        <ele>465.42</ele>
        <time>2012-03-08T12:00:43Z</time>
      </trkpt>
      <trkpt lat="43.67939" lon="6.75639">
        <ele>465.42</ele>
        <time>2012-03-08T12:01:30Z</time>
      </trkpt>
      <trkpt lat="43.6794" lon="6.7564">
        <ele>465.9</ele>
        <time>2012-03-08T12:02:20Z</time>
      </trkpt>
      <trkpt lat="43.6794" lon="6.7564">
        <ele>465.42</ele>
        <time>2012-03-08T12:03:14Z</time>
      </trkpt>
      <trkpt lat="43.67942" lon="6.7564">
        <ele>465.9</ele>
        <time>2012-03-08T12:04:05Z</time>
      </trkpt>
      <trkpt lat="43.67941" lon="6.7564">
        <ele>465.9</ele>
        <time>2012-03-08T12:04:52Z</time>
      </trkpt>
      <trkpt lat="43.6794" lon="6.75639">
        <ele>466.38</ele>
        <time>2012-03-08T12:05:35Z</time>
      </trkpt>
      <trkpt lat="43.6794" lon="6.75639">
        <ele>466.38</ele>
        <time>2012-03-08T12:06:25Z</time>
      </trkpt>
      <trkpt lat="43.6794" lon="6.7564">
        <ele>466.38</ele>
        <time>2012-03-08T12:07:15Z</time>
      </trkpt>
      <trkpt lat="43.6794" lon="6.75639">
        <ele>466.38</ele>
        <time>2012-03-08T12:08:10Z</time>
      </trkpt>
      <trkpt lat="43.6794" lon="6.7564">
        <ele>466.86</ele>
        <time>2012-03-08T12:08:54Z</time>
      </trkpt>
      <trkpt lat="43.6794" lon="6.7564">
        <ele>466.86</ele>
        <time>2012-03-08T12:09:42Z</time>
      </trkpt>
      <trkpt lat="43.67939" lon="6.7564">
        <ele>466.38</ele>
        <time>2012-03-08T12:10:27Z</time>
      </trkpt>
      <trkpt lat="43.67939" lon="6.7564">
        <ele>466.38</ele>
        <time>2012-03-08T12:11:14Z</time>
      </trkpt>
      <trkpt lat="43.67939" lon="6.7564">
        <ele>466.86</ele>
        <time>2012-03-08T12:12:01Z</time>
      </trkpt>
      <trkpt lat="43.67938" lon="6.7564">
        <ele>466.86</ele>
        <time>2012-03-08T12:12:51Z</time>
      </trkpt>
      <trkpt lat="43.67938" lon="6.7564">
        <ele>466.86</ele>
        <time>2012-03-08T12:13:40Z</time>
      </trkpt>
      <trkpt lat="43.67938" lon="6.7564">
        <ele>465.9</ele>
        <time>2012-03-08T12:14:28Z</time>
      </trkpt>
      <trkpt lat="43.67938" lon="6.75639">
        <ele>465.9</ele>
        <time>2012-03-08T12:15:16Z</time>
      </trkpt>
      <trkpt lat="43.67937" lon="6.75639">
        <ele>466.86</ele>
        <time>2012-03-08T12:16:02Z</time>
      </trkpt>
      <trkpt lat="43.67938" lon="6.75642">
        <ele>467.34</ele>
        <time>2012-03-08T12:16:37Z</time>
      </trkpt>
      <trkpt lat="43.67938" lon="6.75644">
        <ele>469.74</ele>
        <time>2012-03-08T12:16:55Z</time>
      </trkpt>
      <trkpt lat="43.6794" lon="6.75644">
        <ele>469.26</ele>
        <time>2012-03-08T12:17:39Z</time>
      </trkpt>
      <trkpt lat="43.67936" lon="6.7565">
        <ele>466.38</ele>
        <time>2012-03-08T12:18:00Z</time>
      </trkpt>
      <trkpt lat="43.67933" lon="6.75657">
        <ele>462.53</ele>
        <time>2012-03-08T12:21:47Z</time>
      </trkpt>
      <trkpt lat="43.67935" lon="6.75656">
        <ele>461.57</ele>
        <time>2012-03-08T12:21:53Z</time>
      </trkpt>
      <trkpt lat="43.67938" lon="6.75661">
        <ele>460.13</ele>
        <time>2012-03-08T12:22:00Z</time>
      </trkpt>
      <trkpt lat="43.67939" lon="6.75662">
        <ele>458.69</ele>
        <time>2012-03-08T12:22:20Z</time>
      </trkpt>
      <trkpt lat="43.67939" lon="6.75677">
        <ele>458.21</ele>
        <time>2012-03-08T12:22:40Z</time>
      </trkpt>
      <trkpt lat="43.67936" lon="6.75706">
        <ele>456.76</ele>
        <time>2012-03-08T12:23:04Z</time>
      </trkpt>
      <trkpt lat="43.67928" lon="6.75725">
        <ele>456.76</ele>
        <time>2012-03-08T12:23:23Z</time>
      </trkpt>
      <trkpt lat="43.67925" lon="6.75732">
        <ele>456.76</ele>
        <time>2012-03-08T12:23:30Z</time>
      </trkpt>
      <trkpt lat="43.67917" lon="6.75749">
        <ele>454.84</ele>
        <time>2012-03-08T12:23:49Z</time>
      </trkpt>
      <trkpt lat="43.67915" lon="6.75755">
        <ele>453.88</ele>
        <time>2012-03-08T12:24:08Z</time>
      </trkpt>
      <trkpt lat="43.67913" lon="6.75758">
        <ele>451.48</ele>
        <time>2012-03-08T12:24:42Z</time>
      </trkpt>
      <trkpt lat="43.67913" lon="6.75761">
        <ele>452.44</ele>
        <time>2012-03-08T12:25:00Z</time>
      </trkpt>
      <trkpt lat="43.67913" lon="6.75766">
        <ele>453.88</ele>
        <time>2012-03-08T12:25:40Z</time>
      </trkpt>
      <trkpt lat="43.679" lon="6.75777">
        <ele>452.44</ele>
        <time>2012-03-08T12:25:57Z</time>
      </trkpt>
      <trkpt lat="43.67887" lon="6.75792">
        <ele>451</ele>
        <time>2012-03-08T12:26:16Z</time>
      </trkpt>
      <trkpt lat="43.67876" lon="6.75801">
        <ele>450.03</ele>
        <time>2012-03-08T12:26:34Z</time>
      </trkpt>
      <trkpt lat="43.67862" lon="6.75806">
        <ele>448.59</ele>
        <time>2012-03-08T12:26:52Z</time>
      </trkpt>
      <trkpt lat="43.67847" lon="6.75807">
        <ele>446.67</ele>
        <time>2012-03-08T12:27:10Z</time>
      </trkpt>
      <trkpt lat="43.6783" lon="6.75811">
        <ele>445.71</ele>
        <time>2012-03-08T12:27:31Z</time>
      </trkpt>
      <trkpt lat="43.67829" lon="6.75811">
        <ele>445.71</ele>
        <time>2012-03-08T12:27:33Z</time>
      </trkpt>
      <trkpt lat="43.67824" lon="6.75812">
        <ele>445.23</ele>
        <time>2012-03-08T12:27:44Z</time>
      </trkpt>
      <trkpt lat="43.67812" lon="6.75814">
        <ele>445.71</ele>
        <time>2012-03-08T12:28:02Z</time>
      </trkpt>
      <trkpt lat="43.67799" lon="6.7582">
        <ele>444.75</ele>
        <time>2012-03-08T12:28:20Z</time>
      </trkpt>
      <trkpt lat="43.67783" lon="6.75822">
        <ele>440.42</ele>
        <time>2012-03-08T12:28:39Z</time>
      </trkpt>
      <trkpt lat="43.67768" lon="6.75828">
        <ele>438.02</ele>
        <time>2012-03-08T12:28:58Z</time>
      </trkpt>
      <trkpt lat="43.67757" lon="6.75831">
        <ele>432.25</ele>
        <time>2012-03-08T12:29:14Z</time>
      </trkpt>
      <trkpt lat="43.67756" lon="6.75835">
        <ele>431.77</ele>
        <time>2012-03-08T12:29:18Z</time>
      </trkpt>
      <trkpt lat="43.67767" lon="6.75843">
        <ele>429.37</ele>
        <time>2012-03-08T12:29:31Z</time>
      </trkpt>
      <trkpt lat="43.67779" lon="6.7585">
        <ele>427.92</ele>
        <time>2012-03-08T12:29:48Z</time>
      </trkpt>
      <trkpt lat="43.67792" lon="6.75858">
        <ele>425.52</ele>
        <time>2012-03-08T12:30:07Z</time>
      </trkpt>
      <trkpt lat="43.67805" lon="6.75862">
        <ele>426.48</ele>
        <time>2012-03-08T12:30:27Z</time>
      </trkpt>
      <trkpt lat="43.6781" lon="6.7586">
        <ele>425.52</ele>
        <time>2012-03-08T12:30:33Z</time>
      </trkpt>
      <trkpt lat="43.67812" lon="6.75866">
        <ele>423.12</ele>
        <time>2012-03-08T12:30:53Z</time>
      </trkpt>
      <trkpt lat="43.67798" lon="6.75871">
        <ele>423.6</ele>
        <time>2012-03-08T12:31:12Z</time>
      </trkpt>
      <trkpt lat="43.67784" lon="6.75879">
        <ele>421.19</ele>
        <time>2012-03-08T12:31:33Z</time>
      </trkpt>
      <trkpt lat="43.67771" lon="6.75886">
        <ele>420.23</ele>
        <time>2012-03-08T12:31:52Z</time>
      </trkpt>
      <trkpt lat="43.6776" lon="6.75888">
        <ele>417.83</ele>
        <time>2012-03-08T12:32:09Z</time>
      </trkpt>
      <trkpt lat="43.67744" lon="6.7589">
        <ele>415.91</ele>
        <time>2012-03-08T12:32:31Z</time>
      </trkpt>
      <trkpt lat="43.67743" lon="6.75902">
        <ele>411.1</ele>
        <time>2012-03-08T12:32:50Z</time>
      </trkpt>
      <trkpt lat="43.67732" lon="6.75902">
        <ele>407.26</ele>
        <time>2012-03-08T12:33:12Z</time>
      </trkpt>
      <trkpt lat="43.67726" lon="6.75904">
        <ele>405.81</ele>
        <time>2012-03-08T12:33:30Z</time>
      </trkpt>
      <trkpt lat="43.67725" lon="6.75906">
        <ele>407.26</ele>
        <time>2012-03-08T12:34:14Z</time>
      </trkpt>
      <trkpt lat="43.67717" lon="6.75905">
        <ele>403.89</ele>
        <time>2012-03-08T12:34:35Z</time>
      </trkpt>
      <trkpt lat="43.67706" lon="6.759">
        <ele>399.08</ele>
        <time>2012-03-08T12:34:53Z</time>
      </trkpt>
      <trkpt lat="43.67699" lon="6.75901">
        <ele>396.68</ele>
        <time>2012-03-08T12:35:11Z</time>
      </trkpt>
      <trkpt lat="43.67698" lon="6.759">
        <ele>396.2</ele>
        <time>2012-03-08T12:35:13Z</time>
      </trkpt>
      <trkpt lat="43.67693" lon="6.75897">
        <ele>395.24</ele>
        <time>2012-03-08T12:35:19Z</time>
      </trkpt>
      <trkpt lat="43.67691" lon="6.75895">
        <ele>394.76</ele>
        <time>2012-03-08T12:35:21Z</time>
      </trkpt>
      <trkpt lat="43.6768" lon="6.75887">
        <ele>395.72</ele>
        <time>2012-03-08T12:35:29Z</time>
      </trkpt>
      <trkpt lat="43.67661" lon="6.75882">
        <ele>388.99</ele>
        <time>2012-03-08T12:35:50Z</time>
      </trkpt>
      <trkpt lat="43.67653" lon="6.75884">
        <ele>387.07</ele>
        <time>2012-03-08T12:35:56Z</time>
      </trkpt>
      <trkpt lat="43.67633" lon="6.75881">
        <ele>390.43</ele>
        <time>2012-03-08T12:36:12Z</time>
      </trkpt>
      <trkpt lat="43.6763" lon="6.75882">
        <ele>390.43</ele>
        <time>2012-03-08T12:36:14Z</time>
      </trkpt>
      <trkpt lat="43.67615" lon="6.75882">
        <ele>389.95</ele>
        <time>2012-03-08T12:36:27Z</time>
      </trkpt>
      <trkpt lat="43.67607" lon="6.75879">
        <ele>386.59</ele>
        <time>2012-03-08T12:36:35Z</time>
      </trkpt>
      <trkpt lat="43.67605" lon="6.75879">
        <ele>386.11</ele>
        <time>2012-03-08T12:36:37Z</time>
      </trkpt>
      <trkpt lat="43.67592" lon="6.75879">
        <ele>382.74</ele>
        <time>2012-03-08T12:36:49Z</time>
      </trkpt>
      <trkpt lat="43.67574" lon="6.75877">
        <ele>377.94</ele>
        <time>2012-03-08T12:37:08Z</time>
      </trkpt>
      <trkpt lat="43.67564" lon="6.75874">
        <ele>379.38</ele>
        <time>2012-03-08T12:37:16Z</time>
      </trkpt>
      <trkpt lat="43.67562" lon="6.75877">
        <ele>380.82</ele>
        <time>2012-03-08T12:37:34Z</time>
      </trkpt>
      <trkpt lat="43.67571" lon="6.75891">
        <ele>375.05</ele>
        <time>2012-03-08T12:37:58Z</time>
      </trkpt>
      <trkpt lat="43.67566" lon="6.75894">
        <ele>372.65</ele>
        <time>2012-03-08T12:38:15Z</time>
      </trkpt>
      <trkpt lat="43.67556" lon="6.75886">
        <ele>372.65</ele>
        <time>2012-03-08T12:38:32Z</time>
      </trkpt>
      <trkpt lat="43.67544" lon="6.75877">
        <ele>370.73</ele>
        <time>2012-03-08T12:38:50Z</time>
      </trkpt>
      <trkpt lat="43.67543" lon="6.75879">
        <ele>369.76</ele>
        <time>2012-03-08T12:39:15Z</time>
      </trkpt>
      <trkpt lat="43.67542" lon="6.75878">
        <ele>371.69</ele>
        <time>2012-03-08T12:39:48Z</time>
      </trkpt>
      <trkpt lat="43.67542" lon="6.75878">
        <ele>372.17</ele>
        <time>2012-03-08T12:40:15Z</time>
      </trkpt>
      <trkpt lat="43.67542" lon="6.75879">
        <ele>372.17</ele>
        <time>2012-03-08T12:40:41Z</time>
      </trkpt>
      <trkpt lat="43.67542" lon="6.75878">
        <ele>370.73</ele>
        <time>2012-03-08T12:41:16Z</time>
      </trkpt>
      <trkpt lat="43.67544" lon="6.75889">
        <ele>369.76</ele>
        <time>2012-03-08T12:41:33Z</time>
      </trkpt>
      <trkpt lat="43.67546" lon="6.75902">
        <ele>369.28</ele>
        <time>2012-03-08T12:41:48Z</time>
      </trkpt>
      <trkpt lat="43.67547" lon="6.75919">
        <ele>367.84</ele>
        <time>2012-03-08T12:42:02Z</time>
      </trkpt>
      <trkpt lat="43.67562" lon="6.75928">
        <ele>363.52</ele>
        <time>2012-03-08T12:42:19Z</time>
      </trkpt>
      <trkpt lat="43.67574" lon="6.75925">
        <ele>363.52</ele>
        <time>2012-03-08T12:42:37Z</time>
      </trkpt>
      <trkpt lat="43.67572" lon="6.75928">
        <ele>361.11</ele>
        <time>2012-03-08T12:42:54Z</time>
      </trkpt>
      <trkpt lat="43.67563" lon="6.7594">
        <ele>357.27</ele>
        <time>2012-03-08T12:43:12Z</time>
      </trkpt>
      <trkpt lat="43.67552" lon="6.75945">
        <ele>355.83</ele>
        <time>2012-03-08T12:43:30Z</time>
      </trkpt>
      <trkpt lat="43.67549" lon="6.75946">
        <ele>354.86</ele>
        <time>2012-03-08T12:43:35Z</time>
      </trkpt>
      <trkpt lat="43.67535" lon="6.75944">
        <ele>352.46</ele>
        <time>2012-03-08T12:43:54Z</time>
      </trkpt>
      <trkpt lat="43.6753" lon="6.75937">
        <ele>351.5</ele>
        <time>2012-03-08T12:44:08Z</time>
      </trkpt>
      <trkpt lat="43.67528" lon="6.75932">
        <ele>351.5</ele>
        <time>2012-03-08T12:44:12Z</time>
      </trkpt>
      <trkpt lat="43.67522" lon="6.75919">
        <ele>351.98</ele>
        <time>2012-03-08T12:44:26Z</time>
      </trkpt>
      <trkpt lat="43.67519" lon="6.75928">
        <ele>352.46</ele>
        <time>2012-03-08T12:44:34Z</time>
      </trkpt>
      <trkpt lat="43.67522" lon="6.75932">
        <ele>351.5</ele>
        <time>2012-03-08T12:44:38Z</time>
      </trkpt>
      <trkpt lat="43.67523" lon="6.75943">
        <ele>348.62</ele>
        <time>2012-03-08T12:44:58Z</time>
      </trkpt>
      <trkpt lat="43.6752" lon="6.75946">
        <ele>347.17</ele>
        <time>2012-03-08T12:45:16Z</time>
      </trkpt>
      <trkpt lat="43.67519" lon="6.75946">
        <ele>346.69</ele>
        <time>2012-03-08T12:45:21Z</time>
      </trkpt>
      <trkpt lat="43.6752" lon="6.75961">
        <ele>342.85</ele>
        <time>2012-03-08T12:45:38Z</time>
      </trkpt>
      <trkpt lat="43.67515" lon="6.7596">
        <ele>344.77</ele>
        <time>2012-03-08T12:45:58Z</time>
      </trkpt>
      <trkpt lat="43.67507" lon="6.75948">
        <ele>344.29</ele>
        <time>2012-03-08T12:46:14Z</time>
      </trkpt>
      <trkpt lat="43.67507" lon="6.75947">
        <ele>344.29</ele>
        <time>2012-03-08T12:46:17Z</time>
      </trkpt>
      <trkpt lat="43.67501" lon="6.75936">
        <ele>343.81</ele>
        <time>2012-03-08T12:46:35Z</time>
      </trkpt>
      <trkpt lat="43.67498" lon="6.75939">
        <ele>339.48</ele>
        <time>2012-03-08T12:46:52Z</time>
      </trkpt>
      <trkpt lat="43.67499" lon="6.75949">
        <ele>336.6</ele>
        <time>2012-03-08T12:47:10Z</time>
      </trkpt>
      <trkpt lat="43.67499" lon="6.75956">
        <ele>336.6</ele>
        <time>2012-03-08T12:47:36Z</time>
      </trkpt>
      <trkpt lat="43.67498" lon="6.75963">
        <ele>336.6</ele>
        <time>2012-03-08T12:47:54Z</time>
      </trkpt>
      <trkpt lat="43.67495" lon="6.7596">
        <ele>333.71</ele>
        <time>2012-03-08T12:48:11Z</time>
      </trkpt>
      <trkpt lat="43.67488" lon="6.75948">
        <ele>330.35</ele>
        <time>2012-03-08T12:48:29Z</time>
      </trkpt>
      <trkpt lat="43.67484" lon="6.75936">
        <ele>326.02</ele>
        <time>2012-03-08T12:48:48Z</time>
      </trkpt>
      <trkpt lat="43.67482" lon="6.75922">
        <ele>322.18</ele>
        <time>2012-03-08T12:49:04Z</time>
      </trkpt>
      <trkpt lat="43.67476" lon="6.75908">
        <ele>322.18</ele>
        <time>2012-03-08T12:49:22Z</time>
      </trkpt>
      <trkpt lat="43.67469" lon="6.75894">
        <ele>320.74</ele>
        <time>2012-03-08T12:49:39Z</time>
      </trkpt>
      <trkpt lat="43.67463" lon="6.75885">
        <ele>317.37</ele>
        <time>2012-03-08T12:49:55Z</time>
      </trkpt>
      <trkpt lat="43.67459" lon="6.75882">
        <ele>316.41</ele>
        <time>2012-03-08T12:50:20Z</time>
      </trkpt>
      <trkpt lat="43.67451" lon="6.75872">
        <ele>314.49</ele>
        <time>2012-03-08T12:50:35Z</time>
      </trkpt>
      <trkpt lat="43.6744" lon="6.75855">
        <ele>312.57</ele>
        <time>2012-03-08T12:50:56Z</time>
      </trkpt>
      <trkpt lat="43.67428" lon="6.75847">
        <ele>310.16</ele>
        <time>2012-03-08T12:51:13Z</time>
      </trkpt>
      <trkpt lat="43.6742" lon="6.75844">
        <ele>312.09</ele>
        <time>2012-03-08T12:51:33Z</time>
      </trkpt>
      <trkpt lat="43.67416" lon="6.75842">
        <ele>311.12</ele>
        <time>2012-03-08T12:51:49Z</time>
      </trkpt>
      <trkpt lat="43.67404" lon="6.75842">
        <ele>307.28</ele>
        <time>2012-03-08T12:52:08Z</time>
      </trkpt>
      <trkpt lat="43.67399" lon="6.7585">
        <ele>306.32</ele>
        <time>2012-03-08T12:52:25Z</time>
      </trkpt>
      <trkpt lat="43.67402" lon="6.75856">
        <ele>304.88</ele>
        <time>2012-03-08T12:52:49Z</time>
      </trkpt>
      <trkpt lat="43.67406" lon="6.75859">
        <ele>302.47</ele>
        <time>2012-03-08T12:53:08Z</time>
      </trkpt>
      <trkpt lat="43.674" lon="6.75862">
        <ele>298.63</ele>
        <time>2012-03-08T12:53:24Z</time>
      </trkpt>
      <trkpt lat="43.67409" lon="6.75867">
        <ele>302.47</ele>
        <time>2012-03-08T12:53:40Z</time>
      </trkpt>
      <trkpt lat="43.67418" lon="6.75874">
        <ele>306.32</ele>
        <time>2012-03-08T12:53:55Z</time>
      </trkpt>
      <trkpt lat="43.67422" lon="6.75881">
        <ele>304.39</ele>
        <time>2012-03-08T12:54:17Z</time>
      </trkpt>
      <trkpt lat="43.67428" lon="6.75892">
        <ele>301.51</ele>
        <time>2012-03-08T12:54:38Z</time>
      </trkpt>
      <trkpt lat="43.67429" lon="6.75905">
        <ele>298.15</ele>
        <time>2012-03-08T12:54:53Z</time>
      </trkpt>
      <trkpt lat="43.67436" lon="6.75916">
        <ele>293.34</ele>
        <time>2012-03-08T12:55:10Z</time>
      </trkpt>
      <trkpt lat="43.67438" lon="6.75917">
        <ele>293.34</ele>
        <time>2012-03-08T12:55:34Z</time>
      </trkpt>
      <trkpt lat="43.67439" lon="6.75919">
        <ele>293.34</ele>
        <time>2012-03-08T12:56:03Z</time>
      </trkpt>
      <trkpt lat="43.67442" lon="6.75928">
        <ele>291.9</ele>
        <time>2012-03-08T12:56:27Z</time>
      </trkpt>
      <trkpt lat="43.67446" lon="6.75942">
        <ele>290.46</ele>
        <time>2012-03-08T12:56:45Z</time>
      </trkpt>
      <trkpt lat="43.6745" lon="6.7596">
        <ele>286.13</ele>
        <time>2012-03-08T12:57:08Z</time>
      </trkpt>
      <trkpt lat="43.6745" lon="6.75966">
        <ele>286.61</ele>
        <time>2012-03-08T12:57:21Z</time>
      </trkpt>
      <trkpt lat="43.67451" lon="6.7598">
        <ele>287.09</ele>
        <time>2012-03-08T12:57:33Z</time>
      </trkpt>
      <trkpt lat="43.67452" lon="6.75983">
        <ele>287.09</ele>
        <time>2012-03-08T12:57:35Z</time>
      </trkpt>
      <trkpt lat="43.67457" lon="6.75999">
        <ele>285.17</ele>
        <time>2012-03-08T12:57:50Z</time>
      </trkpt>
      <trkpt lat="43.67462" lon="6.76013">
        <ele>281.8</ele>
        <time>2012-03-08T12:58:07Z</time>
      </trkpt>
      <trkpt lat="43.67462" lon="6.76014">
        <ele>281.32</ele>
        <time>2012-03-08T12:58:08Z</time>
      </trkpt>
      <trkpt lat="43.67466" lon="6.76021">
        <ele>279.4</ele>
        <time>2012-03-08T12:58:16Z</time>
      </trkpt>
      <trkpt lat="43.6747" lon="6.76036">
        <ele>278.92</ele>
        <time>2012-03-08T12:58:33Z</time>
      </trkpt>
      <trkpt lat="43.67475" lon="6.76052">
        <ele>277.48</ele>
        <time>2012-03-08T12:58:52Z</time>
      </trkpt>
      <trkpt lat="43.6748" lon="6.76065">
        <ele>278.92</ele>
        <time>2012-03-08T12:59:08Z</time>
      </trkpt>
      <trkpt lat="43.6748" lon="6.76074">
        <ele>276.52</ele>
        <time>2012-03-08T12:59:35Z</time>
      </trkpt>
      <trkpt lat="43.67476" lon="6.76074">
        <ele>273.15</ele>
        <time>2012-03-08T12:59:46Z</time>
      </trkpt>
      <trkpt lat="43.6747" lon="6.76068">
        <ele>272.19</ele>
        <time>2012-03-08T13:00:05Z</time>
      </trkpt>
      <trkpt lat="43.67464" lon="6.76059">
        <ele>271.23</ele>
        <time>2012-03-08T13:00:22Z</time>
      </trkpt>
      <trkpt lat="43.67457" lon="6.7605">
        <ele>270.75</ele>
        <time>2012-03-08T13:00:43Z</time>
      </trkpt>
      <trkpt lat="43.67452" lon="6.7605">
        <ele>270.27</ele>
        <time>2012-03-08T13:01:05Z</time>
      </trkpt>
      <trkpt lat="43.67456" lon="6.76062">
        <ele>266.9</ele>
        <time>2012-03-08T13:01:23Z</time>
      </trkpt>
      <trkpt lat="43.67455" lon="6.76067">
        <ele>265.46</ele>
        <time>2012-03-08T13:01:48Z</time>
      </trkpt>
      <trkpt lat="43.67458" lon="6.76078">
        <ele>262.58</ele>
        <time>2012-03-08T13:02:05Z</time>
      </trkpt>
      <trkpt lat="43.67459" lon="6.76094">
        <ele>260.65</ele>
        <time>2012-03-08T13:02:22Z</time>
      </trkpt>
      <trkpt lat="43.67456" lon="6.76102">
        <ele>260.65</ele>
        <time>2012-03-08T13:02:36Z</time>
      </trkpt>
      <trkpt lat="43.67452" lon="6.76108">
        <ele>262.58</ele>
        <time>2012-03-08T13:02:56Z</time>
      </trkpt>
      <trkpt lat="43.67446" lon="6.76103">
        <ele>265.46</ele>
        <time>2012-03-08T13:03:15Z</time>
      </trkpt>
      <trkpt lat="43.67437" lon="6.76099">
        <ele>267.86</ele>
        <time>2012-03-08T13:03:34Z</time>
      </trkpt>
      <trkpt lat="43.67436" lon="6.76098">
        <ele>268.35</ele>
        <time>2012-03-08T13:03:52Z</time>
      </trkpt>
      <trkpt lat="43.67431" lon="6.76096">
        <ele>269.79</ele>
        <time>2012-03-08T13:04:13Z</time>
      </trkpt>
      <trkpt lat="43.67426" lon="6.76095">
        <ele>271.71</ele>
        <time>2012-03-08T13:04:32Z</time>
      </trkpt>
      <trkpt lat="43.67425" lon="6.76096">
        <ele>271.71</ele>
        <time>2012-03-08T13:04:33Z</time>
      </trkpt>
      <trkpt lat="43.6742" lon="6.76093">
        <ele>269.31</ele>
        <time>2012-03-08T13:04:54Z</time>
      </trkpt>
      <trkpt lat="43.67414" lon="6.7609">
        <ele>268.35</ele>
        <time>2012-03-08T13:05:16Z</time>
      </trkpt>
      <trkpt lat="43.67411" lon="6.76083">
        <ele>268.35</ele>
        <time>2012-03-08T13:05:35Z</time>
      </trkpt>
      <trkpt lat="43.67409" lon="6.76076">
        <ele>269.79</ele>
        <time>2012-03-08T13:05:52Z</time>
      </trkpt>
      <trkpt lat="43.67408" lon="6.76073">
        <ele>268.83</ele>
        <time>2012-03-08T13:06:11Z</time>
      </trkpt>
      <trkpt lat="43.67406" lon="6.76069">
        <ele>266.9</ele>
        <time>2012-03-08T13:06:29Z</time>
      </trkpt>
      <trkpt lat="43.67404" lon="6.76064">
        <ele>265.94</ele>
        <time>2012-03-08T13:06:48Z</time>
      </trkpt>
      <trkpt lat="43.674" lon="6.76058">
        <ele>264.02</ele>
        <time>2012-03-08T13:07:04Z</time>
      </trkpt>
      <trkpt lat="43.67396" lon="6.76048">
        <ele>262.1</ele>
        <time>2012-03-08T13:07:13Z</time>
      </trkpt>
      <trkpt lat="43.67386" lon="6.76037">
        <ele>268.83</ele>
        <time>2012-03-08T13:07:29Z</time>
      </trkpt>
      <trkpt lat="43.67379" lon="6.76038">
        <ele>273.63</ele>
        <time>2012-03-08T13:07:44Z</time>
      </trkpt>
      <trkpt lat="43.67368" lon="6.76041">
        <ele>279.88</ele>
        <time>2012-03-08T13:08:01Z</time>
      </trkpt>
      <trkpt lat="43.67366" lon="6.76046">
        <ele>283.73</ele>
        <time>2012-03-08T13:08:17Z</time>
      </trkpt>
      <trkpt lat="43.67367" lon="6.76057">
        <ele>286.13</ele>
        <time>2012-03-08T13:08:34Z</time>
      </trkpt>
      <trkpt lat="43.67362" lon="6.76073">
        <ele>290.94</ele>
        <time>2012-03-08T13:08:56Z</time>
      </trkpt>
      <trkpt lat="43.67356" lon="6.76079">
        <ele>293.82</ele>
        <time>2012-03-08T13:09:15Z</time>
      </trkpt>
      <trkpt lat="43.67354" lon="6.76085">
        <ele>293.34</ele>
        <time>2012-03-08T13:09:31Z</time>
      </trkpt>
      <trkpt lat="43.67358" lon="6.76089">
        <ele>290.94</ele>
        <time>2012-03-08T13:09:52Z</time>
      </trkpt>
      <trkpt lat="43.67363" lon="6.76093">
        <ele>288.53</ele>
        <time>2012-03-08T13:10:12Z</time>
      </trkpt>
      <trkpt lat="43.67358" lon="6.76096">
        <ele>288.53</ele>
        <time>2012-03-08T13:10:29Z</time>
      </trkpt>
      <trkpt lat="43.6736" lon="6.761">
        <ele>288.05</ele>
        <time>2012-03-08T13:10:49Z</time>
      </trkpt>
      <trkpt lat="43.67361" lon="6.76107">
        <ele>289.49</ele>
        <time>2012-03-08T13:11:06Z</time>
      </trkpt>
      <trkpt lat="43.67359" lon="6.76107">
        <ele>292.86</ele>
        <time>2012-03-08T13:11:25Z</time>
      </trkpt>
      <trkpt lat="43.67362" lon="6.76112">
        <ele>297.18</ele>
        <time>2012-03-08T13:11:49Z</time>
      </trkpt>
      <trkpt lat="43.67368" lon="6.7612">
        <ele>295.74</ele>
        <time>2012-03-08T13:12:09Z</time>
      </trkpt>
      <trkpt lat="43.67372" lon="6.76126">
        <ele>296.7</ele>
        <time>2012-03-08T13:12:29Z</time>
      </trkpt>
      <trkpt lat="43.67371" lon="6.76136">
        <ele>297.18</ele>
        <time>2012-03-08T13:12:48Z</time>
      </trkpt>
      <trkpt lat="43.6737" lon="6.76152">
        <ele>299.11</ele>
        <time>2012-03-08T13:13:06Z</time>
      </trkpt>
      <trkpt lat="43.67369" lon="6.76166">
        <ele>300.07</ele>
        <time>2012-03-08T13:13:25Z</time>
      </trkpt>
      <trkpt lat="43.67367" lon="6.76187">
        <ele>303.43</ele>
        <time>2012-03-08T13:13:51Z</time>
      </trkpt>
      <trkpt lat="43.67366" lon="6.76198">
        <ele>305.36</ele>
        <time>2012-03-08T13:14:10Z</time>
      </trkpt>
      <trkpt lat="43.67359" lon="6.76198">
        <ele>306.8</ele>
        <time>2012-03-08T13:14:33Z</time>
      </trkpt>
      <trkpt lat="43.67352" lon="6.76185">
        <ele>316.89</ele>
        <time>2012-03-08T13:14:51Z</time>
      </trkpt>
      <trkpt lat="43.67352" lon="6.76184">
        <ele>313.53</ele>
        <time>2012-03-08T13:15:11Z</time>
      </trkpt>
      <trkpt lat="43.67352" lon="6.7618">
        <ele>314.49</ele>
        <time>2012-03-08T13:15:27Z</time>
      </trkpt>
      <trkpt lat="43.67351" lon="6.76173">
        <ele>314.97</ele>
        <time>2012-03-08T13:15:46Z</time>
      </trkpt>
      <trkpt lat="43.67348" lon="6.76162">
        <ele>316.89</ele>
        <time>2012-03-08T13:16:07Z</time>
      </trkpt>
      <trkpt lat="43.67346" lon="6.76148">
        <ele>318.33</ele>
        <time>2012-03-08T13:16:29Z</time>
      </trkpt>
      <trkpt lat="43.67341" lon="6.76137">
        <ele>317.85</ele>
        <time>2012-03-08T13:16:45Z</time>
      </trkpt>
      <trkpt lat="43.67334" lon="6.76131">
        <ele>318.81</ele>
        <time>2012-03-08T13:17:02Z</time>
      </trkpt>
      <trkpt lat="43.67329" lon="6.76126">
        <ele>321.22</ele>
        <time>2012-03-08T13:17:14Z</time>
      </trkpt>
      <trkpt lat="43.6732" lon="6.76125">
        <ele>322.18</ele>
        <time>2012-03-08T13:17:31Z</time>
      </trkpt>
      <trkpt lat="43.67316" lon="6.76128">
        <ele>323.62</ele>
        <time>2012-03-08T13:17:38Z</time>
      </trkpt>
      <trkpt lat="43.67307" lon="6.76129">
        <ele>323.62</ele>
        <time>2012-03-08T13:17:54Z</time>
      </trkpt>
      <trkpt lat="43.67297" lon="6.76132">
        <ele>325.06</ele>
        <time>2012-03-08T13:18:12Z</time>
      </trkpt>
      <trkpt lat="43.67286" lon="6.76131">
        <ele>325.54</ele>
        <time>2012-03-08T13:18:31Z</time>
      </trkpt>
      <trkpt lat="43.67273" lon="6.76136">
        <ele>329.39</ele>
        <time>2012-03-08T13:18:50Z</time>
      </trkpt>
      <trkpt lat="43.67265" lon="6.76134">
        <ele>330.35</ele>
        <time>2012-03-08T13:19:05Z</time>
      </trkpt>
      <trkpt lat="43.67258" lon="6.76136">
        <ele>331.31</ele>
        <time>2012-03-08T13:19:22Z</time>
      </trkpt>
      <trkpt lat="43.67251" lon="6.76137">
        <ele>333.23</ele>
        <time>2012-03-08T13:19:37Z</time>
      </trkpt>
      <trkpt lat="43.67248" lon="6.76144">
        <ele>335.16</ele>
        <time>2012-03-08T13:19:54Z</time>
      </trkpt>
      <trkpt lat="43.67256" lon="6.76153">
        <ele>334.68</ele>
        <time>2012-03-08T13:20:14Z</time>
      </trkpt>
      <trkpt lat="43.67265" lon="6.7616">
        <ele>334.68</ele>
        <time>2012-03-08T13:20:31Z</time>
      </trkpt>
      <trkpt lat="43.67272" lon="6.76164">
        <ele>337.08</ele>
        <time>2012-03-08T13:20:50Z</time>
      </trkpt>
      <trkpt lat="43.67279" lon="6.76169">
        <ele>336.12</ele>
        <time>2012-03-08T13:21:08Z</time>
      </trkpt>
      <trkpt lat="43.67285" lon="6.76171">
        <ele>337.08</ele>
        <time>2012-03-08T13:21:33Z</time>
      </trkpt>
      <trkpt lat="43.6729" lon="6.76181">
        <ele>336.6</ele>
        <time>2012-03-08T13:21:52Z</time>
      </trkpt>
      <trkpt lat="43.67283" lon="6.76174">
        <ele>337.08</ele>
        <time>2012-03-08T13:22:10Z</time>
      </trkpt>
      <trkpt lat="43.67275" lon="6.76171">
        <ele>338.04</ele>
        <time>2012-03-08T13:22:30Z</time>
      </trkpt>
      <trkpt lat="43.67267" lon="6.76164">
        <ele>344.29</ele>
        <time>2012-03-08T13:22:50Z</time>
      </trkpt>
      <trkpt lat="43.67259" lon="6.76163">
        <ele>346.21</ele>
        <time>2012-03-08T13:23:09Z</time>
      </trkpt>
      <trkpt lat="43.6725" lon="6.76163">
        <ele>346.69</ele>
        <time>2012-03-08T13:23:24Z</time>
      </trkpt>
      <trkpt lat="43.67245" lon="6.76161">
        <ele>348.13</ele>
        <time>2012-03-08T13:23:35Z</time>
      </trkpt>
      <trkpt lat="43.67242" lon="6.76157">
        <ele>350.06</ele>
        <time>2012-03-08T13:23:40Z</time>
      </trkpt>
      <trkpt lat="43.67241" lon="6.76157">
        <ele>351.02</ele>
        <time>2012-03-08T13:23:43Z</time>
      </trkpt>
      <trkpt lat="43.67235" lon="6.7616">
        <ele>353.42</ele>
        <time>2012-03-08T13:23:55Z</time>
      </trkpt>
      <trkpt lat="43.67233" lon="6.76161">
        <ele>352.94</ele>
        <time>2012-03-08T13:24:17Z</time>
      </trkpt>
      <trkpt lat="43.6723" lon="6.7616">
        <ele>352.94</ele>
        <time>2012-03-08T13:24:23Z</time>
      </trkpt>
      <trkpt lat="43.67228" lon="6.76158">
        <ele>352.46</ele>
        <time>2012-03-08T13:24:25Z</time>
      </trkpt>
      <trkpt lat="43.67224" lon="6.76154">
        <ele>354.38</ele>
        <time>2012-03-08T13:24:38Z</time>
      </trkpt>
      <trkpt lat="43.67219" lon="6.76156">
        <ele>354.38</ele>
        <time>2012-03-08T13:25:06Z</time>
      </trkpt>
      <trkpt lat="43.67211" lon="6.76157">
        <ele>356.79</ele>
        <time>2012-03-08T13:25:22Z</time>
      </trkpt>
      <trkpt lat="43.67206" lon="6.76159">
        <ele>358.23</ele>
        <time>2012-03-08T13:25:35Z</time>
      </trkpt>
      <trkpt lat="43.67193" lon="6.76166">
        <ele>358.71</ele>
        <time>2012-03-08T13:25:53Z</time>
      </trkpt>
      <trkpt lat="43.67184" lon="6.76177">
        <ele>363.04</ele>
        <time>2012-03-08T13:26:12Z</time>
      </trkpt>
      <trkpt lat="43.6718" lon="6.76184">
        <ele>366.4</ele>
        <time>2012-03-08T13:26:30Z</time>
      </trkpt>
      <trkpt lat="43.67178" lon="6.76202">
        <ele>366.4</ele>
        <time>2012-03-08T13:26:48Z</time>
      </trkpt>
      <trkpt lat="43.67177" lon="6.7622">
        <ele>364.96</ele>
        <time>2012-03-08T13:27:05Z</time>
      </trkpt>
      <trkpt lat="43.67173" lon="6.76234">
        <ele>365.44</ele>
        <time>2012-03-08T13:27:20Z</time>
      </trkpt>
      <trkpt lat="43.67165" lon="6.76243">
        <ele>368.32</ele>
        <time>2012-03-08T13:27:35Z</time>
      </trkpt>
      <trkpt lat="43.67154" lon="6.76252">
        <ele>369.76</ele>
        <time>2012-03-08T13:27:53Z</time>
      </trkpt>
      <trkpt lat="43.67146" lon="6.76256">
        <ele>367.36</ele>
        <time>2012-03-08T13:28:04Z</time>
      </trkpt>
      <trkpt lat="43.67137" lon="6.76265">
        <ele>364.96</ele>
        <time>2012-03-08T13:28:24Z</time>
      </trkpt>
      <trkpt lat="43.67134" lon="6.76267">
        <ele>364</ele>
        <time>2012-03-08T13:28:27Z</time>
      </trkpt>
      <trkpt lat="43.67126" lon="6.76271">
        <ele>364</ele>
        <time>2012-03-08T13:28:37Z</time>
      </trkpt>
      <trkpt lat="43.67115" lon="6.7628">
        <ele>363.04</ele>
        <time>2012-03-08T13:28:54Z</time>
      </trkpt>
      <trkpt lat="43.67106" lon="6.76282">
        <ele>362.07</ele>
        <time>2012-03-08T13:29:06Z</time>
      </trkpt>
      <trkpt lat="43.67102" lon="6.7629">
        <ele>363.04</ele>
        <time>2012-03-08T13:29:23Z</time>
      </trkpt>
      <trkpt lat="43.67098" lon="6.76303">
        <ele>362.07</ele>
        <time>2012-03-08T13:29:43Z</time>
      </trkpt>
      <trkpt lat="43.67091" lon="6.76314">
        <ele>361.59</ele>
        <time>2012-03-08T13:29:59Z</time>
      </trkpt>
      <trkpt lat="43.67083" lon="6.7632">
        <ele>360.63</ele>
        <time>2012-03-08T13:30:13Z</time>
      </trkpt>
      <trkpt lat="43.6708" lon="6.76321">
        <ele>359.67</ele>
        <time>2012-03-08T13:30:18Z</time>
      </trkpt>
      <trkpt lat="43.67067" lon="6.76325">
        <ele>360.63</ele>
        <time>2012-03-08T13:30:35Z</time>
      </trkpt>
      <trkpt lat="43.67059" lon="6.76331">
        <ele>360.15</ele>
        <time>2012-03-08T13:30:47Z</time>
      </trkpt>
      <trkpt lat="43.67047" lon="6.76342">
        <ele>362.07</ele>
        <time>2012-03-08T13:31:05Z</time>
      </trkpt>
      <trkpt lat="43.67031" lon="6.76347">
        <ele>361.11</ele>
        <time>2012-03-08T13:31:24Z</time>
      </trkpt>
      <trkpt lat="43.67019" lon="6.76351">
        <ele>363.04</ele>
        <time>2012-03-08T13:31:40Z</time>
      </trkpt>
      <trkpt lat="43.67017" lon="6.7635">
        <ele>364</ele>
        <time>2012-03-08T13:31:43Z</time>
      </trkpt>
      <trkpt lat="43.67015" lon="6.7635">
        <ele>364</ele>
        <time>2012-03-08T13:31:46Z</time>
      </trkpt>
      <trkpt lat="43.67001" lon="6.76354">
        <ele>365.92</ele>
        <time>2012-03-08T13:32:04Z</time>
      </trkpt>
      <trkpt lat="43.66992" lon="6.76362">
        <ele>365.92</ele>
        <time>2012-03-08T13:32:20Z</time>
      </trkpt>
      <trkpt lat="43.66992" lon="6.76363">
        <ele>366.4</ele>
        <time>2012-03-08T13:32:21Z</time>
      </trkpt>
      <trkpt lat="43.66986" lon="6.76379">
        <ele>364</ele>
        <time>2012-03-08T13:32:38Z</time>
      </trkpt>
      <trkpt lat="43.66983" lon="6.76398">
        <ele>362.55</ele>
        <time>2012-03-08T13:32:58Z</time>
      </trkpt>
      <trkpt lat="43.6697" lon="6.7641">
        <ele>359.19</ele>
        <time>2012-03-08T13:33:18Z</time>
      </trkpt>
      <trkpt lat="43.6696" lon="6.76415">
        <ele>360.63</ele>
        <time>2012-03-08T13:33:35Z</time>
      </trkpt>
      <trkpt lat="43.66958" lon="6.76415">
        <ele>361.11</ele>
        <time>2012-03-08T13:33:38Z</time>
      </trkpt>
      <trkpt lat="43.66956" lon="6.76415">
        <ele>362.55</ele>
        <time>2012-03-08T13:33:42Z</time>
      </trkpt>
      <trkpt lat="43.66949" lon="6.76418">
        <ele>367.36</ele>
        <time>2012-03-08T13:33:54Z</time>
      </trkpt>
      <trkpt lat="43.6694" lon="6.76423">
        <ele>372.17</ele>
        <time>2012-03-08T13:34:12Z</time>
      </trkpt>
      <trkpt lat="43.66933" lon="6.7643">
        <ele>375.05</ele>
        <time>2012-03-08T13:34:29Z</time>
      </trkpt>
      <trkpt lat="43.66925" lon="6.76438">
        <ele>377.94</ele>
        <time>2012-03-08T13:34:45Z</time>
      </trkpt>
      <trkpt lat="43.66916" lon="6.76441">
        <ele>377.94</ele>
        <time>2012-03-08T13:35:01Z</time>
      </trkpt>
      <trkpt lat="43.66908" lon="6.76446">
        <ele>378.42</ele>
        <time>2012-03-08T13:35:17Z</time>
      </trkpt>
      <trkpt lat="43.66898" lon="6.76447">
        <ele>378.9</ele>
        <time>2012-03-08T13:35:34Z</time>
      </trkpt>
      <trkpt lat="43.66888" lon="6.76443">
        <ele>380.82</ele>
        <time>2012-03-08T13:35:51Z</time>
      </trkpt>
      <trkpt lat="43.66877" lon="6.76438">
        <ele>380.34</ele>
        <time>2012-03-08T13:36:09Z</time>
      </trkpt>
      <trkpt lat="43.66876" lon="6.76438">
        <ele>379.86</ele>
        <time>2012-03-08T13:36:11Z</time>
      </trkpt>
      <trkpt lat="43.66868" lon="6.76437">
        <ele>380.82</ele>
        <time>2012-03-08T13:36:27Z</time>
      </trkpt>
      <trkpt lat="43.66859" lon="6.76435">
        <ele>388.99</ele>
        <time>2012-03-08T13:36:44Z</time>
      </trkpt>
      <trkpt lat="43.6685" lon="6.76432">
        <ele>392.84</ele>
        <time>2012-03-08T13:37:01Z</time>
      </trkpt>
      <trkpt lat="43.66844" lon="6.76431">
        <ele>397.64</ele>
        <time>2012-03-08T13:37:18Z</time>
      </trkpt>
      <trkpt lat="43.66834" lon="6.7643">
        <ele>400.05</ele>
        <time>2012-03-08T13:37:35Z</time>
      </trkpt>
      <trkpt lat="43.66839" lon="6.76446">
        <ele>397.16</ele>
        <time>2012-03-08T13:37:55Z</time>
      </trkpt>
      <trkpt lat="43.66847" lon="6.76456">
        <ele>396.2</ele>
        <time>2012-03-08T13:38:15Z</time>
      </trkpt>
      <trkpt lat="43.66843" lon="6.76452">
        <ele>398.12</ele>
        <time>2012-03-08T13:38:31Z</time>
      </trkpt>
      <trkpt lat="43.66834" lon="6.7645">
        <ele>400.53</ele>
        <time>2012-03-08T13:38:46Z</time>
      </trkpt>
      <trkpt lat="43.66824" lon="6.76448">
        <ele>401.49</ele>
        <time>2012-03-08T13:39:03Z</time>
      </trkpt>
      <trkpt lat="43.6682" lon="6.76449">
        <ele>402.45</ele>
        <time>2012-03-08T13:39:26Z</time>
      </trkpt>
      <trkpt lat="43.6681" lon="6.76446">
        <ele>403.41</ele>
        <time>2012-03-08T13:39:41Z</time>
      </trkpt>
      <trkpt lat="43.66799" lon="6.76441">
        <ele>406.29</ele>
        <time>2012-03-08T13:39:58Z</time>
      </trkpt>
      <trkpt lat="43.6679" lon="6.7644">
        <ele>407.74</ele>
        <time>2012-03-08T13:40:13Z</time>
      </trkpt>
      <trkpt lat="43.66783" lon="6.76438">
        <ele>408.7</ele>
        <time>2012-03-08T13:40:22Z</time>
      </trkpt>
      <trkpt lat="43.66769" lon="6.76443">
        <ele>412.54</ele>
        <time>2012-03-08T13:40:41Z</time>
      </trkpt>
      <trkpt lat="43.66756" lon="6.76453">
        <ele>413.02</ele>
        <time>2012-03-08T13:41:01Z</time>
      </trkpt>
      <trkpt lat="43.66748" lon="6.7646">
        <ele>412.54</ele>
        <time>2012-03-08T13:41:18Z</time>
      </trkpt>
      <trkpt lat="43.66741" lon="6.76471">
        <ele>412.54</ele>
        <time>2012-03-08T13:41:35Z</time>
      </trkpt>
      <trkpt lat="43.66736" lon="6.76483">
        <ele>413.98</ele>
        <time>2012-03-08T13:41:54Z</time>
      </trkpt>
      <trkpt lat="43.66735" lon="6.76495">
        <ele>415.91</ele>
        <time>2012-03-08T13:42:13Z</time>
      </trkpt>
      <trkpt lat="43.6673" lon="6.76505">
        <ele>419.27</ele>
        <time>2012-03-08T13:42:31Z</time>
      </trkpt>
      <trkpt lat="43.66726" lon="6.76506">
        <ele>421.68</ele>
        <time>2012-03-08T13:42:50Z</time>
      </trkpt>
      <trkpt lat="43.66724" lon="6.76497">
        <ele>423.6</ele>
        <time>2012-03-08T13:43:09Z</time>
      </trkpt>
      <trkpt lat="43.66721" lon="6.76492">
        <ele>424.08</ele>
        <time>2012-03-08T13:43:27Z</time>
      </trkpt>
      <trkpt lat="43.66715" lon="6.7648">
        <ele>423.6</ele>
        <time>2012-03-08T13:43:46Z</time>
      </trkpt>
      <trkpt lat="43.66707" lon="6.76469">
        <ele>427.92</ele>
        <time>2012-03-08T13:44:05Z</time>
      </trkpt>
      <trkpt lat="43.66704" lon="6.76467">
        <ele>429.37</ele>
        <time>2012-03-08T13:44:11Z</time>
      </trkpt>
      <trkpt lat="43.66695" lon="6.76463">
        <ele>432.25</ele>
        <time>2012-03-08T13:44:29Z</time>
      </trkpt>
      <trkpt lat="43.66683" lon="6.76464">
        <ele>433.69</ele>
        <time>2012-03-08T13:44:49Z</time>
      </trkpt>
      <trkpt lat="43.66673" lon="6.76466">
        <ele>435.13</ele>
        <time>2012-03-08T13:45:08Z</time>
      </trkpt>
      <trkpt lat="43.66663" lon="6.7647">
        <ele>435.61</ele>
        <time>2012-03-08T13:45:25Z</time>
      </trkpt>
      <trkpt lat="43.66653" lon="6.76475">
        <ele>437.06</ele>
        <time>2012-03-08T13:45:44Z</time>
      </trkpt>
      <trkpt lat="43.66642" lon="6.7648">
        <ele>438.98</ele>
        <time>2012-03-08T13:46:04Z</time>
      </trkpt>
      <trkpt lat="43.66633" lon="6.76483">
        <ele>440.42</ele>
        <time>2012-03-08T13:46:21Z</time>
      </trkpt>
      <trkpt lat="43.66622" lon="6.76487">
        <ele>443.31</ele>
        <time>2012-03-08T13:46:40Z</time>
      </trkpt>
      <trkpt lat="43.66614" lon="6.76494">
        <ele>441.86</ele>
        <time>2012-03-08T13:46:57Z</time>
      </trkpt>
      <trkpt lat="43.66604" lon="6.76501">
        <ele>444.27</ele>
        <time>2012-03-08T13:47:18Z</time>
      </trkpt>
      <trkpt lat="43.66603" lon="6.76512">
        <ele>446.19</ele>
        <time>2012-03-08T13:47:45Z</time>
      </trkpt>
      <trkpt lat="43.66609" lon="6.76523">
        <ele>446.67</ele>
        <time>2012-03-08T13:48:08Z</time>
      </trkpt>
      <trkpt lat="43.66609" lon="6.76559">
        <ele>444.27</ele>
        <time>2012-03-08T13:48:37Z</time>
      </trkpt>
      <trkpt lat="43.66617" lon="6.76567">
        <ele>443.79</ele>
        <time>2012-03-08T13:48:49Z</time>
      </trkpt>
      <trkpt lat="43.66624" lon="6.76577">
        <ele>447.63</ele>
        <time>2012-03-08T13:49:02Z</time>
      </trkpt>
      <trkpt lat="43.66627" lon="6.7658">
        <ele>446.67</ele>
        <time>2012-03-08T13:49:06Z</time>
      </trkpt>
      <trkpt lat="43.66629" lon="6.76587">
        <ele>443.79</ele>
        <time>2012-03-08T13:49:13Z</time>
      </trkpt>
      <trkpt lat="43.66633" lon="6.7659">
        <ele>442.34</ele>
        <time>2012-03-08T13:49:19Z</time>
      </trkpt>
      <trkpt lat="43.66635" lon="6.76602">
        <ele>438.5</ele>
        <time>2012-03-08T13:49:31Z</time>
      </trkpt>
      <trkpt lat="43.66635" lon="6.76606">
        <ele>439.46</ele>
        <time>2012-03-08T13:49:34Z</time>
      </trkpt>
      <trkpt lat="43.66632" lon="6.76632">
        <ele>439.94</ele>
        <time>2012-03-08T13:49:52Z</time>
      </trkpt>
      <trkpt lat="43.66628" lon="6.76657">
        <ele>443.79</ele>
        <time>2012-03-08T13:50:10Z</time>
      </trkpt>
      <trkpt lat="43.6663" lon="6.76673">
        <ele>445.23</ele>
        <time>2012-03-08T13:50:23Z</time>
      </trkpt>
      <trkpt lat="43.66631" lon="6.76689">
        <ele>446.67</ele>
        <time>2012-03-08T13:50:38Z</time>
      </trkpt>
      <trkpt lat="43.66631" lon="6.767">
        <ele>446.67</ele>
        <time>2012-03-08T13:50:47Z</time>
      </trkpt>
      <trkpt lat="43.66633" lon="6.76718">
        <ele>449.55</ele>
        <time>2012-03-08T13:51:04Z</time>
      </trkpt>
      <trkpt lat="43.66634" lon="6.76741">
        <ele>452.44</ele>
        <time>2012-03-08T13:51:22Z</time>
      </trkpt>
      <trkpt lat="43.66637" lon="6.76768">
        <ele>449.55</ele>
        <time>2012-03-08T13:51:43Z</time>
      </trkpt>
      <trkpt lat="43.66637" lon="6.76771">
        <ele>449.07</ele>
        <time>2012-03-08T13:51:45Z</time>
      </trkpt>
      <trkpt lat="43.66636" lon="6.76776">
        <ele>448.11</ele>
        <time>2012-03-08T13:51:51Z</time>
      </trkpt>
      <trkpt lat="43.66636" lon="6.76799">
        <ele>449.07</ele>
        <time>2012-03-08T13:52:10Z</time>
      </trkpt>
      <trkpt lat="43.66639" lon="6.76804">
        <ele>449.07</ele>
        <time>2012-03-08T13:52:26Z</time>
      </trkpt>
      <trkpt lat="43.66636" lon="6.76802">
        <ele>451</ele>
        <time>2012-03-08T13:52:45Z</time>
      </trkpt>
      <trkpt lat="43.66637" lon="6.76804">
        <ele>450.03</ele>
        <time>2012-03-08T13:53:26Z</time>
      </trkpt>
      <trkpt lat="43.66637" lon="6.76804">
        <ele>450.03</ele>
        <time>2012-03-08T13:54:03Z</time>
      </trkpt>
      <trkpt lat="43.66638" lon="6.76803">
        <ele>450.52</ele>
        <time>2012-03-08T13:54:45Z</time>
      </trkpt>
      <trkpt lat="43.66638" lon="6.76804">
        <ele>452.92</ele>
        <time>2012-03-08T13:55:28Z</time>
      </trkpt>
      <trkpt lat="43.66637" lon="6.76805">
        <ele>452.92</ele>
        <time>2012-03-08T13:56:13Z</time>
      </trkpt>
      <trkpt lat="43.66636" lon="6.76805">
        <ele>451.96</ele>
        <time>2012-03-08T13:57:01Z</time>
      </trkpt>
      <trkpt lat="43.66637" lon="6.76807">
        <ele>451.48</ele>
        <time>2012-03-08T13:57:04Z</time>
      </trkpt>
      <trkpt lat="43.66636" lon="6.76815">
        <ele>450.03</ele>
        <time>2012-03-08T13:57:15Z</time>
      </trkpt>
      <trkpt lat="43.66636" lon="6.76833">
        <ele>450.03</ele>
        <time>2012-03-08T13:57:32Z</time>
      </trkpt>
      <trkpt lat="43.66636" lon="6.76834">
        <ele>450.03</ele>
        <time>2012-03-08T13:57:33Z</time>
      </trkpt>
      <trkpt lat="43.66636" lon="6.76855">
        <ele>450.52</ele>
        <time>2012-03-08T13:57:52Z</time>
      </trkpt>
      <trkpt lat="43.66637" lon="6.76873">
        <ele>451.48</ele>
        <time>2012-03-08T13:58:09Z</time>
      </trkpt>
      <trkpt lat="43.66639" lon="6.76891">
        <ele>453.4</ele>
        <time>2012-03-08T13:58:26Z</time>
      </trkpt>
      <trkpt lat="43.6664" lon="6.769">
        <ele>453.4</ele>
        <time>2012-03-08T13:58:41Z</time>
      </trkpt>
      <trkpt lat="43.66639" lon="6.76902">
        <ele>452.92</ele>
        <time>2012-03-08T13:58:43Z</time>
      </trkpt>
      <trkpt lat="43.66639" lon="6.76927">
        <ele>452.92</ele>
        <time>2012-03-08T13:59:03Z</time>
      </trkpt>
      <trkpt lat="43.6664" lon="6.76946">
        <ele>452.44</ele>
        <time>2012-03-08T13:59:20Z</time>
      </trkpt>
      <trkpt lat="43.66638" lon="6.76965">
        <ele>452.44</ele>
        <time>2012-03-08T13:59:38Z</time>
      </trkpt>
      <trkpt lat="43.66637" lon="6.76975">
        <ele>452.44</ele>
        <time>2012-03-08T13:59:46Z</time>
      </trkpt>
      <trkpt lat="43.66638" lon="6.76991">
        <ele>451</ele>
        <time>2012-03-08T13:59:58Z</time>
      </trkpt>
      <trkpt lat="43.66637" lon="6.77011">
        <ele>450.03</ele>
        <time>2012-03-08T14:00:14Z</time>
      </trkpt>
      <trkpt lat="43.66635" lon="6.7703">
        <ele>449.07</ele>
        <time>2012-03-08T14:00:31Z</time>
      </trkpt>
      <trkpt lat="43.66632" lon="6.7705">
        <ele>448.59</ele>
        <time>2012-03-08T14:00:49Z</time>
      </trkpt>
      <trkpt lat="43.66635" lon="6.77061">
        <ele>447.63</ele>
        <time>2012-03-08T14:01:01Z</time>
      </trkpt>
      <trkpt lat="43.6663" lon="6.77084">
        <ele>449.07</ele>
        <time>2012-03-08T14:01:21Z</time>
      </trkpt>
      <trkpt lat="43.6663" lon="6.77103">
        <ele>451.48</ele>
        <time>2012-03-08T14:01:43Z</time>
      </trkpt>
      <trkpt lat="43.66626" lon="6.77132">
        <ele>452.92</ele>
        <time>2012-03-08T14:02:04Z</time>
      </trkpt>
      <trkpt lat="43.66622" lon="6.77156">
        <ele>451.96</ele>
        <time>2012-03-08T14:02:23Z</time>
      </trkpt>
      <trkpt lat="43.66621" lon="6.77163">
        <ele>452.44</ele>
        <time>2012-03-08T14:02:28Z</time>
      </trkpt>
      <trkpt lat="43.66619" lon="6.77183">
        <ele>453.88</ele>
        <time>2012-03-08T14:02:47Z</time>
      </trkpt>
      <trkpt lat="43.66613" lon="6.77206">
        <ele>454.84</ele>
        <time>2012-03-08T14:03:07Z</time>
      </trkpt>
      <trkpt lat="43.66609" lon="6.77215">
        <ele>453.88</ele>
        <time>2012-03-08T14:03:22Z</time>
      </trkpt>
      <trkpt lat="43.66599" lon="6.7724">
        <ele>456.76</ele>
        <time>2012-03-08T14:03:42Z</time>
      </trkpt>
      <trkpt lat="43.6659" lon="6.77266">
        <ele>455.32</ele>
        <time>2012-03-08T14:04:01Z</time>
      </trkpt>
      <trkpt lat="43.66589" lon="6.77272">
        <ele>455.32</ele>
        <time>2012-03-08T14:04:05Z</time>
      </trkpt>
      <trkpt lat="43.66584" lon="6.77282">
        <ele>454.84</ele>
        <time>2012-03-08T14:04:15Z</time>
      </trkpt>
      <trkpt lat="43.66579" lon="6.77293">
        <ele>455.8</ele>
        <time>2012-03-08T14:04:26Z</time>
      </trkpt>
      <trkpt lat="43.66576" lon="6.77304">
        <ele>455.32</ele>
        <time>2012-03-08T14:04:35Z</time>
      </trkpt>
      <trkpt lat="43.66569" lon="6.77328">
        <ele>456.76</ele>
        <time>2012-03-08T14:04:54Z</time>
      </trkpt>
      <trkpt lat="43.66568" lon="6.77339">
        <ele>456.28</ele>
        <time>2012-03-08T14:05:02Z</time>
      </trkpt>
      <trkpt lat="43.66563" lon="6.7736">
        <ele>455.32</ele>
        <time>2012-03-08T14:05:19Z</time>
      </trkpt>
      <trkpt lat="43.66563" lon="6.77363">
        <ele>455.32</ele>
        <time>2012-03-08T14:05:21Z</time>
      </trkpt>
      <trkpt lat="43.66558" lon="6.77385">
        <ele>457.24</ele>
        <time>2012-03-08T14:05:40Z</time>
      </trkpt>
      <trkpt lat="43.66561" lon="6.77395">
        <ele>457.24</ele>
        <time>2012-03-08T14:06:00Z</time>
      </trkpt>
      <trkpt lat="43.66559" lon="6.77393">
        <ele>458.21</ele>
        <time>2012-03-08T14:06:28Z</time>
      </trkpt>
      <trkpt lat="43.66562" lon="6.77395">
        <ele>457.24</ele>
        <time>2012-03-08T14:06:51Z</time>
      </trkpt>
      <trkpt lat="43.66562" lon="6.77394">
        <ele>457.24</ele>
        <time>2012-03-08T14:07:29Z</time>
      </trkpt>
      <trkpt lat="43.66562" lon="6.77391">
        <ele>457.72</ele>
        <time>2012-03-08T14:08:09Z</time>
      </trkpt>
      <trkpt lat="43.66556" lon="6.77407">
        <ele>459.65</ele>
        <time>2012-03-08T14:08:27Z</time>
      </trkpt>
      <trkpt lat="43.66554" lon="6.77432">
        <ele>460.61</ele>
        <time>2012-03-08T14:08:46Z</time>
      </trkpt>
      <trkpt lat="43.6655" lon="6.77454">
        <ele>458.69</ele>
        <time>2012-03-08T14:09:06Z</time>
      </trkpt>
      <trkpt lat="43.6654" lon="6.77474">
        <ele>459.65</ele>
        <time>2012-03-08T14:09:26Z</time>
      </trkpt>
      <trkpt lat="43.66539" lon="6.77476">
        <ele>460.13</ele>
        <time>2012-03-08T14:09:28Z</time>
      </trkpt>
      <trkpt lat="43.66528" lon="6.77494">
        <ele>460.61</ele>
        <time>2012-03-08T14:09:48Z</time>
      </trkpt>
      <trkpt lat="43.66516" lon="6.77514">
        <ele>462.05</ele>
        <time>2012-03-08T14:10:08Z</time>
      </trkpt>
      <trkpt lat="43.6651" lon="6.77532">
        <ele>461.09</ele>
        <time>2012-03-08T14:10:24Z</time>
      </trkpt>
      <trkpt lat="43.66502" lon="6.77551">
        <ele>460.13</ele>
        <time>2012-03-08T14:10:41Z</time>
      </trkpt>
      <trkpt lat="43.66496" lon="6.77563">
        <ele>460.13</ele>
        <time>2012-03-08T14:10:51Z</time>
      </trkpt>
      <trkpt lat="43.66488" lon="6.77587">
        <ele>461.57</ele>
        <time>2012-03-08T14:11:10Z</time>
      </trkpt>
      <trkpt lat="43.66483" lon="6.77614">
        <ele>460.61</ele>
        <time>2012-03-08T14:11:30Z</time>
      </trkpt>
      <trkpt lat="43.66474" lon="6.7764">
        <ele>459.17</ele>
        <time>2012-03-08T14:11:50Z</time>
      </trkpt>
      <trkpt lat="43.66465" lon="6.77662">
        <ele>458.21</ele>
        <time>2012-03-08T14:12:09Z</time>
      </trkpt>
      <trkpt lat="43.66455" lon="6.77691">
        <ele>454.84</ele>
        <time>2012-03-08T14:12:31Z</time>
      </trkpt>
      <trkpt lat="43.66443" lon="6.77715">
        <ele>453.4</ele>
        <time>2012-03-08T14:12:53Z</time>
      </trkpt>
      <trkpt lat="43.66431" lon="6.77738">
        <ele>452.92</ele>
        <time>2012-03-08T14:13:14Z</time>
      </trkpt>
      <trkpt lat="43.66418" lon="6.7776">
        <ele>452.44</ele>
        <time>2012-03-08T14:13:35Z</time>
      </trkpt>
      <trkpt lat="43.66405" lon="6.77785">
        <ele>453.4</ele>
        <time>2012-03-08T14:13:56Z</time>
      </trkpt>
      <trkpt lat="43.66392" lon="6.77809">
        <ele>451</ele>
        <time>2012-03-08T14:14:18Z</time>
      </trkpt>
      <trkpt lat="43.66381" lon="6.77826">
        <ele>449.07</ele>
        <time>2012-03-08T14:14:36Z</time>
      </trkpt>
      <trkpt lat="43.6637" lon="6.77847">
        <ele>446.67</ele>
        <time>2012-03-08T14:14:55Z</time>
      </trkpt>
      <trkpt lat="43.66357" lon="6.77872">
        <ele>445.23</ele>
        <time>2012-03-08T14:15:15Z</time>
      </trkpt>
      <trkpt lat="43.66348" lon="6.77891">
        <ele>443.79</ele>
        <time>2012-03-08T14:15:32Z</time>
      </trkpt>
      <trkpt lat="43.66341" lon="6.77912">
        <ele>443.31</ele>
        <time>2012-03-08T14:15:49Z</time>
      </trkpt>
      <trkpt lat="43.6633" lon="6.77935">
        <ele>443.79</ele>
        <time>2012-03-08T14:16:09Z</time>
      </trkpt>
      <trkpt lat="43.66318" lon="6.77961">
        <ele>443.79</ele>
        <time>2012-03-08T14:16:30Z</time>
      </trkpt>
      <trkpt lat="43.66302" lon="6.77984">
        <ele>443.79</ele>
        <time>2012-03-08T14:16:53Z</time>
      </trkpt>
      <trkpt lat="43.66292" lon="6.78001">
        <ele>443.31</ele>
        <time>2012-03-08T14:17:10Z</time>
      </trkpt>
      <trkpt lat="43.66283" lon="6.78037">
        <ele>443.79</ele>
        <time>2012-03-08T14:17:36Z</time>
      </trkpt>
      <trkpt lat="43.6628" lon="6.78054">
        <ele>442.34</ele>
        <time>2012-03-08T14:17:51Z</time>
      </trkpt>
      <trkpt lat="43.66274" lon="6.78081">
        <ele>443.79</ele>
        <time>2012-03-08T14:18:13Z</time>
      </trkpt>
      <trkpt lat="43.66264" lon="6.78104">
        <ele>445.23</ele>
        <time>2012-03-08T14:18:33Z</time>
      </trkpt>
      <trkpt lat="43.6626" lon="6.78115">
        <ele>445.23</ele>
        <time>2012-03-08T14:18:42Z</time>
      </trkpt>
      <trkpt lat="43.66247" lon="6.78134">
        <ele>447.15</ele>
        <time>2012-03-08T14:19:01Z</time>
      </trkpt>
      <trkpt lat="43.66242" lon="6.7814">
        <ele>447.63</ele>
        <time>2012-03-08T14:19:09Z</time>
      </trkpt>
      <trkpt lat="43.66239" lon="6.78142">
        <ele>448.11</ele>
        <time>2012-03-08T14:19:20Z</time>
      </trkpt>
      <trkpt lat="43.66237" lon="6.78148">
        <ele>448.11</ele>
        <time>2012-03-08T14:19:25Z</time>
      </trkpt>
      <trkpt lat="43.6623" lon="6.7816">
        <ele>448.59</ele>
        <time>2012-03-08T14:19:36Z</time>
      </trkpt>
      <trkpt lat="43.66223" lon="6.78182">
        <ele>449.07</ele>
        <time>2012-03-08T14:19:53Z</time>
      </trkpt>
      <trkpt lat="43.66215" lon="6.78201">
        <ele>449.55</ele>
        <time>2012-03-08T14:20:10Z</time>
      </trkpt>
      <trkpt lat="43.66206" lon="6.7822">
        <ele>451</ele>
        <time>2012-03-08T14:20:27Z</time>
      </trkpt>
      <trkpt lat="43.66195" lon="6.78237">
        <ele>453.88</ele>
        <time>2012-03-08T14:20:44Z</time>
      </trkpt>
      <trkpt lat="43.66183" lon="6.78253">
        <ele>453.4</ele>
        <time>2012-03-08T14:21:01Z</time>
      </trkpt>
      <trkpt lat="43.66173" lon="6.78272">
        <ele>452.44</ele>
        <time>2012-03-08T14:21:18Z</time>
      </trkpt>
      <trkpt lat="43.66161" lon="6.7829">
        <ele>449.55</ele>
        <time>2012-03-08T14:21:35Z</time>
      </trkpt>
      <trkpt lat="43.66147" lon="6.78307">
        <ele>449.07</ele>
        <time>2012-03-08T14:21:53Z</time>
      </trkpt>
      <trkpt lat="43.66134" lon="6.78322">
        <ele>447.63</ele>
        <time>2012-03-08T14:22:09Z</time>
      </trkpt>
      <trkpt lat="43.66122" lon="6.78341">
        <ele>446.67</ele>
        <time>2012-03-08T14:22:26Z</time>
      </trkpt>
      <trkpt lat="43.6612" lon="6.78347">
        <ele>447.15</ele>
        <time>2012-03-08T14:22:30Z</time>
      </trkpt>
      <trkpt lat="43.66113" lon="6.78371">
        <ele>448.11</ele>
        <time>2012-03-08T14:22:47Z</time>
      </trkpt>
      <trkpt lat="43.6611" lon="6.78391">
        <ele>449.07</ele>
        <time>2012-03-08T14:23:02Z</time>
      </trkpt>
      <trkpt lat="43.66107" lon="6.78418">
        <ele>447.63</ele>
        <time>2012-03-08T14:23:19Z</time>
      </trkpt>
      <trkpt lat="43.66106" lon="6.78421">
        <ele>447.15</ele>
        <time>2012-03-08T14:23:22Z</time>
      </trkpt>
      <trkpt lat="43.66105" lon="6.78429">
        <ele>446.67</ele>
        <time>2012-03-08T14:23:33Z</time>
      </trkpt>
      <trkpt lat="43.66096" lon="6.78456">
        <ele>446.19</ele>
        <time>2012-03-08T14:23:55Z</time>
      </trkpt>
      <trkpt lat="43.66085" lon="6.78468">
        <ele>448.59</ele>
        <time>2012-03-08T14:24:11Z</time>
      </trkpt>
      <trkpt lat="43.66079" lon="6.78473">
        <ele>449.07</ele>
        <time>2012-03-08T14:24:18Z</time>
      </trkpt>
      <trkpt lat="43.66076" lon="6.78478">
        <ele>448.59</ele>
        <time>2012-03-08T14:24:23Z</time>
      </trkpt>
      <trkpt lat="43.66058" lon="6.78491">
        <ele>447.15</ele>
        <time>2012-03-08T14:24:42Z</time>
      </trkpt>
      <trkpt lat="43.66042" lon="6.78505">
        <ele>445.23</ele>
        <time>2012-03-08T14:25:00Z</time>
      </trkpt>
      <trkpt lat="43.66029" lon="6.78519">
        <ele>443.79</ele>
        <time>2012-03-08T14:25:16Z</time>
      </trkpt>
      <trkpt lat="43.66013" lon="6.78527">
        <ele>443.31</ele>
        <time>2012-03-08T14:25:32Z</time>
      </trkpt>
      <trkpt lat="43.65995" lon="6.78536">
        <ele>443.31</ele>
        <time>2012-03-08T14:25:51Z</time>
      </trkpt>
      <trkpt lat="43.65976" lon="6.78546">
        <ele>443.79</ele>
        <time>2012-03-08T14:26:10Z</time>
      </trkpt>
      <trkpt lat="43.65959" lon="6.78559">
        <ele>445.23</ele>
        <time>2012-03-08T14:26:28Z</time>
      </trkpt>
      <trkpt lat="43.65957" lon="6.78562">
        <ele>445.23</ele>
        <time>2012-03-08T14:26:31Z</time>
      </trkpt>
      <trkpt lat="43.65949" lon="6.7859">
        <ele>444.27</ele>
        <time>2012-03-08T14:26:52Z</time>
      </trkpt>
      <trkpt lat="43.65946" lon="6.78595">
        <ele>444.75</ele>
        <time>2012-03-08T14:26:57Z</time>
      </trkpt>
      <trkpt lat="43.65937" lon="6.78602">
        <ele>442.82</ele>
        <time>2012-03-08T14:27:07Z</time>
      </trkpt>
      <trkpt lat="43.65935" lon="6.78603">
        <ele>442.82</ele>
        <time>2012-03-08T14:27:09Z</time>
      </trkpt>
      <trkpt lat="43.6592" lon="6.78611">
        <ele>441.86</ele>
        <time>2012-03-08T14:27:26Z</time>
      </trkpt>
      <trkpt lat="43.65918" lon="6.78612">
        <ele>441.86</ele>
        <time>2012-03-08T14:27:28Z</time>
      </trkpt>
      <trkpt lat="43.65906" lon="6.78622">
        <ele>442.34</ele>
        <time>2012-03-08T14:27:41Z</time>
      </trkpt>
      <trkpt lat="43.65894" lon="6.78631">
        <ele>445.23</ele>
        <time>2012-03-08T14:27:59Z</time>
      </trkpt>
      <trkpt lat="43.65888" lon="6.78636">
        <ele>444.75</ele>
        <time>2012-03-08T14:28:06Z</time>
      </trkpt>
      <trkpt lat="43.6587" lon="6.7865">
        <ele>445.23</ele>
        <time>2012-03-08T14:28:26Z</time>
      </trkpt>
      <trkpt lat="43.65863" lon="6.78653">
        <ele>445.71</ele>
        <time>2012-03-08T14:28:33Z</time>
      </trkpt>
      <trkpt lat="43.6586" lon="6.78657">
        <ele>445.71</ele>
        <time>2012-03-08T14:28:37Z</time>
      </trkpt>
      <trkpt lat="43.65857" lon="6.78659">
        <ele>444.27</ele>
        <time>2012-03-08T14:28:58Z</time>
      </trkpt>
      <trkpt lat="43.65854" lon="6.78662">
        <ele>444.27</ele>
        <time>2012-03-08T14:29:11Z</time>
      </trkpt>
      <trkpt lat="43.65845" lon="6.78673">
        <ele>442.34</ele>
        <time>2012-03-08T14:29:23Z</time>
      </trkpt>
      <trkpt lat="43.65842" lon="6.78678">
        <ele>442.34</ele>
        <time>2012-03-08T14:29:27Z</time>
      </trkpt>
      <trkpt lat="43.65828" lon="6.78689">
        <ele>440.9</ele>
        <time>2012-03-08T14:29:44Z</time>
      </trkpt>
      <trkpt lat="43.65817" lon="6.787">
        <ele>441.38</ele>
        <time>2012-03-08T14:29:57Z</time>
      </trkpt>
      <trkpt lat="43.65812" lon="6.78704">
        <ele>443.31</ele>
        <time>2012-03-08T14:30:20Z</time>
      </trkpt>
      <trkpt lat="43.6581" lon="6.78703">
        <ele>443.31</ele>
        <time>2012-03-08T14:30:26Z</time>
      </trkpt>
      <trkpt lat="43.65798" lon="6.78715">
        <ele>442.82</ele>
        <time>2012-03-08T14:30:43Z</time>
      </trkpt>
      <trkpt lat="43.65795" lon="6.78718">
        <ele>442.82</ele>
        <time>2012-03-08T14:30:47Z</time>
      </trkpt>
      <trkpt lat="43.65793" lon="6.78719">
        <ele>442.82</ele>
        <time>2012-03-08T14:30:49Z</time>
      </trkpt>
      <trkpt lat="43.65791" lon="6.78722">
        <ele>442.82</ele>
        <time>2012-03-08T14:30:52Z</time>
      </trkpt>
      <trkpt lat="43.65777" lon="6.78735">
        <ele>443.79</ele>
        <time>2012-03-08T14:31:08Z</time>
      </trkpt>
      <trkpt lat="43.65765" lon="6.78748">
        <ele>444.27</ele>
        <time>2012-03-08T14:31:24Z</time>
      </trkpt>
      <trkpt lat="43.65761" lon="6.78753">
        <ele>444.75</ele>
        <time>2012-03-08T14:31:30Z</time>
      </trkpt>
      <trkpt lat="43.6575" lon="6.78767">
        <ele>444.75</ele>
        <time>2012-03-08T14:31:47Z</time>
      </trkpt>
      <trkpt lat="43.65746" lon="6.78779">
        <ele>442.82</ele>
        <time>2012-03-08T14:32:03Z</time>
      </trkpt>
      <trkpt lat="43.65742" lon="6.78791">
        <ele>441.38</ele>
        <time>2012-03-08T14:32:17Z</time>
      </trkpt>
      <trkpt lat="43.65736" lon="6.78803">
        <ele>439.94</ele>
        <time>2012-03-08T14:32:36Z</time>
      </trkpt>
      <trkpt lat="43.65731" lon="6.78824">
        <ele>438.98</ele>
        <time>2012-03-08T14:32:57Z</time>
      </trkpt>
      <trkpt lat="43.6572" lon="6.7884">
        <ele>440.42</ele>
        <time>2012-03-08T14:33:17Z</time>
      </trkpt>
      <trkpt lat="43.65712" lon="6.78847">
        <ele>442.34</ele>
        <time>2012-03-08T14:33:37Z</time>
      </trkpt>
      <trkpt lat="43.65697" lon="6.78848">
        <ele>447.15</ele>
        <time>2012-03-08T14:33:59Z</time>
      </trkpt>
      <trkpt lat="43.65694" lon="6.78852">
        <ele>447.15</ele>
        <time>2012-03-08T14:34:05Z</time>
      </trkpt>
      <trkpt lat="43.65691" lon="6.78856">
        <ele>448.59</ele>
        <time>2012-03-08T14:36:30Z</time>
      </trkpt>
      <trkpt lat="43.65689" lon="6.78855">
        <ele>449.07</ele>
        <time>2012-03-08T14:36:33Z</time>
      </trkpt>
      <trkpt lat="43.65678" lon="6.78862">
        <ele>451.96</ele>
        <time>2012-03-08T14:36:48Z</time>
      </trkpt>
      <trkpt lat="43.65668" lon="6.78869">
        <ele>454.36</ele>
        <time>2012-03-08T14:37:06Z</time>
      </trkpt>
      <trkpt lat="43.65659" lon="6.78878">
        <ele>457.24</ele>
        <time>2012-03-08T14:37:25Z</time>
      </trkpt>
      <trkpt lat="43.6565" lon="6.78886">
        <ele>459.17</ele>
        <time>2012-03-08T14:37:41Z</time>
      </trkpt>
      <trkpt lat="43.65641" lon="6.78901">
        <ele>459.17</ele>
        <time>2012-03-08T14:38:02Z</time>
      </trkpt>
      <trkpt lat="43.65638" lon="6.78905">
        <ele>460.13</ele>
        <time>2012-03-08T14:38:08Z</time>
      </trkpt>
      <trkpt lat="43.65629" lon="6.78914">
        <ele>461.57</ele>
        <time>2012-03-08T14:38:27Z</time>
      </trkpt>
      <trkpt lat="43.65623" lon="6.78917">
        <ele>463.97</ele>
        <time>2012-03-08T14:38:47Z</time>
      </trkpt>
      <trkpt lat="43.65614" lon="6.78923">
        <ele>464.93</ele>
        <time>2012-03-08T14:39:05Z</time>
      </trkpt>
      <trkpt lat="43.65606" lon="6.78929">
        <ele>465.9</ele>
        <time>2012-03-08T14:39:21Z</time>
      </trkpt>
      <trkpt lat="43.65603" lon="6.78931">
        <ele>466.86</ele>
        <time>2012-03-08T14:39:25Z</time>
      </trkpt>
      <trkpt lat="43.65595" lon="6.78946">
        <ele>467.34</ele>
        <time>2012-03-08T14:39:45Z</time>
      </trkpt>
      <trkpt lat="43.65584" lon="6.78949">
        <ele>470.22</ele>
        <time>2012-03-08T14:40:00Z</time>
      </trkpt>
      <trkpt lat="43.65572" lon="6.78957">
        <ele>468.78</ele>
        <time>2012-03-08T14:40:18Z</time>
      </trkpt>
      <trkpt lat="43.65559" lon="6.78961">
        <ele>470.22</ele>
        <time>2012-03-08T14:40:37Z</time>
      </trkpt>
      <trkpt lat="43.65544" lon="6.78967">
        <ele>473.11</ele>
        <time>2012-03-08T14:40:58Z</time>
      </trkpt>
      <trkpt lat="43.65546" lon="6.78965">
        <ele>475.03</ele>
        <time>2012-03-08T14:41:24Z</time>
      </trkpt>
      <trkpt lat="43.65539" lon="6.78976">
        <ele>475.03</ele>
        <time>2012-03-08T14:41:41Z</time>
      </trkpt>
      <trkpt lat="43.65529" lon="6.78985">
        <ele>473.11</ele>
        <time>2012-03-08T14:41:59Z</time>
      </trkpt>
      <trkpt lat="43.65524" lon="6.78992">
        <ele>473.11</ele>
        <time>2012-03-08T14:42:18Z</time>
      </trkpt>
      <trkpt lat="43.65509" lon="6.79004">
        <ele>473.11</ele>
        <time>2012-03-08T14:42:37Z</time>
      </trkpt>
      <trkpt lat="43.65497" lon="6.79013">
        <ele>475.03</ele>
        <time>2012-03-08T14:42:59Z</time>
      </trkpt>
      <trkpt lat="43.65484" lon="6.79021">
        <ele>476.47</ele>
        <time>2012-03-08T14:43:22Z</time>
      </trkpt>
      <trkpt lat="43.65469" lon="6.79029">
        <ele>474.07</ele>
        <time>2012-03-08T14:43:40Z</time>
      </trkpt>
      <trkpt lat="43.65456" lon="6.79033">
        <ele>473.59</ele>
        <time>2012-03-08T14:43:58Z</time>
      </trkpt>
      <trkpt lat="43.65455" lon="6.79034">
        <ele>473.59</ele>
        <time>2012-03-08T14:44:00Z</time>
      </trkpt>
      <trkpt lat="43.65439" lon="6.79042">
        <ele>473.59</ele>
        <time>2012-03-08T14:44:19Z</time>
      </trkpt>
      <trkpt lat="43.65428" lon="6.79047">
        <ele>475.03</ele>
        <time>2012-03-08T14:44:34Z</time>
      </trkpt>
      <trkpt lat="43.65413" lon="6.79059">
        <ele>473.11</ele>
        <time>2012-03-08T14:44:55Z</time>
      </trkpt>
      <trkpt lat="43.65404" lon="6.79074">
        <ele>473.59</ele>
        <time>2012-03-08T14:45:11Z</time>
      </trkpt>
      <trkpt lat="43.65392" lon="6.79079">
        <ele>471.66</ele>
        <time>2012-03-08T14:45:33Z</time>
      </trkpt>
      <trkpt lat="43.65373" lon="6.79077">
        <ele>472.14</ele>
        <time>2012-03-08T14:45:53Z</time>
      </trkpt>
      <trkpt lat="43.6536" lon="6.79076">
        <ele>474.07</ele>
        <time>2012-03-08T14:46:15Z</time>
      </trkpt>
      <trkpt lat="43.6535" lon="6.79081">
        <ele>475.99</ele>
        <time>2012-03-08T14:46:36Z</time>
      </trkpt>
      <trkpt lat="43.65349" lon="6.79083">
        <ele>475.99</ele>
        <time>2012-03-08T14:46:38Z</time>
      </trkpt>
      <trkpt lat="43.6533" lon="6.7909">
        <ele>475.03</ele>
        <time>2012-03-08T14:46:57Z</time>
      </trkpt>
      <trkpt lat="43.65316" lon="6.791">
        <ele>474.55</ele>
        <time>2012-03-08T14:47:14Z</time>
      </trkpt>
      <trkpt lat="43.65312" lon="6.79102">
        <ele>474.07</ele>
        <time>2012-03-08T14:47:19Z</time>
      </trkpt>
      <trkpt lat="43.65295" lon="6.79111">
        <ele>473.59</ele>
        <time>2012-03-08T14:47:38Z</time>
      </trkpt>
      <trkpt lat="43.65288" lon="6.79114">
        <ele>472.63</ele>
        <time>2012-03-08T14:47:46Z</time>
      </trkpt>
      <trkpt lat="43.65282" lon="6.79114">
        <ele>471.66</ele>
        <time>2012-03-08T14:47:56Z</time>
      </trkpt>
      <trkpt lat="43.65279" lon="6.79112">
        <ele>470.7</ele>
        <time>2012-03-08T14:48:00Z</time>
      </trkpt>
      <trkpt lat="43.65273" lon="6.79112">
        <ele>470.7</ele>
        <time>2012-03-08T14:48:05Z</time>
      </trkpt>
      <trkpt lat="43.65255" lon="6.79114">
        <ele>472.63</ele>
        <time>2012-03-08T14:48:23Z</time>
      </trkpt>
      <trkpt lat="43.65248" lon="6.79114">
        <ele>471.66</ele>
        <time>2012-03-08T14:48:39Z</time>
      </trkpt>
      <trkpt lat="43.65227" lon="6.79117">
        <ele>471.18</ele>
        <time>2012-03-08T14:48:58Z</time>
      </trkpt>
      <trkpt lat="43.65214" lon="6.79122">
        <ele>471.18</ele>
        <time>2012-03-08T14:49:15Z</time>
      </trkpt>
      <trkpt lat="43.65199" lon="6.79123">
        <ele>472.14</ele>
        <time>2012-03-08T14:49:32Z</time>
      </trkpt>
      <trkpt lat="43.65185" lon="6.79126">
        <ele>472.14</ele>
        <time>2012-03-08T14:49:47Z</time>
      </trkpt>
      <trkpt lat="43.65169" lon="6.79131">
        <ele>472.14</ele>
        <time>2012-03-08T14:50:04Z</time>
      </trkpt>
    </trkseg>
  </trk>
</gpx>